GFSSW_sfc_temp_000.txt.gz
Temp
63 63 63 64 64 64 64 65 64 64 64 65 65 64 64 65 66 74 75 79 77 71 70 80 78 78 77 73 72 69 56 55 61 60 62 67 63 66 63 60 62 67 61 61 66
62 62 62 62 63 63 64 64 63 63 64 64 64 64 64 64 75 75 77 73 72 71 77 76 75 76 70 70 68 62 56 60 65 67 63 66 66 65 60 61 62 63 64 64 63
61 61 61 61 62 62 63 63 63 63 63 63 64 63 64 65 73 76 72 73 72 73 79 79 78 76 68 70 67 65 58 68 67 69 69 66 65 68 63 59 65 64 66 60 59
61 61 61 61 61 62 62 62 62 62 63 63 63 63 63 75 62 74 71 72 72 77 78 76 74 67 65 64 71 59 68 70 68 66 63 62 66 64 64 66 67 64 64 61 60
61 60 60 60 61 61 62 62 62 62 62 63 63 63 70 71 73 73 68 70 77 76 75 74 71 69 64 68 66 62 65 69 69 65 62 66 62 61 63 68 71 71 66 61 60
60 60 60 60 60 61 61 62 62 62 62 62 62 61 71 65 76 78 75 72 78 75 74 74 71 71 66 66 63 63 63 64 67 66 65 61 59 60 63 69 68 69 63 62 62
60 60 59 59 60 60 61 61 61 61 61 62 62 68 72 71 78 77 75 72 72 73 72 72 72 67 68 63 65 63 56 62 65 64 62 61 55 57 66 66 65 66 65 64 64
60 59 59 59 59 60 60 60 61 61 61 62 63 70 66 73 75 75 75 71 72 73 71 69 69 67 63 64 63 56 56 50 62 65 59 58 50 62 67 65 65 62 62 64 64
61 59 59 59 59 59 60 60 60 61 62 62 66 68 66 69 70 74 74 71 70 70 67 73 67 63 61 54 52 56 48 52 58 64 58 54 50 63 64 61 62 61 62 64 65
60 60 60 60 60 60 60 61 63 62 63 70 74 64 68 67 67 70 70 71 67 65 64 63 61 56 54 53 44 49 50 56 54 58 56 51 51 59 63 62 62 65 66 66 66
60 60 60 60 60 60 60 66 66 62 68 66 67 68 69 67 68 66 69 67 66 62 55 59 52 50 56 59 61 59 55 53 60 63 55 53 55 59 62 63 63 65 66 65 64
60 60 60 60 60 60 59 62 56 56 54 69 69 69 70 69 62 63 69 60 59 53 57 53 49 60 62 61 56 54 52 53 60 61 53 51 52 58 59 61 64 64 65 64 61
60 60 59 59 60 60 61 58 62 62 53 63 68 66 65 65 61 61 63 61 56 53 56 53 57 62 59 55 54 53 49 51 52 56 51 47 45 49 55 61 62 63 65 61 61
60 59 59 59 56 62 59 61 62 60 47 57 59 61 60 61 55 59 62 60 58 54 56 55 62 60 56 54 56 49 56 53 52 46 38 48 40 49 53 57 57 61 64 58 59
59 59 59 59 58 59 57 61 60 57 34 57 56 62 58 56 54 53 58 56 53 53 53 52 51 50 50 53 57 50 49 47 46 42 39 41 38 45 54 52 56 60 64 60 61
58 58 58 60 60 60 60 59 56 47 34 54 56 53 52 53 52 53 53 56 54 51 52 52 53 51 52 49 50 50 46 45 42 40 32 43 43 41 48 53 55 59 62 62 54
58 58 57 64 57 60 59 55 45 38 56 53 53 54 52 51 51 49 47 44 44 40 42 48 50 49 51 47 46 46 42 30 28 26 34 47 40 51 53 57 59 59 61 60 54
57 57 56 60 59 58 53 47 35 51 53 58 55 53 50 54 51 49 47 44 48 47 44 43 43 48 50 51 48 42 45 31 24 32 40 34 35 47 58 62 61 62 61 56 53
57 55 54 56 57 54 45 32 40 52 58 57 58 49 49 52 53 49 46 49 52 51 45 44 46 46 49 50 52 44 38 47 34 27 28 43 48 54 56 57 57 57 55 53 52
54 53 52 58 56 50 38 36 42 56 56 56 47 53 49 52 47 48 49 52 52 54 58 50 44 50 44 45 45 44 46 35 35 23 21 40 41 47 54 58 54 51 52 52 52
53 48 53 56 53 44 33 36 48 56 57 51 48 47 49 50 53 51 50 56 57 55 55 49 47 44 42 39 43 37 38 40 43 36 28 31 42 50 52 52 52 52 53 53 53
51 43 50 54 41 41 37 43 50 51 56 50 46 44 41 43 43 45 47 54 56 53 47 50 45 36 45 51 46 48 46 47 39 36 34 40 42 58 53 54 54 55 57 57 55
47 47 50 50 39 38 42 44 48 49 49 49 47 47 49 46 37 41 47 56 54 52 42 46 38 29 35 45 42 40 45 48 48 44 39 34 40 60 62 61 56 54 53 55 56
45 40 42 44 45 42 41 40 40 49 48 49 48 50 44 41 46 42 42 48 51 52 47 47 37 35 32 39 46 40 41 42 44 38 38 39 43 52 57 58 61 61 61 54 53
44 42 44 36 38 41 43 41 40 40 48 51 45 45 43 38 41 41 44 45 47 48 45 43 31 34 39 42 40 38 41 43 41 42 36 43 45 51 56 58 60 62 59 59 57
39 40 42 40 44 40 40 38 38 43 45 44 42 46 46 41 43 42 42 44 43 42 43 42 33 32 31 36 37 34 40 41 41 42 44 45 43 55 58 59 59 59 60 58 57
45 44 38 38 39 37 38 40 38 41 42 45 45 44 43 46 50 51 52 51 49 44 37 34 33 31 28 35 33 28 34 38 40 44 44 39 47 56 55 56 57 59 60 59 57

GFSSW_sfc_temp_003.txt.gz
Temp
63 63 63 63 63 63 64 64 64 64 64 64 64 64 64 64 64 67 67 74 73 71 70 72 70 69 67 64 65 62 50 47 53 55 56 60 59 60 61 58 60 65 60 59 59
62 62 62 63 62 63 63 63 63 63 63 64 64 64 64 63 66 67 75 72 71 71 73 70 66 67 61 62 62 56 47 53 60 58 58 60 60 61 57 57 58 59 56 58 58
62 62 62 62 62 62 63 63 62 62 63 63 63 63 63 62 64 69 72 72 71 71 72 72 70 68 59 61 60 57 52 59 62 62 61 61 58 62 58 55 59 60 60 56 54
61 61 61 61 61 62 62 62 62 62 62 62 63 62 62 64 57 68 71 71 71 71 70 69 66 61 58 57 64 55 62 63 63 65 61 58 61 60 60 66 66 64 63 57 53
61 60 60 60 61 61 62 62 62 62 62 62 62 62 62 60 65 69 68 69 70 71 69 67 63 61 56 59 61 58 59 63 63 62 62 61 59 57 58 62 64 65 63 57 57
60 60 60 60 60 61 61 61 62 61 62 62 62 60 60 56 70 70 69 68 71 69 67 67 65 65 61 60 57 57 59 58 60 62 61 59 55 57 60 62 62 64 62 57 58
61 60 59 60 60 60 61 61 61 61 61 61 62 63 60 64 71 69 70 67 67 68 65 67 65 62 59 57 60 58 55 56 62 59 58 58 54 54 65 60 61 60 61 60 58
61 60 59 60 60 60 60 61 61 61 61 61 61 59 60 67 66 69 68 64 66 67 66 65 65 63 59 59 59 51 48 45 57 56 57 59 50 59 61 57 58 61 58 58 58
60 60 60 60 60 60 60 60 60 61 61 61 56 57 59 67 65 68 68 65 65 64 63 71 64 58 55 50 46 45 42 44 52 58 54 52 49 57 60 57 58 56 56 60 63
60 60 60 60 60 60 60 60 60 60 60 64 67 56 62 62 64 66 65 66 62 61 60 59 56 51 47 45 41 41 41 47 47 52 50 47 51 58 57 55 56 56 56 56 61
60 60 60 60 60 60 57 53 58 56 56 59 58 59 62 61 64 61 64 63 62 57 51 54 47 45 54 51 52 49 46 45 54 58 53 54 53 58 60 55 54 56 60 63 61
60 60 60 60 60 60 54 53 49 49 47 58 60 62 66 63 59 58 65 58 55 50 51 48 45 55 55 53 51 49 47 47 55 56 51 51 52 56 53 57 60 60 61 63 59
60 59 59 59 60 57 53 50 55 53 43 54 60 60 60 62 58 58 61 56 52 47 49 51 52 57 55 51 49 51 47 50 48 52 49 46 43 48 53 54 59 61 62 63 58
59 59 59 59 55 54 50 55 55 51 39 48 54 56 57 57 53 55 58 57 52 50 49 48 57 55 49 49 52 49 52 52 47 41 41 43 39 46 49 51 53 57 61 57 53
58 59 59 60 51 51 54 54 53 49 29 51 52 59 54 54 51 51 53 51 47 48 48 49 48 46 48 53 52 51 49 46 42 39 36 39 36 41 49 48 54 60 63 61 54
58 58 59 56 52 53 54 52 50 42 28 48 50 48 47 48 48 50 50 53 50 46 48 47 48 49 50 47 50 48 43 42 39 36 32 38 40 43 44 50 52 59 62 63 55
58 57 57 62 54 55 56 54 42 33 50 47 48 47 46 45 45 45 43 41 41 37 37 43 46 46 50 44 44 43 40 28 27 23 32 43 35 49 50 53 56 59 61 62 53
57 57 56 59 57 56 53 43 31 43 46 53 51 47 45 48 47 44 41 38 43 42 39 38 42 45 48 50 44 40 42 30 23 29 39 30 32 45 54 58 57 60 63 56 50
57 55 54 55 56 54 46 34 37 42 51 50 51 45 42 46 47 43 39 39 45 48 42 39 42 44 45 45 50 41 37 47 32 19 25 41 44 51 53 54 54 56 49 52 49
54 53 52 56 55 50 40 40 40 49 52 52 44 45 40 45 44 44 41 45 47 49 56 49 41 48 42 44 44 43 44 33 32 24 21 38 34 45 51 57 58 52 50 49 48
53 48 51 55 53 44 36 39 45 51 51 48 46 44 44 43 45 44 40 48 49 49 50 47 45 44 41 39 41 40 38 40 40 34 34 32 40 50 46 53 56 51 49 49 50
49 43 51 54 41 41 40 42 48 48 51 49 48 46 45 46 44 44 42 47 55 50 44 44 41 32 39 46 45 45 42 43 37 33 32 36 40 57 49 49 50 51 53 49 51
45 44 50 50 38 40 42 44 48 46 47 47 45 46 49 44 38 42 43 52 54 50 42 44 34 28 32 41 41 42 43 44 44 36 33 29 36 58 59 57 52 51 52 53 54
43 38 42 44 45 42 42 43 42 48 46 47 46 48 44 41 45 42 43 47 50 50 49 47 35 32 31 39 42 34 37 40 43 35 38 37 41 49 54 55 59 60 62 63 56
39 36 41 35 39 40 42 42 40 41 47 49 44 43 42 38 40 41 44 45 47 47 45 45 33 34 37 40 40 39 38 41 38 41 36 40 41 47 52 55 57 60 61 57 52
35 35 38 39 42 40 39 38 39 40 41 40 39 43 44 39 41 37 41 42 42 43 44 46 35 38 33 36 35 32 40 40 39 40 41 42 42 54 56 58 56 58 59 57 58
39 39 38 35 33 34 36 40 40 40 42 42 37 34 35 39 39 39 39 39 40 38 38 38 34 33 30 36 35 30 35 38 40 43 42 36 44 53 53 54 55 57 58 58 58

GFSSW_sfc_temp_006.txt.gz
Temp
63 63 63 63 63 63 64 64 63 63 63 64 64 63 63 64 64 64 64 73 72 70 70 69 66 65 65 61 62 58 48 44 49 51 56 57 56 58 58 56 57 62 58 58 56
62 62 63 63 62 63 63 63 63 63 63 63 63 63 63 63 63 64 73 72 72 70 70 67 64 64 58 59 59 54 45 50 57 55 56 58 58 58 54 56 56 58 57 55 55
62 62 62 62 62 62 62 62 62 62 63 63 63 63 62 60 61 67 72 72 71 70 71 70 67 65 56 57 57 54 50 55 60 61 60 59 56 60 56 55 58 60 61 54 51
61 61 61 61 61 62 62 62 62 62 62 62 62 62 61 60 56 68 71 71 71 70 70 67 64 58 55 55 60 51 58 60 61 61 58 57 57 57 57 67 64 62 59 53 52
61 60 60 60 61 61 62 62 62 62 62 62 62 62 60 57 64 67 68 69 67 68 67 66 62 60 54 55 56 54 56 60 61 60 57 59 58 57 57 61 62 62 59 55 55
61 60 60 60 61 61 61 62 62 62 62 62 62 60 57 54 68 68 67 65 67 66 65 65 63 63 58 57 56 55 57 57 58 59 58 58 56 57 65 59 60 60 60 56 55
61 60 60 60 61 61 61 61 61 61 61 62 62 61 56 62 67 66 67 65 66 65 63 64 65 62 58 55 58 55 54 54 58 57 57 55 52 51 66 57 59 59 58 58 56
61 60 60 60 60 61 61 61 61 61 61 61 62 56 57 66 63 65 64 63 64 64 63 62 63 60 56 58 56 48 46 44 55 53 55 56 50 58 61 56 59 58 56 56 58
60 60 60 60 60 60 61 61 60 61 61 61 55 56 57 66 62 66 65 62 62 62 62 69 62 56 53 48 45 41 40 41 49 55 52 51 49 57 56 55 56 58 56 57 60
60 60 60 60 60 60 61 61 60 60 60 62 65 54 60 60 61 63 61 64 59 59 59 57 53 49 46 44 39 40 38 42 45 50 48 46 49 58 59 55 54 56 54 53 56
60 60 60 60 60 61 57 53 56 55 54 57 56 57 59 61 61 60 63 62 60 55 49 50 45 44 53 48 54 44 42 42 48 56 48 48 51 56 62 55 50 55 59 62 64
60 60 60 60 60 60 53 49 47 48 45 56 56 57 61 61 58 58 63 57 54 48 49 45 41 52 55 50 48 47 46 46 52 54 47 50 50 57 56 60 62 61 61 60 62
60 59 59 60 59 56 50 49 53 51 41 51 55 56 58 61 55 55 60 54 49 46 47 50 52 53 51 48 46 46 44 47 46 48 45 43 46 46 52 56 60 55 60 63 65
59 59 59 59 56 51 49 53 53 50 37 46 52 54 55 56 53 53 54 54 47 48 46 45 53 52 46 46 50 46 50 49 45 39 40 42 39 45 49 52 54 55 58 58 61
58 59 59 60 52 51 54 53 51 48 28 49 51 57 53 52 49 49 51 51 44 45 46 47 47 45 44 50 49 49 48 46 41 36 34 34 33 41 48 46 52 60 58 62 65
58 58 58 55 51 54 54 51 49 42 29 46 49 47 46 47 47 47 48 51 48 44 44 46 46 47 48 47 48 46 43 41 36 35 33 39 38 42 41 48 51 57 61 62 65
58 57 57 59 53 56 55 53 42 36 48 45 45 46 45 44 44 44 43 41 42 38 37 41 43 43 48 43 43 44 41 29 26 22 29 41 33 50 50 55 54 59 61 62 63
57 57 55 59 58 57 54 46 34 43 45 50 46 46 45 47 46 43 39 38 41 41 37 36 40 44 46 47 43 41 43 34 22 28 39 30 32 45 53 56 57 56 57 57 55
56 55 54 55 56 56 47 37 40 42 49 48 48 42 40 44 48 42 38 38 43 45 42 38 41 44 44 45 49 38 35 47 33 17 21 40 43 51 47 53 52 53 53 53 52
53 53 53 56 56 51 42 41 43 48 49 50 42 44 37 41 41 40 38 43 44 46 49 44 38 46 41 43 42 43 45 33 31 25 22 34 34 44 48 50 50 51 54 53 49
51 47 52 55 54 45 37 40 46 50 52 47 45 44 41 42 45 44 43 43 46 45 48 45 41 40 39 38 41 38 39 39 39 34 33 31 38 46 47 45 48 52 56 48 49
48 41 51 55 42 42 40 44 48 48 51 49 48 46 44 45 43 44 43 46 50 49 43 45 39 31 37 45 42 43 44 46 37 33 32 33 37 55 56 55 56 55 57 52 49
44 43 50 50 38 39 43 43 46 45 46 46 45 46 48 43 38 44 45 51 52 51 44 44 36 32 32 39 42 38 42 44 43 40 37 30 34 57 58 55 56 53 57 54 53
41 37 43 45 45 42 41 42 41 46 46 47 45 47 43 40 44 41 42 45 47 49 49 47 40 36 32 39 41 37 38 39 42 36 37 37 41 50 53 55 58 57 58 54 58
38 35 40 35 39 40 42 41 40 39 46 47 43 43 41 37 38 38 42 41 45 47 46 44 34 35 38 41 42 42 41 42 40 42 36 41 42 48 53 55 57 59 60 56 52
34 33 37 37 39 38 39 38 37 40 42 40 39 43 41 35 35 33 34 34 34 37 36 38 33 35 33 37 35 34 40 41 41 42 41 41 41 53 55 57 55 57 58 57 57
36 37 37 33 30 29 33 35 38 39 38 40 39 34 34 35 37 38 38 36 36 34 34 33 32 31 28 32 31 28 35 35 39 42 41 35 43 43 41 44 50 51 42 39 42

GFSSW_sfc_temp_009.txt.gz
Temp
63 63 63 63 63 63 63 63 63 63 63 63 63 63 63 63 64 61 62 72 70 70 70 66 64 63 62 59 59 54 47 42 47 48 53 55 54 57 56 54 55 60 56 55 52
62 62 62 63 63 63 63 63 62 62 63 63 63 63 63 62 60 61 71 72 72 70 68 66 62 62 57 56 57 53 44 49 53 53 52 55 56 57 54 54 54 57 56 52 52
62 62 62 62 62 62 62 62 62 62 62 62 63 62 62 59 60 66 72 72 71 70 68 67 64 63 54 54 54 51 49 52 58 58 57 56 54 58 53 54 56 59 61 52 50
61 61 61 61 62 62 62 62 62 62 62 62 62 62 61 58 55 67 71 71 70 68 68 65 61 56 53 53 57 49 55 56 58 58 56 55 57 55 56 66 62 62 59 53 50
61 61 61 61 61 62 62 62 62 62 62 62 62 62 59 56 62 65 67 68 66 66 66 63 59 57 53 53 53 51 53 58 58 57 56 56 55 55 56 64 60 61 58 55 52
61 61 60 60 61 62 62 62 62 62 62 62 62 61 56 53 67 66 65 63 63 62 62 62 60 60 54 55 54 53 55 56 55 56 56 57 60 54 62 59 60 57 57 55 53
61 60 60 60 61 61 62 62 62 61 61 61 62 59 55 62 64 64 65 63 64 62 59 60 60 58 55 52 56 53 52 52 53 53 54 53 52 49 63 56 59 56 56 56 54
61 60 60 60 60 61 61 61 61 61 61 61 61 53 56 65 62 63 62 61 62 62 61 60 61 58 54 56 55 48 44 42 53 51 52 54 48 64 59 55 57 57 56 55 57
60 60 60 60 60 60 61 61 60 61 61 61 54 51 56 65 61 63 63 62 62 61 60 67 61 55 52 46 43 40 38 40 46 54 53 50 47 58 56 53 55 55 56 57 59
60 60 60 60 60 60 60 60 60 59 59 60 62 52 59 59 61 62 60 63 58 58 57 55 50 47 43 43 38 39 35 40 41 52 45 44 46 54 59 53 54 57 58 60 62
60 60 60 60 60 61 56 53 55 53 52 56 54 55 58 58 60 58 61 60 57 53 47 48 44 42 51 47 52 42 41 40 46 53 44 47 49 53 59 58 59 53 57 61 61
60 60 60 60 60 60 53 49 46 47 46 54 54 55 58 58 54 55 60 55 51 47 47 42 40 51 51 48 45 43 43 43 50 53 45 47 48 52 54 56 60 62 62 63 64
60 59 59 60 59 55 49 48 52 49 41 50 53 53 56 59 53 54 58 52 48 44 45 48 49 51 48 46 44 43 41 46 45 45 44 42 45 49 50 52 58 61 62 63 62
60 59 59 59 56 50 49 52 52 49 37 45 49 52 53 54 50 52 52 51 46 46 44 44 50 50 44 43 47 44 47 47 43 37 37 41 37 42 52 54 55 56 59 58 59
58 59 59 59 51 51 52 52 50 48 30 48 49 56 52 50 47 48 50 49 44 45 44 45 43 41 42 47 46 46 46 44 38 34 33 34 31 37 46 48 50 54 56 59 59
58 57 58 56 52 54 52 51 50 42 33 45 48 46 45 46 45 46 46 49 47 42 42 44 44 47 47 45 46 45 41 38 33 34 28 37 36 40 41 48 48 52 57 57 57
57 57 56 58 54 56 54 51 41 35 47 43 43 44 43 43 43 42 42 40 41 36 36 39 41 42 47 42 40 42 37 28 25 22 28 37 32 49 52 57 53 58 54 56 55
56 57 55 58 58 56 53 46 33 42 43 47 45 43 43 46 47 43 38 38 41 39 35 35 38 43 45 46 42 38 39 28 20 25 36 30 31 48 52 53 49 51 52 51 51
55 55 55 55 56 55 48 37 40 45 47 47 46 39 38 42 44 40 37 38 44 45 41 35 36 40 43 44 49 38 34 43 32 21 23 39 42 51 47 50 47 49 47 50 55
48 52 53 56 55 51 43 40 42 49 48 48 40 45 36 40 43 42 41 41 42 45 47 45 36 44 40 40 41 42 43 32 29 22 23 32 38 42 47 54 53 49 50 52 52
49 46 50 54 54 45 37 40 45 51 51 47 45 43 41 41 42 43 42 44 44 43 47 44 38 38 40 37 42 35 35 36 37 33 31 29 34 53 50 47 48 49 50 51 51
47 40 50 54 42 42 39 44 48 47 49 49 47 47 44 44 43 42 41 46 51 49 42 44 38 31 36 41 41 41 39 39 32 32 36 37 38 56 57 55 52 51 55 53 52
41 40 50 50 37 39 43 43 46 45 45 45 43 45 46 42 37 43 45 51 50 47 43 43 35 30 31 35 34 33 40 41 42 39 32 29 36 56 57 57 57 51 48 50 52
39 34 42 45 46 41 40 41 41 46 44 47 45 46 43 40 43 38 39 45 44 45 46 44 38 34 29 31 39 35 38 41 39 33 34 36 40 47 51 54 57 58 52 51 45
37 34 38 30 38 39 41 39 37 38 45 46 42 42 40 35 35 35 40 38 40 42 40 41 32 34 36 37 36 35 34 35 36 40 34 38 39 46 50 52 44 44 41 39 38
34 32 36 33 37 36 38 37 36 38 41 39 39 41 41 35 36 33 32 35 33 35 35 37 29 33 30 35 35 32 34 33 33 33 33 35 36 41 32 32 34 34 36 36 37
34 35 35 33 30 29 31 34 37 37 38 40 37 34 34 35 33 34 36 36 36 33 30 31 30 26 22 30 29 24 31 35 38 38 33 27 25 28 28 28 30 30 34 35 37

GFSSW_sfc_temp_012.txt.gz
Temp
63 63 63 63 63 63 63 63 63 63 63 63 63 63 63 63 64 59 60 71 69 70 69 65 63 61 60 58 57 53 46 41 45 46 51 52 51 54 54 52 52 59 56 55 50
62 62 63 63 63 62 62 62 62 62 63 63 63 63 63 62 57 59 70 72 71 70 66 65 60 61 56 55 55 51 43 47 51 50 52 53 54 55 52 53 54 56 57 51 50
62 62 62 62 62 63 63 62 62 62 62 62 62 62 62 59 59 65 72 72 71 70 67 64 62 61 53 52 53 49 48 50 55 56 54 54 52 55 52 53 55 58 61 53 49
62 62 62 62 62 63 63 62 62 62 62 62 62 62 61 55 54 64 70 71 70 67 66 62 59 54 51 51 54 47 53 54 55 57 54 54 55 53 55 65 62 61 60 53 50
61 61 61 61 62 62 63 63 63 62 62 62 62 62 58 55 62 64 67 68 65 65 63 60 57 54 50 50 51 48 51 55 56 54 55 54 55 53 53 62 60 59 57 56 53
61 60 60 61 61 62 62 63 63 62 62 62 62 61 55 51 65 64 63 63 63 62 60 61 59 59 53 52 52 50 52 53 53 55 55 55 59 52 58 56 60 56 56 54 53
61 60 60 60 61 61 62 62 62 61 61 61 61 58 53 60 62 62 64 61 61 61 60 59 60 57 54 50 52 51 50 50 50 51 51 51 50 48 61 53 58 57 55 54 54
60 60 60 60 60 61 61 61 61 61 61 61 61 53 55 62 60 61 61 59 60 60 60 60 61 58 53 53 52 45 42 42 49 48 50 53 45 61 59 51 56 56 56 56 57
60 60 60 60 60 60 61 61 60 62 61 61 53 53 55 63 59 61 60 60 60 59 58 65 59 53 50 44 42 39 37 38 45 52 50 48 45 56 53 51 54 55 57 57 63
60 60 60 60 60 60 60 60 60 59 58 59 61 51 58 58 58 59 58 61 57 56 56 54 49 46 42 42 37 38 34 37 39 50 44 44 45 53 56 53 52 58 61 62 62
60 60 60 60 60 61 56 53 54 52 52 55 53 54 57 56 58 57 59 59 56 52 47 47 42 41 49 46 46 40 39 39 43 50 43 50 51 53 55 54 57 60 59 60 60
60 60 60 60 60 60 53 50 47 48 46 53 52 54 56 56 53 53 59 54 51 46 45 41 38 48 47 45 44 41 41 42 47 50 43 44 46 53 55 57 59 59 61 61 62
60 59 60 60 60 55 49 48 51 49 41 49 51 51 53 57 52 53 56 50 46 43 43 44 47 48 46 42 43 40 38 44 42 43 42 40 41 42 49 50 56 58 60 57 59
59 59 59 59 56 50 49 51 50 48 38 44 48 50 52 51 47 51 51 50 45 45 42 42 46 47 40 42 44 42 46 45 42 37 32 40 35 42 48 51 50 54 53 53 56
58 58 59 59 51 51 52 51 49 46 30 47 47 54 50 48 46 47 49 48 42 42 42 43 41 40 40 44 44 43 44 42 37 34 31 31 30 37 42 45 49 52 53 53 52
57 58 58 57 54 55 53 52 49 40 31 44 46 44 44 45 44 45 45 48 45 41 40 42 42 44 46 44 45 44 39 37 32 32 27 35 35 38 39 45 46 54 54 56 54
56 57 56 58 54 55 54 51 41 34 46 42 42 43 43 43 42 42 41 39 40 35 34 37 40 41 44 39 39 40 36 27 24 21 27 33 30 44 47 52 52 53 54 54 52
55 56 56 58 56 56 54 47 33 39 41 45 44 44 42 44 45 42 39 37 40 38 35 34 37 42 43 45 42 37 38 28 22 22 35 28 31 45 49 52 52 51 51 49 48
55 53 54 55 56 55 48 38 40 40 45 44 46 40 38 41 44 39 37 36 42 43 42 34 35 39 42 42 45 36 34 40 33 26 24 37 40 50 48 46 46 48 48 48 48
46 49 50 56 55 52 44 40 43 48 47 47 41 45 35 38 39 38 39 39 41 43 46 43 37 42 40 40 40 41 42 32 30 24 20 31 33 39 47 49 51 52 51 47 51
47 44 49 52 54 46 37 40 46 50 51 46 44 43 43 41 43 42 42 43 43 42 45 43 39 37 38 35 38 36 36 36 37 33 27 26 34 52 50 49 46 47 48 50 55
47 37 50 53 42 43 39 43 47 48 50 46 46 45 42 43 41 41 42 46 48 47 42 44 38 31 35 39 41 40 42 40 32 29 30 33 33 50 52 54 55 48 45 38 39
41 39 50 50 35 38 43 43 45 45 45 44 43 44 47 42 37 40 40 48 48 46 41 42 35 29 30 33 34 33 37 40 40 37 30 26 31 51 53 53 34 37 37 38 39
39 30 42 44 43 39 38 40 40 47 45 45 44 45 41 39 43 39 41 43 42 43 44 42 34 32 28 34 37 33 37 38 34 29 30 30 32 41 41 39 33 35 36 37 38
34 31 35 33 33 39 39 39 35 35 41 45 41 40 39 34 36 35 38 39 38 41 39 38 31 34 36 35 33 31 30 33 31 33 28 31 33 34 29 28 31 32 34 34 35
30 31 33 32 34 35 33 35 36 38 38 38 37 39 38 34 34 32 34 33 33 34 35 36 27 29 26 31 32 29 32 32 32 32 32 32 30 29 31 32 31 30 30 32 33
32 34 35 31 29 28 27 30 32 33 35 35 33 32 32 33 33 33 33 32 33 29 30 30 28 24 21 28 25 20 27 30 32 36 29 24 23 24 25 29 32 31 32 34 33

GFSSW_sfc_temp_015.txt.gz
Temp
63 63 63 63 63 63 63 63 63 63 63 63 63 63 63 63 63 59 60 70 68 70 69 65 65 63 63 60 60 57 49 44 49 48 55 58 57 60 61 62 60 62 63 66 56
62 62 63 63 63 63 63 63 62 62 63 63 63 63 63 62 57 59 70 72 71 70 66 65 61 62 58 57 57 54 46 49 54 53 56 58 58 60 60 61 58 61 63 59 54
62 62 62 63 63 63 63 63 62 62 63 62 62 62 62 59 60 65 72 72 70 70 66 64 62 62 56 55 55 52 50 53 56 57 57 56 55 59 58 57 60 61 65 60 55
62 62 62 62 62 63 63 63 63 62 63 62 62 62 61 56 54 64 70 71 70 67 66 63 61 56 53 53 55 50 54 55 57 57 55 56 56 56 57 66 66 63 65 62 57
61 61 61 61 62 62 63 63 63 62 62 62 62 62 57 54 62 63 67 67 65 66 64 61 58 55 52 52 52 50 52 56 55 55 55 55 56 55 56 63 63 61 59 60 59
61 61 61 61 61 62 62 63 63 62 62 62 62 61 55 51 65 63 62 62 63 63 60 61 59 58 54 53 53 52 53 53 54 56 54 55 59 55 60 60 61 58 60 57 57
61 60 60 61 61 62 62 62 62 62 61 62 62 57 52 60 62 61 63 61 61 62 58 59 61 59 56 51 54 52 51 52 51 53 52 52 51 49 62 56 58 61 59 58 57
61 60 60 60 61 61 61 61 61 61 61 61 61 52 56 60 59 61 59 59 59 60 61 61 60 58 55 55 52 47 45 43 51 49 51 54 48 60 61 55 59 59 62 60 63
60 60 60 60 60 60 61 61 60 62 61 61 52 52 56 62 58 59 59 59 58 58 59 64 59 53 51 46 43 41 39 40 45 52 50 49 47 55 56 54 56 60 63 64 64
60 60 60 60 60 60 60 61 60 59 58 58 60 51 58 57 57 58 57 60 57 56 55 54 49 46 43 43 38 40 36 38 41 52 46 46 45 54 57 57 59 61 61 61 62
60 60 60 60 60 61 56 54 54 52 52 54 55 54 55 56 57 56 58 59 56 53 46 47 43 41 48 46 45 42 40 39 44 50 44 50 50 53 56 56 57 60 62 62 62
60 60 60 60 60 60 53 51 48 48 45 53 52 54 54 55 52 53 58 54 51 46 45 42 39 48 47 45 44 42 40 41 45 49 43 44 47 54 56 57 59 59 61 58 59
59 59 59 60 60 55 49 49 50 50 40 48 50 49 52 56 51 52 55 50 46 42 43 43 46 48 46 43 43 39 39 43 41 42 43 40 41 43 53 50 53 57 56 56 55
59 59 59 59 56 50 49 50 49 48 38 43 47 49 51 50 45 51 51 49 44 44 42 41 46 46 41 42 43 40 45 43 40 37 34 42 34 40 50 53 50 53 54 54 54
58 58 59 60 51 50 51 50 48 46 30 46 46 54 50 47 45 47 49 47 41 41 43 43 41 39 40 43 44 42 42 40 38 35 33 34 32 39 44 46 51 54 55 55 54
57 58 58 56 55 53 51 50 48 44 32 42 46 43 43 44 43 44 45 48 44 40 40 42 43 44 45 43 44 44 40 38 33 34 28 36 35 37 41 47 48 56 55 54 53
56 56 57 57 53 53 52 51 38 34 46 41 42 42 41 41 41 42 41 38 41 35 35 39 40 41 44 40 40 41 38 29 27 23 28 34 31 41 47 50 52 54 55 52 51
55 56 56 58 56 53 52 46 33 41 40 43 43 41 41 44 43 40 40 38 39 39 36 35 37 41 44 45 42 39 40 34 22 24 34 28 32 43 48 50 51 48 50 50 51
55 52 53 53 56 55 49 35 39 42 44 42 45 39 35 39 43 39 37 37 40 43 41 34 35 39 41 42 47 37 36 43 33 28 25 36 40 51 47 49 48 49 46 41 41
45 48 48 55 54 52 43 39 41 46 47 46 39 42 36 38 41 40 39 40 39 42 44 42 34 42 40 40 40 42 43 33 31 24 23 32 31 38 43 43 44 36 35 37 39
45 42 48 53 55 46 36 39 43 49 49 45 43 42 42 41 42 40 40 43 44 43 44 43 37 36 38 36 38 35 35 37 38 33 25 26 32 43 40 35 33 35 36 37 38
43 35 50 54 42 42 39 43 45 44 49 46 45 42 41 41 39 39 40 45 47 45 40 43 37 31 36 40 39 40 40 39 31 28 29 31 31 50 38 37 35 34 36 37 38
38 38 48 50 36 37 42 41 46 42 44 44 43 43 42 40 35 40 40 45 46 43 41 41 35 29 29 34 34 35 38 39 37 32 29 26 31 45 43 35 36 33 34 35 37
36 29 37 44 40 38 36 37 38 42 42 44 42 42 38 37 40 37 36 42 41 41 44 42 34 32 28 34 35 31 33 35 33 29 30 31 33 40 36 30 31 31 33 34 35
32 30 35 26 32 38 40 36 32 32 40 41 37 38 36 33 32 33 37 36 39 41 37 37 30 33 34 36 31 30 29 30 28 30 25 30 30 38 31 28 30 32 33 34 34
29 28 31 32 35 31 35 32 33 34 36 35 34 36 35 34 34 31 33 32 34 34 34 34 28 27 23 31 32 29 31 31 31 31 31 31 31 29 30 31 30 32 31 32 33
31 33 33 29 28 26 26 30 29 31 33 33 32 30 28 33 33 33 33 32 32 30 29 29 26 26 22 27 23 17 25 29 31 33 31 25 23 23 23 28 29 29 31 31 32

GFSSW_sfc_temp_018.txt.gz
Temp
63 63 64 64 64 64 64 64 63 63 63 63 63 63 63 63 64 69 72 78 76 70 72 77 77 76 76 72 72 71 67 62 64 62 70 73 71 73 75 75 74 76 78 84 71
63 63 63 63 63 63 64 63 63 63 63 63 63 63 63 63 68 71 76 72 72 70 77 77 73 74 74 70 70 70 64 66 71 72 71 73 71 74 72 75 76 74 80 78 70
62 62 63 63 63 63 63 63 63 63 63 63 63 63 62 64 72 77 72 72 70 73 80 77 77 75 69 69 69 66 65 71 70 72 71 70 70 72 71 70 77 77 81 82 75
62 62 62 62 63 63 63 63 63 63 63 63 62 62 62 70 66 77 71 71 70 78 78 74 73 70 67 65 68 62 67 68 69 68 67 67 70 68 71 75 82 82 81 79 78
61 61 61 62 62 63 63 63 63 63 62 62 62 62 69 70 74 73 68 70 75 76 76 73 71 69 65 66 64 61 67 68 69 66 67 68 66 68 71 78 80 80 75 73 76
61 61 61 61 62 63 63 63 63 62 62 62 62 61 71 63 75 73 70 69 75 75 73 74 73 72 68 66 64 66 64 66 67 67 67 63 69 67 73 77 76 76 75 78 75
61 61 61 61 61 62 62 62 62 62 62 62 62 64 66 71 73 72 71 71 72 74 69 71 73 71 69 64 66 64 60 66 68 66 64 64 61 61 75 75 72 76 79 78 77
61 61 60 61 61 61 61 61 61 61 61 62 62 66 68 68 73 70 72 69 71 73 72 72 72 70 67 67 64 60 59 56 69 60 62 64 59 72 78 72 72 75 78 78 80
60 60 60 60 60 61 61 61 61 62 62 62 64 67 66 66 68 68 71 68 68 70 70 70 71 66 64 61 58 59 54 55 57 64 60 60 59 70 72 71 70 73 75 76 77
60 60 60 60 60 60 61 61 61 62 62 63 67 64 70 67 66 66 68 68 66 66 65 65 64 62 60 58 51 57 55 55 53 65 62 59 58 63 68 67 66 70 72 74 75
60 60 60 60 60 61 64 67 67 65 65 64 66 66 66 66 67 64 67 66 66 64 59 60 57 54 61 62 63 58 56 54 59 64 57 58 59 63 67 67 67 68 70 72 73
60 60 60 60 60 60 65 63 59 58 56 62 60 61 62 65 62 61 67 62 60 56 55 54 52 61 62 57 55 55 52 53 59 62 54 57 56 62 65 65 68 69 69 70 71
59 59 59 60 60 63 61 58 59 60 53 57 57 57 60 63 59 59 63 60 58 52 53 55 60 58 54 55 52 55 51 54 53 57 57 53 55 56 67 67 68 66 68 67 67
59 59 59 59 61 60 60 58 58 59 52 53 55 58 59 60 55 59 60 60 56 54 54 54 57 53 52 51 55 49 59 54 50 48 47 53 44 57 63 64 66 66 67 67 66
58 59 59 60 63 61 60 58 57 56 38 55 55 64 59 57 56 55 59 59 54 54 53 55 50 48 48 52 53 53 53 50 48 47 45 49 44 56 57 57 64 66 65 63 61
57 58 58 59 61 59 59 58 58 49 36 51 55 53 53 54 53 54 55 59 56 52 52 54 53 54 56 53 52 53 52 49 47 47 39 51 48 52 57 58 61 63 58 56 55
56 57 59 60 58 59 59 59 46 38 53 49 50 52 51 51 51 51 51 50 52 47 50 51 50 52 53 50 49 50 48 41 38 39 39 46 44 50 59 60 58 55 51 51 52
56 57 57 61 59 59 59 51 34 46 49 51 51 50 49 52 52 50 49 51 51 50 48 45 44 50 53 54 54 47 49 41 28 33 39 43 40 51 62 57 53 50 49 49 48
55 56 56 58 60 59 53 37 43 48 53 50 53 48 49 49 50 49 49 50 51 52 46 46 45 50 49 51 54 47 43 51 39 37 34 43 50 57 56 51 49 48 48 46 47
52 52 52 58 59 56 46 41 46 51 51 52 44 49 44 47 46 46 46 48 48 49 52 46 37 49 50 50 50 48 53 40 40 28 28 37 41 45 47 45 45 45 44 44 45
50 46 52 56 57 47 37 41 47 52 54 48 47 45 47 43 43 40 43 49 51 50 50 48 38 43 47 45 46 45 42 43 42 37 28 28 39 51 46 44 41 41 41 42 43
47 40 52 55 43 44 40 45 48 48 51 49 48 47 44 45 43 44 43 48 55 51 44 50 41 34 41 51 49 46 44 45 35 32 37 35 37 46 42 41 40 38 39 41 43
43 44 52 51 37 39 45 45 48 46 47 46 45 47 48 43 36 43 45 50 51 48 45 41 35 30 33 42 41 39 43 44 43 36 31 30 33 41 39 39 38 36 37 39 40
41 36 42 45 46 43 40 41 41 46 46 48 45 46 43 40 43 39 41 45 45 46 44 42 35 32 28 36 41 34 37 37 33 30 31 31 34 41 46 46 37 36 37 38 39
39 36 39 35 38 41 43 41 37 37 44 46 42 42 39 35 37 37 42 39 44 42 43 41 31 35 36 39 39 36 34 36 34 35 26 32 32 40 45 41 37 38 38 37 38
35 35 38 37 38 38 40 38 37 38 39 39 38 42 39 35 37 32 35 37 36 41 39 38 30 34 29 36 35 30 33 35 35 36 35 35 35 44 37 38 37 38 38 38 39
38 39 38 33 33 34 35 37 34 38 36 37 35 34 32 36 37 37 37 36 36 33 33 32 30 27 23 32 31 24 29 34 36 40 38 31 34 31 31 34 36 36 37 37 38

GFSSW_sfc_temp_021.txt.gz
Temp
64 64 64 64 64 64 64 64 64 63 63 63 64 63 63 63 64 74 77 80 79 71 73 82 82 82 82 78 78 78 69 66 69 69 74 79 75 79 83 78 82 83 81 86 81
63 63 63 63 63 64 64 64 63 63 63 63 63 63 63 63 74 77 77 73 71 71 82 79 77 79 78 76 76 72 68 70 78 78 75 79 77 77 77 78 80 83 87 87 86
63 63 63 63 63 63 63 63 63 63 63 63 63 63 62 66 75 81 73 72 70 73 85 85 82 78 73 75 74 73 66 76 77 78 78 75 74 79 74 72 80 81 85 87 86
62 62 62 63 63 63 63 63 63 63 63 63 63 62 62 76 68 79 71 71 70 83 82 79 78 72 70 69 77 65 73 73 75 76 71 71 77 73 74 76 82 83 85 84 82
62 62 62 62 62 63 63 63 63 63 63 63 63 62 70 74 77 78 69 70 78 80 79 77 74 74 69 73 72 66 70 75 75 74 72 72 70 72 73 80 84 84 83 82 82
62 61 61 61 62 63 63 63 63 62 62 62 62 61 73 67 78 80 77 74 80 78 78 79 76 78 72 71 69 73 69 70 73 72 72 67 69 73 76 82 82 81 81 84 83
62 61 61 61 62 62 62 62 62 62 62 62 62 68 71 74 79 78 76 76 77 79 76 79 78 73 74 68 74 68 62 69 71 74 71 70 64 67 78 81 78 78 81 83 84
61 61 61 61 61 61 61 62 61 62 61 62 62 70 70 73 80 75 77 74 76 78 76 77 78 73 70 74 68 63 66 58 71 68 68 66 59 73 78 76 75 78 79 80 82
60 60 61 61 60 60 61 61 61 62 62 62 68 70 70 68 71 73 76 72 73 74 74 74 74 70 70 62 61 64 56 60 64 73 66 63 60 71 75 73 72 74 76 77 79
60 60 60 60 60 60 60 61 61 61 66 69 72 67 71 70 69 70 73 73 70 69 67 68 68 63 64 62 51 58 60 62 61 69 68 64 63 69 73 73 73 74 76 77 77
60 60 61 61 61 61 66 72 69 67 69 69 69 69 73 70 71 67 70 69 71 68 61 64 59 56 64 67 65 62 59 58 62 68 63 61 61 65 71 72 72 74 76 77 75
60 60 61 61 61 61 68 68 61 60 58 71 69 66 67 68 64 65 70 65 62 58 61 57 54 64 67 65 59 59 56 56 62 66 62 60 58 63 67 70 73 73 73 73 72
60 60 60 61 61 67 68 62 65 65 57 64 63 62 64 66 63 65 67 65 61 59 57 56 62 65 60 59 57 58 56 56 56 60 61 58 55 63 68 73 74 74 71 67 65
60 60 60 60 61 69 65 64 65 65 55 59 58 60 62 64 58 62 65 64 61 57 61 59 63 57 57 55 58 51 61 56 54 51 48 57 43 57 65 68 68 68 64 62 60
59 59 60 59 69 67 64 65 64 62 39 58 57 66 62 59 59 57 63 62 57 58 57 57 54 52 53 57 59 55 56 55 53 50 50 53 48 56 65 61 62 60 58 57 56
58 58 58 64 68 65 66 64 63 51 38 54 58 56 56 58 57 58 59 63 60 56 58 57 59 57 59 60 58 57 54 55 54 51 41 53 51 53 58 59 60 58 56 56 56
57 57 58 65 64 65 65 63 49 39 57 53 53 56 55 55 55 56 55 54 54 50 52 57 55 58 57 53 55 53 50 41 40 41 39 54 47 53 61 63 61 55 53 54 54
56 57 58 65 67 65 63 54 35 47 53 56 55 54 52 56 57 55 55 53 60 55 50 48 45 54 57 55 53 53 52 41 31 35 41 48 42 52 63 58 56 54 53 52 51
56 59 59 62 64 64 57 40 42 52 57 55 55 51 53 56 53 55 55 54 56 58 48 47 47 59 55 57 54 52 45 54 40 39 35 43 51 60 61 53 53 52 51 49 49
53 53 55 60 62 59 50 43 50 56 54 54 47 54 48 51 49 51 51 53 51 53 56 49 39 53 52 54 54 51 52 41 43 27 28 39 43 48 54 52 50 47 46 47 48
51 47 55 59 60 51 40 45 51 57 54 51 49 49 50 48 49 44 45 51 55 53 53 50 41 45 50 48 46 48 44 46 45 40 30 29 39 50 48 49 45 43 44 44 45
50 43 55 56 43 47 42 48 48 49 53 50 50 48 47 49 46 45 46 51 57 53 46 51 44 35 42 53 55 50 45 46 35 32 38 35 34 51 46 44 44 42 43 44 44
47 47 54 51 39 41 47 47 50 48 49 48 47 50 52 47 41 46 47 54 53 49 46 47 37 29 35 46 43 41 45 45 43 37 31 28 35 46 43 41 39 38 40 42 42
47 39 45 45 51 46 45 46 44 50 49 51 48 50 47 43 47 42 44 49 48 48 44 45 36 33 29 37 43 36 38 41 36 29 32 33 34 39 42 39 38 40 42 42 42
44 43 46 36 39 43 46 45 42 42 47 48 45 45 44 39 42 41 46 47 47 45 46 43 31 36 38 41 40 37 35 37 36 37 29 35 35 41 46 46 42 43 42 41 42
41 40 42 44 46 43 42 41 41 42 42 41 41 45 44 38 40 35 39 40 39 45 43 44 30 34 28 36 36 32 37 38 38 37 36 37 37 49 46 42 41 41 42 41 42
42 44 42 39 39 39 40 41 41 44 42 42 43 40 37 41 44 41 41 41 40 36 35 35 32 27 22 31 31 23 30 35 38 41 40 32 35 33 35 37 38 38 39 40 41

GFSSW_sfc_temp_024.txt.gz
Temp
64 64 64 64 64 64 64 64 64 64 64 64 64 64 63 63 63 68 73 76 77 70 70 79 78 77 76 72 71 69 56 54 60 59 62 69 64 69 71 67 69 72 69 73 72
63 63 64 64 64 64 64 64 64 64 64 64 64 63 63 63 70 74 73 72 71 71 77 75 73 74 69 69 68 61 54 59 68 68 65 69 67 67 67 66 67 70 75 76 72
63 63 63 63 64 64 64 64 63 63 64 63 63 63 62 62 70 75 72 72 71 72 80 80 78 74 67 68 66 63 56 66 68 70 68 66 65 69 65 61 66 67 71 73 70
63 63 63 63 63 64 64 63 63 63 63 63 63 63 62 70 62 75 71 71 70 77 78 75 73 65 63 62 70 60 67 68 68 69 65 61 66 63 65 66 72 72 73 72 71
62 62 62 62 63 63 63 63 63 63 63 63 63 62 67 69 72 75 68 69 74 75 74 72 69 67 61 65 67 62 64 68 69 67 66 67 62 61 64 71 73 75 73 70 71
62 61 61 61 62 63 63 63 63 62 62 62 62 61 66 62 76 78 75 71 77 74 73 73 70 70 66 64 61 65 63 64 66 66 67 63 62 61 66 70 71 72 70 70 71
62 61 61 61 62 62 62 62 62 62 62 62 63 65 68 68 77 76 75 72 74 74 70 74 73 66 66 61 65 64 56 61 64 65 63 63 56 58 67 68 68 69 69 70 71
61 61 61 61 61 61 61 62 61 62 62 62 62 66 64 71 74 74 75 72 73 75 72 71 71 66 63 66 62 57 55 48 62 62 58 60 49 63 68 65 65 68 68 68 70
61 60 61 61 61 61 61 61 61 62 62 62 63 65 64 68 69 71 73 70 70 70 69 74 67 62 61 53 49 53 45 50 56 65 58 55 50 62 67 65 65 67 66 66 67
60 60 61 61 61 61 61 61 62 62 62 69 71 61 67 67 67 69 69 70 66 65 64 63 60 53 53 50 41 47 49 53 51 59 59 54 52 59 64 64 65 64 64 65 61
60 61 61 61 61 61 63 66 63 61 65 65 65 66 69 68 69 66 68 67 67 62 54 57 50 47 54 57 58 51 50 49 54 60 55 54 54 57 62 63 63 62 62 60 59
60 61 61 61 61 61 62 65 60 59 55 67 68 68 69 67 62 63 67 60 58 53 57 50 46 57 61 59 55 52 48 48 54 59 54 52 51 57 61 62 62 60 59 57 56
60 61 61 61 61 63 66 62 66 64 53 62 64 62 63 64 60 60 63 60 56 53 53 49 56 61 57 53 52 51 48 49 48 52 53 48 46 51 60 61 60 59 57 55 52
60 60 61 60 59 67 64 64 65 63 49 55 56 59 62 61 55 61 63 58 57 52 54 53 57 55 52 51 53 46 55 52 48 43 38 49 35 45 55 56 55 54 50 49 50
59 60 60 57 64 64 63 66 64 58 35 57 55 65 61 57 56 55 60 57 51 54 50 50 49 47 48 52 54 49 50 48 46 41 38 42 36 44 53 49 48 48 48 48 48
58 59 59 62 65 65 65 63 59 46 34 51 56 55 54 55 55 56 56 58 55 51 53 51 53 51 52 53 52 52 47 47 45 41 29 43 41 41 47 48 47 49 48 48 47
57 58 57 64 59 64 63 58 44 37 56 50 51 54 53 52 53 53 51 47 46 41 42 49 50 51 52 46 48 45 41 30 29 26 28 43 38 44 51 53 52 48 46 45 45
55 57 57 62 62 61 59 51 35 45 49 54 53 53 50 54 53 52 49 46 53 49 43 40 39 48 50 48 44 45 44 31 21 23 30 37 31 43 51 51 50 48 46 45 44
55 54 55 58 62 60 53 39 40 47 55 53 52 46 48 51 51 50 49 48 50 50 43 40 41 48 50 50 49 43 39 45 33 27 24 34 42 51 49 46 46 45 43 42 43
51 50 51 58 59 55 46 41 47 54 54 53 45 50 44 49 46 47 46 47 46 50 52 46 36 48 46 48 46 44 46 34 35 25 19 31 32 38 42 43 44 41 40 41 43
49 44 51 56 56 47 37 42 50 56 55 50 48 46 48 47 48 45 43 47 50 47 48 46 40 39 44 41 40 40 39 40 41 34 24 25 31 42 40 42 38 39 40 40 41
46 38 52 55 42 43 39 47 49 49 52 49 48 46 44 45 44 44 44 48 54 49 43 46 40 29 37 46 48 44 42 41 30 28 32 33 32 44 41 41 41 40 42 42 42
42 44 52 51 36 39 46 47 49 47 48 48 46 48 49 45 39 44 45 50 50 46 42 43 33 23 27 37 40 38 41 41 40 33 29 26 29 42 41 39 40 40 39 42 41
43 35 43 45 47 43 41 43 42 49 48 50 47 48 44 42 45 40 42 45 45 45 44 44 35 28 24 31 38 30 36 37 34 27 27 28 32 41 40 39 38 36 37 38 40
42 39 43 35 38 40 43 43 42 41 46 47 44 44 42 37 39 39 43 44 44 43 44 42 28 32 34 36 35 32 32 34 31 33 26 31 32 39 43 41 35 36 38 38 38
39 37 39 39 43 40 41 39 40 41 42 40 39 43 43 38 39 30 35 37 36 39 39 40 22 28 20 30 31 27 31 31 32 32 32 34 33 44 37 37 36 38 38 37 37
41 41 38 39 37 37 37 38 40 43 43 43 41 39 38 38 38 39 38 38 37 33 31 30 23 14 13 26 23 14 26 29 31 34 34 27 30 26 29 33 32 32 35 35 37

GFSSW_sfc_temp_027.txt.gz
Temp
64 64 64 64 64 64 64 64 64 64 64 64 64 64 63 63 63 63 65 73 72 70 70 70 68 68 68 64 64 61 49 46 51 55 56 62 61 65 65 61 62 67 65 68 64
63 63 64 64 64 64 64 64 64 64 64 64 64 63 63 63 61 65 72 72 71 70 71 68 65 67 60 61 61 55 47 52 58 55 55 59 57 58 61 61 61 64 66 67 66
63 63 63 63 63 64 64 63 63 63 63 63 63 63 63 61 63 68 71 72 71 70 71 71 69 67 57 59 58 56 51 57 62 62 60 60 61 61 58 55 62 62 65 67 66
62 62 62 63 63 63 64 63 63 63 63 63 63 63 62 61 55 68 70 71 71 71 70 68 64 58 55 55 62 52 61 61 62 63 61 58 60 59 58 63 66 66 66 64 67
62 62 62 62 62 63 63 63 63 63 62 63 63 62 61 59 64 69 68 68 69 69 66 66 60 59 53 56 59 55 57 62 62 62 61 61 58 58 59 66 65 66 68 65 65
61 61 61 61 62 63 63 63 63 62 62 63 62 61 58 55 71 71 69 67 69 66 64 64 63 64 58 57 55 56 56 58 60 62 60 59 57 57 62 62 65 65 64 64 65
61 61 61 61 62 62 62 62 62 62 62 62 63 62 59 63 70 71 71 67 68 68 64 66 65 61 58 55 59 57 53 55 58 58 58 58 53 56 62 61 63 63 59 64 62
61 61 61 61 61 61 62 62 62 62 62 62 63 58 58 67 65 69 69 66 68 68 66 66 67 62 59 60 58 52 47 44 56 57 56 56 47 59 63 60 62 63 58 61 56
60 60 60 61 61 61 61 61 61 62 63 62 56 55 57 67 64 65 65 64 65 65 65 71 64 57 57 49 44 45 41 44 51 58 55 52 47 58 63 59 59 58 57 55 53
60 60 60 61 61 60 61 62 61 61 61 64 66 54 60 61 62 64 63 66 61 60 59 57 54 47 46 44 37 41 41 46 45 55 52 48 48 54 58 59 60 56 51 51 50
60 60 61 61 61 61 59 58 57 55 56 58 59 59 64 62 64 61 63 62 61 55 48 51 45 41 47 49 50 46 44 42 48 55 49 50 48 53 57 56 56 51 50 49 49
60 60 61 61 61 61 56 56 55 55 51 61 61 62 63 63 57 58 62 55 53 48 50 46 42 51 53 52 51 47 43 43 48 53 49 48 47 53 56 54 53 51 48 47 47
60 60 61 60 60 59 58 57 61 58 48 56 59 58 58 61 55 55 59 56 51 47 48 43 50 55 53 50 48 45 43 43 45 47 48 44 42 49 54 51 51 49 49 48 46
60 60 60 60 57 59 56 60 60 57 42 50 52 55 58 57 50 58 58 55 51 48 48 46 53 52 49 47 49 42 48 48 46 40 35 43 31 42 48 46 46 45 43 43 44
59 59 60 60 55 57 59 60 58 53 30 51 51 60 57 53 52 51 56 52 46 47 47 46 47 45 45 48 50 46 47 45 43 38 34 38 31 39 44 40 41 41 42 42 43
58 59 59 59 56 59 61 59 54 44 32 46 50 49 49 51 50 51 51 52 51 46 46 47 49 49 49 50 49 49 44 43 39 37 27 36 36 36 42 44 41 42 42 43 42
58 58 57 62 57 61 60 55 43 35 51 45 46 49 48 47 47 48 46 42 42 38 37 43 46 47 50 43 46 45 38 28 26 23 26 37 34 40 46 46 45 40 39 40 40
57 57 56 59 59 59 56 47 34 42 43 50 49 49 46 50 48 48 45 42 46 43 39 37 36 45 48 46 42 41 41 29 19 22 25 37 30 38 41 43 43 42 40 41 40
56 53 54 56 58 57 50 39 39 43 50 48 48 42 43 49 49 45 43 42 44 48 40 37 38 45 47 48 49 41 37 42 32 20 21 30 38 41 41 40 40 39 39 39 40
50 49 50 56 56 53 45 40 45 51 52 52 44 45 39 43 42 42 43 44 43 47 47 41 34 43 42 45 45 43 44 32 30 16 16 27 30 33 36 36 38 37 37 39 39
48 45 50 55 55 45 36 41 46 52 53 49 44 42 42 43 44 39 41 43 46 44 47 43 39 36 41 39 39 39 37 38 37 31 21 19 28 39 38 38 35 36 38 38 39
46 40 51 54 41 41 38 44 48 48 50 48 45 43 41 43 41 40 40 45 48 46 41 42 38 26 35 42 43 43 39 39 28 26 27 29 32 41 39 38 38 38 39 39 39
42 42 50 50 35 37 43 44 47 46 46 45 43 45 47 42 37 41 43 44 47 44 41 43 31 19 27 34 39 36 39 39 39 32 27 25 26 39 38 37 38 37 37 38 37
41 36 41 45 44 41 39 40 41 47 45 47 45 46 42 40 43 38 40 42 44 42 46 46 35 27 25 29 34 28 31 33 34 23 20 24 26 37 39 35 36 36 36 35 36
41 36 41 35 38 40 41 41 40 39 45 46 42 42 41 36 38 37 42 39 42 44 41 40 26 30 32 32 31 30 29 31 28 30 23 30 30 36 40 36 34 34 34 35 36
36 35 37 37 41 39 39 37 38 41 41 39 38 42 42 37 37 31 36 37 36 37 37 38 22 27 19 30 30 26 30 30 30 30 30 31 30 40 32 32 33 35 35 35 35
38 39 37 36 35 36 37 38 38 41 41 42 42 39 36 34 37 37 36 36 35 33 31 31 24 14 11 25 22 14 25 29 30 32 29 24 29 23 27 32 31 31 32 33 34

GFSSW_sfc_temp_030.txt.gz
Temp
64 64 64 64 64 64 64 64 64 64 64 64 64 63 63 63 63 61 63 71 70 70 70 67 67 66 66 62 62 57 48 44 48 50 52 59 59 63 60 57 59 63 60 64 62
63 63 63 64 64 64 64 64 64 63 64 64 64 63 63 63 59 61 72 72 71 70 68 65 62 63 58 58 59 53 45 50 55 54 52 58 55 57 57 57 59 58 62 63 60
63 63 63 63 63 64 64 63 63 63 63 63 63 63 62 60 61 65 71 72 71 70 69 67 66 64 55 56 55 52 49 54 57 58 57 57 57 57 54 54 59 62 59 63 60
62 62 62 63 63 63 63 63 63 63 63 63 63 63 62 59 53 65 70 71 70 68 68 65 62 56 53 52 58 50 58 58 60 59 57 55 59 58 56 62 62 63 61 60 62
62 61 62 62 62 63 63 63 63 63 62 63 63 62 60 57 63 67 68 68 68 67 63 62 58 57 52 53 55 52 54 59 61 59 57 58 57 56 58 62 62 62 63 60 59
61 61 61 61 62 63 63 63 63 62 62 63 63 62 58 54 67 69 67 66 67 65 62 63 60 61 55 54 53 53 54 57 58 59 58 56 53 56 61 57 63 62 60 56 53
61 61 61 61 61 62 62 62 62 62 62 63 63 61 57 62 67 67 68 65 66 66 63 63 63 60 57 54 58 55 52 54 56 55 55 55 51 53 61 58 60 59 55 52 51
61 60 60 61 61 61 62 62 62 62 62 62 63 57 57 65 64 67 66 64 65 66 65 63 63 61 56 57 56 49 46 43 54 54 54 54 47 58 61 57 57 53 48 49 49
60 60 60 61 61 61 61 61 61 62 63 62 55 54 56 66 62 63 63 62 63 63 63 69 62 55 55 47 43 43 40 42 50 56 53 50 46 56 61 56 54 50 46 47 46
60 60 60 60 61 61 61 62 62 61 61 63 63 52 58 59 60 62 61 64 59 58 58 56 51 46 44 43 37 40 39 42 43 51 49 49 48 53 57 54 51 45 44 44 44
60 60 60 60 61 61 58 56 56 54 54 57 57 56 60 60 62 59 61 60 59 55 47 49 44 41 46 47 47 44 42 41 45 52 46 47 46 52 54 54 48 44 44 44 44
60 60 60 61 61 61 56 54 54 54 51 59 58 59 61 61 55 56 62 55 52 47 48 44 41 51 50 49 47 44 41 41 46 49 46 46 47 52 51 47 46 44 42 42 42
59 60 60 60 60 58 56 56 59 56 48 54 57 57 57 60 54 54 59 53 49 46 45 42 49 52 50 47 45 43 41 41 43 45 45 42 41 46 44 46 46 44 43 43 41
59 59 59 60 56 57 56 59 59 56 41 48 51 54 56 57 50 56 56 54 48 47 45 44 50 49 45 45 46 40 47 46 43 39 35 41 30 40 42 41 41 40 38 38 39
59 59 59 60 55 56 58 58 57 55 30 49 49 58 55 52 51 49 54 51 46 47 46 45 44 43 43 46 48 45 46 44 41 36 33 34 31 36 40 37 37 37 38 38 39
59 59 59 58 55 58 59 59 57 44 31 45 49 48 48 49 48 49 49 51 50 45 44 46 47 47 48 47 47 48 43 40 36 34 26 34 34 34 39 40 37 38 38 39 38
58 58 58 61 55 59 59 56 41 35 48 43 44 46 46 44 45 46 44 41 40 36 36 41 44 45 47 43 43 43 38 29 25 23 26 35 30 37 38 41 41 37 36 37 37
58 58 57 59 59 61 57 47 34 40 41 47 47 45 43 46 45 44 41 39 43 40 37 36 35 44 46 45 42 39 39 28 19 21 25 32 29 35 37 38 39 39 38 38 37
58 55 55 55 57 56 51 38 40 43 47 46 46 40 40 46 45 42 40 39 44 44 40 35 36 42 44 44 47 39 35 39 31 16 20 29 31 36 37 35 36 36 37 36 37
51 50 51 56 57 54 46 42 44 50 50 50 42 45 38 44 43 40 39 42 43 46 45 41 34 41 41 43 41 41 43 32 29 17 17 26 28 30 32 33 35 35 36 37 37
50 46 50 55 54 47 40 40 45 52 53 48 44 43 42 42 43 37 39 42 44 43 46 42 39 34 39 37 37 36 35 35 34 28 18 15 26 36 37 37 35 37 38 37 37
47 42 50 53 42 42 39 43 48 48 50 48 46 43 42 44 41 38 39 43 47 45 40 41 37 25 34 38 40 39 37 37 26 24 24 26 30 40 40 39 38 37 38 37 37
44 42 50 50 38 37 42 44 47 44 44 45 44 46 45 43 39 40 40 43 45 44 40 42 30 17 26 34 36 34 36 36 34 30 20 22 26 38 37 36 37 36 36 37 36
42 36 42 45 44 41 40 40 41 46 46 46 44 46 43 40 42 38 37 41 41 41 46 45 32 28 27 29 33 30 33 34 34 22 23 26 28 35 34 34 34 35 36 35 34
41 38 41 35 39 40 42 41 39 38 44 45 41 43 40 36 36 36 39 37 40 43 42 42 31 30 31 33 33 31 31 31 29 30 24 31 29 36 36 34 34 34 33 34 33
37 35 38 38 43 40 40 37 38 40 41 39 39 41 42 39 38 33 38 37 36 36 37 37 25 28 22 31 31 27 31 29 30 31 29 31 29 39 37 31 30 33 33 32 32
38 39 37 35 36 37 36 36 38 42 41 43 43 39 37 41 39 37 38 37 38 35 33 32 25 18 16 24 21 15 23 29 32 31 30 24 30 23 28 32 31 31 32 33 33

GFSSW_sfc_temp_033.txt.gz
Temp
63 63 64 64 64 64 64 64 64 64 64 64 64 63 63 63 63 60 61 68 68 70 69 65 65 64 63 60 60 54 47 43 45 47 50 56 57 57 58 55 57 60 58 62 62
63 63 63 63 63 63 64 64 63 63 63 63 63 63 63 63 58 60 70 72 71 70 66 63 60 62 57 56 56 51 44 48 52 51 50 56 53 55 56 58 54 56 63 63 60
63 63 63 63 63 63 63 63 63 63 63 63 63 63 62 60 61 63 70 72 71 69 67 65 64 61 54 54 52 49 48 52 55 57 55 54 53 54 52 50 57 58 59 60 60
62 62 62 62 63 63 63 63 63 63 63 63 63 62 62 58 52 63 70 71 70 67 66 63 60 54 50 50 55 48 55 54 57 57 54 53 56 56 54 61 59 58 57 56 55
61 61 61 62 62 63 63 63 63 63 63 63 63 62 58 56 61 65 67 68 66 65 63 61 57 55 50 51 53 49 52 56 58 57 55 55 55 54 57 61 59 59 56 52 50
61 61 61 61 62 62 63 63 63 62 62 63 63 62 56 53 65 66 65 65 65 63 60 61 59 59 54 52 52 53 52 55 56 57 54 54 51 52 59 57 58 57 50 48 47
61 60 60 61 61 62 62 62 62 62 62 63 63 60 56 60 64 64 66 63 64 63 61 61 61 58 56 51 55 53 51 53 54 53 53 54 49 52 59 57 55 52 46 46 46
60 60 60 60 61 61 61 62 62 62 62 62 63 56 56 64 63 64 64 63 65 65 64 62 61 59 54 55 53 47 45 42 51 51 52 52 47 57 58 55 51 45 42 44 45
60 59 60 60 60 61 61 61 61 62 63 62 55 53 55 65 61 62 61 61 61 61 61 67 60 52 52 46 42 42 38 39 47 52 50 49 46 55 57 55 48 42 42 43 43
59 59 60 60 60 60 61 62 62 61 60 61 62 51 57 57 59 61 59 62 58 57 57 55 49 45 42 42 36 39 37 40 41 47 48 45 47 53 54 51 44 40 40 41 41
59 59 60 60 60 61 59 56 55 53 53 56 55 55 57 57 60 57 59 59 57 54 47 47 44 41 45 46 46 42 39 39 42 50 44 45 45 50 51 44 40 39 39 40 40
59 60 60 60 61 61 55 53 54 55 51 58 56 57 58 59 53 55 60 54 51 46 46 43 40 50 49 47 45 41 38 39 44 47 45 44 45 46 43 41 41 39 38 38 39
59 59 59 60 60 57 54 56 58 56 48 53 55 55 56 59 53 54 58 52 48 44 44 42 48 50 49 44 43 40 39 39 42 42 42 39 39 41 40 41 41 40 39 39 38
59 59 59 60 57 56 55 59 58 57 41 46 51 53 55 56 49 55 56 53 47 45 43 42 48 48 43 43 45 38 45 45 41 38 34 38 30 38 38 36 37 37 35 36 36
59 59 59 60 55 54 59 58 57 56 30 48 48 57 53 51 49 49 54 51 45 45 44 43 43 41 42 44 47 43 44 42 39 35 32 33 30 34 36 33 33 34 35 35 36
58 59 58 58 56 57 58 58 57 43 30 44 48 47 47 48 47 48 48 51 49 45 43 44 45 45 46 44 46 46 42 39 34 33 25 33 34 32 35 37 34 35 35 36 36
58 58 58 61 56 59 58 55 41 35 46 42 42 44 44 43 43 45 43 41 39 35 35 39 42 43 46 42 42 41 37 29 25 23 25 31 29 35 35 36 39 35 34 35 36
58 58 58 61 60 60 55 46 34 42 41 46 45 43 42 44 42 42 40 37 42 39 35 35 34 43 45 44 41 38 39 29 19 20 25 31 28 36 34 36 38 38 36 36 35
58 57 57 59 59 58 49 39 39 42 46 45 44 40 39 43 42 40 38 38 43 42 40 34 35 41 42 42 45 37 34 38 29 14 20 30 32 34 34 33 33 34 34 34 35
56 55 55 57 58 53 46 43 45 51 50 48 41 44 38 41 40 39 38 42 43 44 43 41 34 39 40 42 40 40 42 32 28 17 15 26 27 31 30 31 33 33 34 35 36
50 48 51 56 55 48 41 43 45 51 53 49 45 43 41 41 42 36 39 41 44 43 45 41 39 34 38 36 36 36 34 34 34 28 19 15 27 36 36 35 33 34 36 36 36
48 43 50 55 44 44 44 44 47 48 50 48 46 45 43 43 41 38 38 42 46 45 41 42 36 28 33 35 35 37 36 36 30 26 24 25 32 37 37 38 36 36 38 37 37
44 42 50 50 40 38 41 43 45 44 45 45 44 46 46 43 39 39 39 41 43 44 41 42 31 20 28 33 34 33 34 34 31 27 18 22 26 37 37 36 37 36 36 37 36
43 38 42 44 43 42 40 40 40 44 44 45 44 45 42 40 41 37 37 40 40 40 46 45 33 31 31 30 33 29 32 32 30 23 23 29 31 33 34 35 35 35 36 36 36
43 39 42 35 38 41 43 41 39 38 43 45 40 42 41 36 37 37 38 37 39 42 39 40 27 29 30 31 31 30 30 30 29 31 29 33 32 35 36 35 34 35 35 34 32
37 37 38 39 43 40 40 38 39 42 40 38 39 42 42 36 39 34 37 36 36 34 36 36 27 28 22 30 31 28 30 31 32 33 31 31 31 38 35 34 32 33 33 32 32
39 39 37 38 40 38 38 40 39 44 41 42 41 40 39 40 42 38 40 39 39 35 32 32 28 25 25 25 25 20 25 30 32 30 31 25 33 25 30 32 32 31 31 33 33

GFSSW_sfc_temp_036.txt.gz
Temp
63 63 63 64 63 64 64 64 64 64 63 64 64 63 63 63 63 58 59 66 66 70 69 63 64 63 61 58 57 52 46 42 44 47 48 52 54 55 56 53 57 57 56 59 61
63 63 63 63 63 63 64 64 63 63 63 63 63 63 63 63 57 58 69 72 71 70 64 61 58 60 56 54 54 50 43 47 49 49 48 52 51 52 54 54 52 55 59 60 59
62 62 63 63 63 63 63 63 63 63 63 63 63 63 62 59 59 61 70 72 71 68 65 63 62 59 52 52 50 47 47 49 52 54 52 52 52 53 50 51 52 52 56 55 51
62 62 62 62 63 63 63 63 63 63 63 63 63 62 62 57 51 62 70 70 70 65 64 62 60 53 49 48 52 46 52 53 55 55 52 50 54 53 53 54 55 54 52 49 48
61 61 61 61 62 63 63 63 63 63 62 63 63 62 58 55 60 63 67 67 65 63 61 59 55 53 48 49 51 48 50 53 55 54 53 53 52 51 56 55 55 52 49 46 45
61 61 61 61 61 62 63 63 63 62 62 63 63 62 56 52 63 64 64 63 63 62 58 59 58 57 52 50 49 50 51 53 54 53 52 52 49 50 51 52 52 49 44 43 43
61 60 60 60 61 62 62 62 62 62 62 63 63 60 55 60 62 63 64 61 62 62 59 59 60 56 54 50 53 51 49 51 51 50 52 52 48 50 52 53 49 44 42 43 43
60 60 60 60 61 61 61 61 61 61 62 63 63 55 55 62 61 62 63 61 62 63 62 60 61 58 53 53 51 46 44 41 48 49 49 50 46 52 52 52 44 41 39 41 42
59 59 60 60 60 60 61 61 61 62 63 62 55 53 55 64 59 60 60 60 60 60 60 65 59 51 52 45 42 41 37 38 46 49 48 47 45 53 52 48 41 38 39 40 40
59 59 59 60 60 60 60 61 61 60 60 61 61 51 56 56 58 59 58 61 57 56 56 54 48 44 42 42 36 38 36 38 40 45 46 43 47 51 48 46 38 36 37 38 39
59 59 60 60 60 61 58 55 54 52 51 55 54 53 56 56 58 55 58 58 56 53 46 45 43 40 44 46 44 42 39 39 41 47 43 44 44 47 43 39 36 36 36 37 37
59 60 60 60 60 60 56 51 54 54 50 56 55 56 58 58 52 54 59 53 50 45 45 42 39 48 47 45 44 40 38 38 43 45 44 42 43 40 39 37 38 36 36 36 36
59 59 59 60 60 58 54 54 57 54 47 52 54 53 55 58 54 53 57 50 46 42 43 41 46 48 48 42 41 39 38 37 41 40 40 36 38 37 37 38 38 37 37 37 36
59 59 59 59 56 57 53 59 58 55 41 46 50 52 54 56 49 54 55 52 45 44 42 42 46 47 42 42 43 37 44 43 40 37 32 36 30 35 35 34 35 35 34 34 35
59 59 59 60 54 54 57 57 57 56 29 47 47 56 53 51 49 48 53 50 44 44 44 42 42 41 41 42 45 42 43 41 39 34 31 31 29 33 33 32 32 33 34 33 34
58 58 58 58 56 56 57 58 57 41 30 42 46 46 47 48 47 47 48 51 49 44 42 43 45 45 45 43 45 44 40 37 33 32 25 33 34 31 32 36 33 34 34 35 35
58 58 57 61 55 58 57 55 40 34 46 40 40 43 43 42 44 45 42 41 39 35 35 39 41 42 45 41 41 40 36 28 25 23 25 29 28 35 38 36 37 35 34 34 34
58 58 57 61 59 59 54 46 34 41 41 43 42 41 41 43 42 42 39 38 42 38 34 33 33 42 45 43 39 37 38 29 20 20 24 29 27 35 34 35 36 38 36 34 34
57 56 56 59 59 57 48 39 39 41 46 43 43 37 37 41 41 39 37 37 42 41 39 33 35 40 41 41 43 37 34 37 28 13 19 29 32 35 33 31 32 32 33 33 33
55 54 55 61 57 54 45 41 43 49 48 46 42 42 36 38 38 37 36 41 42 44 43 41 34 38 39 42 41 39 41 32 29 19 14 26 28 32 32 31 31 31 32 33 34
54 49 53 60 56 49 41 42 47 51 52 48 47 42 40 39 40 35 38 41 44 41 46 41 39 34 38 36 36 35 34 33 34 29 21 17 27 34 36 34 32 33 35 35 35
49 43 51 58 46 46 43 47 49 48 50 49 48 46 41 41 39 37 38 42 46 46 41 43 37 27 33 34 35 36 36 36 32 25 22 24 30 34 35 35 36 35 37 35 35
45 43 50 50 42 42 44 46 46 45 47 45 45 46 46 43 40 39 39 42 45 45 42 43 32 21 28 33 33 32 34 34 32 29 20 21 28 36 34 34 34 34 34 36 36
44 39 42 45 44 42 41 40 40 44 44 45 45 45 43 41 42 38 38 40 42 42 46 46 33 31 30 31 33 30 32 33 31 21 24 31 34 31 33 34 33 34 35 36 35
43 40 43 36 39 42 42 41 40 38 42 44 40 43 44 37 40 37 38 37 40 43 41 42 30 30 31 33 32 32 32 31 29 34 30 35 33 34 37 36 37 37 35 34 35
39 38 39 38 45 41 41 38 37 40 40 38 39 41 42 37 39 33 38 37 38 36 37 37 28 29 25 31 30 28 31 30 33 31 29 30 31 38 37 35 34 35 35 35 34
39 39 38 39 38 38 39 39 39 43 42 43 42 41 38 42 41 38 37 39 39 37 34 34 29 26 25 24 25 25 28 29 29 30 33 29 36 30 31 33 33 32 32 33 34

GFSSW_sfc_temp_039.txt.gz
Temp
63 63 64 64 63 64 64 64 64 64 64 64 64 63 63 63 63 59 60 66 67 70 69 64 66 64 63 60 59 56 49 45 49 50 54 58 58 61 61 62 63 64 64 59 58
63 63 63 63 63 63 63 63 63 63 63 64 64 63 63 63 58 59 68 72 71 70 65 63 60 62 58 57 56 52 47 51 54 55 55 57 57 58 60 59 60 62 59 56 55
62 62 63 63 63 63 63 63 63 63 63 63 63 63 63 59 59 60 70 72 70 68 65 64 63 61 55 56 54 51 50 52 55 57 57 56 56 58 57 55 60 59 55 52 52
62 62 62 62 63 63 63 63 63 63 63 63 63 63 62 58 50 61 69 70 70 66 65 62 60 55 52 51 54 50 53 54 56 56 56 54 57 57 56 58 55 51 51 49 48
61 61 61 61 62 63 63 63 63 63 63 63 63 63 59 56 60 63 67 67 64 64 62 60 57 55 51 52 53 50 52 54 56 55 54 54 55 55 55 52 51 50 48 46 46
61 61 61 61 61 62 62 63 63 62 62 63 63 62 56 52 62 64 64 64 63 62 59 60 59 58 54 52 52 53 52 54 55 55 54 54 52 55 53 51 49 47 45 45 45
61 60 60 60 61 61 62 62 62 62 62 63 63 59 54 60 62 63 64 61 62 63 60 60 61 58 56 51 53 52 50 52 52 52 53 54 49 51 54 51 46 44 43 44 44
60 60 60 60 61 61 61 61 61 62 62 63 63 56 55 61 60 63 62 61 62 63 62 60 61 58 55 54 52 48 47 44 51 51 51 53 48 51 53 51 44 42 42 42 43
60 59 60 60 60 60 61 61 61 62 63 63 54 53 54 63 58 60 60 60 59 60 60 64 58 52 53 47 44 43 41 41 47 51 50 50 48 50 51 47 42 41 41 42 42
59 59 59 60 60 60 60 61 61 60 60 60 61 51 56 55 57 59 57 60 57 56 56 55 49 45 43 44 38 40 39 40 42 48 48 46 49 48 44 44 40 39 40 40 41
60 59 60 60 60 60 59 54 53 51 50 54 53 53 55 56 58 55 58 58 56 53 46 46 44 42 44 46 45 43 41 42 43 48 46 46 46 49 42 40 38 38 39 39 40
60 60 60 60 60 60 58 51 53 54 48 55 53 55 57 58 53 54 59 54 50 45 45 43 40 47 47 46 45 41 40 40 43 46 45 43 44 45 41 40 40 38 38 39 39
59 59 59 59 60 58 56 54 57 53 46 52 52 53 54 57 54 52 57 52 47 42 42 41 46 47 47 42 42 39 39 38 42 42 42 40 40 39 38 38 39 39 39 39 39
59 59 59 59 56 57 54 59 58 55 40 44 49 52 53 55 49 54 56 53 45 45 42 42 46 46 42 42 43 37 43 43 41 39 35 39 33 38 36 35 36 36 36 37 38
59 59 59 60 54 54 57 57 57 56 28 46 45 54 52 51 48 47 53 52 43 44 45 43 42 41 41 43 45 41 42 41 39 36 34 35 32 37 36 35 34 35 35 36 37
59 58 58 57 56 55 56 58 58 41 30 41 44 45 46 47 46 47 49 52 49 43 41 43 44 45 46 44 45 43 40 38 34 33 27 35 36 34 35 38 34 35 35 36 36
58 58 57 61 55 57 57 55 40 33 45 39 39 43 42 41 42 44 42 40 38 34 34 38 41 44 45 41 42 40 38 29 27 26 27 31 30 36 40 39 39 37 36 36 36
58 58 58 60 59 59 54 46 34 41 40 41 41 40 40 42 40 41 39 37 41 38 34 33 32 42 45 44 40 37 39 30 23 22 26 29 28 38 36 36 37 39 38 37 35
57 56 56 59 59 57 48 38 37 40 46 42 41 35 35 39 39 37 36 36 43 42 41 34 36 41 42 43 45 38 35 39 27 15 22 31 34 38 35 34 33 34 35 35 35
55 54 55 59 58 54 44 40 42 48 46 45 42 41 34 36 37 36 35 40 41 45 45 42 35 38 39 42 40 40 42 33 30 22 19 28 30 35 34 34 31 32 35 36 36
54 49 55 59 56 49 39 41 46 49 50 45 44 41 39 37 41 34 37 40 43 42 48 42 39 34 38 37 37 36 35 34 35 31 23 19 28 37 39 36 32 33 36 36 36
52 45 51 57 45 47 42 44 48 49 49 48 46 46 41 42 41 36 37 42 46 45 41 44 38 28 33 35 36 36 37 36 31 26 24 25 30 35 36 37 36 36 37 37 38
46 45 50 53 41 42 46 46 48 46 48 48 46 47 45 45 40 39 37 43 44 46 43 42 35 25 30 33 33 33 35 35 34 31 22 25 28 36 34 34 34 35 35 36 36
45 39 43 45 44 44 43 43 43 46 47 49 47 47 44 42 47 39 38 39 42 44 47 48 35 35 36 34 35 31 32 34 35 24 29 31 31 33 35 35 34 35 36 35 36
45 41 42 37 41 43 43 42 41 39 43 46 41 45 45 40 43 42 39 37 39 44 42 43 36 33 32 35 34 33 32 32 32 37 32 36 34 35 40 39 37 38 34 34 35
40 39 40 39 44 42 43 39 39 42 41 39 40 43 45 43 43 39 42 37 38 37 38 37 32 32 29 32 32 29 33 33 34 35 37 33 33 40 41 35 34 35 34 34 35
39 40 41 40 39 39 40 40 40 44 42 45 43 39 38 41 41 39 39 39 39 37 34 33 30 30 29 26 28 27 30 31 30 30 36 29 38 31 34 35 34 34 35 37 36

GFSSW_sfc_temp_045.txt.gz
Temp
64 64 64 64 64 64 64 64 64 64 64 64 65 64 64 64 65 75 79 75 77 72 71 84 84 84 84 79 79 78 71 68 69 70 73 77 75 78 80 78 78 75 74 70 73
63 63 63 64 64 64 64 64 64 64 64 64 64 64 64 64 75 78 72 72 72 71 81 81 79 81 80 76 77 75 70 71 76 77 74 76 76 77 76 76 74 72 72 72 73
63 63 63 63 63 63 64 63 63 63 64 64 64 64 63 67 75 77 71 72 72 74 82 82 82 80 75 76 75 73 69 72 73 75 77 74 73 76 74 72 75 75 70 69 71
62 62 63 63 63 63 63 63 63 63 63 63 63 63 63 76 66 77 70 72 71 81 82 80 79 75 73 70 73 69 71 73 71 71 71 71 75 72 74 70 70 70 69 69 68
62 61 62 62 62 63 63 63 63 63 63 63 63 63 73 74 76 77 68 71 79 80 79 78 76 74 70 72 71 69 70 71 72 69 70 70 70 71 71 68 68 66 66 66 65
61 61 61 61 62 62 63 63 63 63 63 63 64 62 74 68 77 80 77 75 80 80 78 79 77 77 73 71 69 71 69 71 71 71 70 66 71 68 72 69 66 65 64 64 62
61 60 60 61 61 62 62 62 63 62 63 63 64 72 72 73 79 80 77 77 78 79 76 77 79 74 74 68 70 69 65 71 70 70 68 69 64 63 70 67 64 63 63 61 61
60 60 60 60 61 61 62 62 62 62 63 64 64 73 70 74 81 75 78 75 78 79 77 77 78 74 72 71 69 65 65 61 69 67 66 66 62 69 67 66 65 64 63 60 59
60 59 60 60 60 60 61 61 61 62 63 64 69 70 68 70 70 77 79 74 75 76 75 76 75 71 68 65 63 64 59 62 64 68 65 63 64 65 67 66 66 65 63 61 60
59 59 59 60 60 60 60 61 63 63 66 70 71 64 69 67 69 73 76 76 72 71 70 70 70 65 65 64 54 60 59 62 61 65 63 63 62 64 64 65 66 65 63 61 60
59 59 59 60 60 60 62 66 64 62 63 67 68 69 66 67 71 69 73 72 72 69 61 65 61 57 63 66 67 64 62 61 66 65 60 63 64 69 65 63 64 63 62 60 58
59 59 60 60 60 60 65 64 67 64 60 67 67 68 68 70 62 65 71 66 63 59 65 57 55 66 69 66 64 61 58 59 65 62 59 62 61 67 69 63 65 64 62 60 56
59 59 59 60 60 59 62 65 69 69 60 66 67 65 65 66 65 63 67 67 61 59 58 57 62 64 60 59 57 59 57 59 59 57 58 58 55 59 67 65 62 62 63 61 58
59 59 59 59 56 63 58 67 68 68 54 60 57 64 64 67 60 69 69 66 59 58 59 59 66 58 57 57 59 54 63 60 58 54 49 58 46 60 65 57 55 55 58 58 57
59 59 59 59 64 59 65 68 68 65 37 64 58 65 65 63 61 55 66 63 59 58 58 58 54 54 54 57 61 57 59 57 56 52 51 53 45 56 61 55 54 53 54 56 56
58 58 58 57 59 67 67 66 65 49 38 50 54 52 53 58 55 56 56 62 63 59 57 59 59 60 60 55 59 58 54 52 52 51 41 50 49 52 57 54 58 53 53 54 53
58 58 57 61 54 61 62 59 44 41 61 51 49 52 53 50 50 53 50 49 50 46 49 54 54 58 57 52 52 54 51 42 39 37 37 50 48 53 63 57 60 52 52 54 54
57 58 57 60 64 60 55 47 34 49 55 54 52 52 49 49 48 48 48 48 54 56 55 49 46 54 56 56 54 48 51 43 32 36 41 40 40 52 58 57 54 56 54 54 52
56 55 56 58 62 58 49 37 41 50 59 55 51 47 46 49 49 46 47 50 56 57 49 50 50 56 56 59 59 49 44 55 40 32 35 46 50 57 48 47 49 53 52 51 50
52 52 54 60 59 54 45 39 46 58 62 62 50 53 48 47 46 47 48 56 55 57 60 56 47 50 50 53 54 52 56 40 42 31 32 45 47 50 42 46 46 48 49 49 50
51 46 56 59 55 48 39 41 49 60 63 58 54 54 55 52 48 47 53 57 58 55 55 56 52 43 47 46 47 45 44 47 49 44 37 38 45 58 56 52 47 48 49 49 49
49 42 57 57 44 46 41 46 51 55 60 58 58 57 56 56 49 49 50 56 60 56 47 54 50 43 46 53 54 55 50 49 41 36 40 38 45 53 57 58 53 49 50 51 51
45 45 54 54 40 41 45 45 51 51 54 54 53 57 60 55 47 53 55 62 60 54 51 51 41 34 38 43 45 43 48 50 49 40 36 36 44 51 50 52 54 52 51 51 51
45 38 45 47 47 45 41 41 42 52 51 54 55 54 51 51 56 53 53 51 55 55 50 52 41 38 40 47 50 40 44 46 45 37 40 42 47 45 48 49 50 52 52 52 51
45 39 45 38 40 43 45 44 41 41 49 50 47 50 47 41 45 49 53 45 46 49 50 48 35 41 44 49 51 45 44 44 42 45 41 47 48 55 53 52 54 53 52 50 49
40 40 42 43 45 42 42 41 41 43 45 42 42 47 49 43 45 43 48 50 46 45 45 44 35 40 36 44 44 41 46 46 45 45 47 50 51 63 62 58 56 53 51 49 49
44 42 40 42 41 39 37 39 42 46 46 48 46 45 43 48 53 49 46 49 48 44 39 36 34 33 32 39 38 30 36 43 47 49 50 44 51 47 50 50 49 49 51 49 50

GFSSW_sfc_temp_048.txt.gz
Temp
64 64 64 64 64 64 64 64 64 64 64 64 65 64 64 64 65 71 76 72 74 72 70 80 80 78 79 73 72 68 57 55 58 60 63 69 66 67 67 67 66 66 61 62 65
64 64 64 64 64 64 64 64 64 64 64 64 64 64 64 64 71 76 70 72 72 71 78 76 75 75 71 69 69 62 56 60 67 66 65 68 66 68 63 67 62 62 64 66 66
63 63 63 64 64 64 64 64 63 63 64 64 64 64 63 64 70 72 71 72 72 72 79 79 78 75 67 68 65 63 58 65 66 68 69 68 62 67 62 61 62 63 61 63 63
63 63 63 63 63 63 64 63 63 63 64 63 63 63 63 72 62 73 70 72 71 75 78 75 74 67 63 62 68 58 65 67 66 65 65 63 66 62 63 57 64 62 64 63 61
62 62 62 62 62 63 63 63 63 63 63 63 63 63 70 70 72 75 68 70 76 76 75 73 70 67 62 65 64 61 64 66 66 63 63 65 61 62 60 61 62 62 63 60 58
61 61 61 61 62 62 63 63 63 63 63 63 64 62 70 64 75 79 75 73 78 76 73 73 71 71 66 64 60 64 64 65 66 65 64 60 61 61 62 61 60 61 59 57 57
61 60 60 61 61 62 62 62 62 62 62 63 64 69 69 69 78 77 76 73 74 75 71 73 73 67 67 61 66 63 57 62 63 64 60 62 56 57 63 61 59 59 56 56 56
61 60 60 60 61 61 61 62 62 62 62 64 64 68 64 73 75 74 77 73 75 75 73 72 72 68 64 63 63 57 56 50 61 63 59 57 50 62 60 59 57 57 54 55 55
60 60 60 60 60 60 61 61 61 62 63 64 66 65 62 69 69 75 76 71 72 72 70 75 69 63 61 55 52 55 47 52 54 62 58 55 52 58 60 59 57 55 55 55 53
60 60 60 60 60 60 60 61 63 62 64 69 70 60 66 64 67 71 72 73 68 66 65 64 61 55 55 52 43 49 48 54 52 57 57 52 52 56 58 58 57 56 55 54 54
60 60 60 60 60 60 60 61 59 57 61 61 63 64 66 65 68 66 70 68 68 63 54 59 52 48 55 58 59 57 53 51 56 58 54 53 54 59 58 56 55 56 54 53 53
60 60 60 60 60 60 60 60 60 60 54 63 64 66 68 67 59 63 68 61 59 53 58 51 47 58 62 61 57 55 51 50 56 57 52 52 53 59 58 56 58 58 54 53 49
59 59 59 59 60 58 59 62 67 66 54 61 65 63 63 64 61 58 63 61 56 53 54 50 56 61 59 55 53 53 50 50 51 52 51 47 45 52 58 60 59 58 57 55 50
59 59 59 59 55 60 57 65 67 64 48 55 59 62 63 63 56 65 66 62 57 54 55 53 60 55 54 53 54 48 56 55 52 46 39 48 35 48 54 56 56 54 52 51 50
58 58 58 59 61 55 63 65 65 59 32 58 57 65 63 59 58 54 61 58 53 54 55 51 51 50 50 52 56 50 53 50 48 44 40 43 39 46 55 54 52 50 50 50 49
58 58 58 57 58 63 65 62 59 44 33 51 52 51 52 56 53 54 54 58 58 54 54 53 53 53 54 52 53 54 49 46 44 42 31 43 42 42 50 53 53 51 50 50 49
57 57 56 60 54 62 63 55 37 31 55 49 46 51 51 49 49 51 48 46 47 42 43 49 49 51 54 47 50 50 44 32 29 28 29 41 39 46 52 51 55 52 50 50 49
56 56 57 59 60 59 56 45 30 41 47 54 52 50 46 49 47 47 45 43 49 50 47 42 39 49 51 52 47 44 46 33 25 27 30 34 32 43 46 48 50 53 51 50 48
55 55 55 57 59 57 49 35 36 44 52 51 50 44 44 47 46 45 44 46 50 51 45 46 45 51 52 53 53 43 39 50 36 25 25 35 41 50 44 43 44 47 48 48 47
51 51 52 60 58 53 45 38 39 51 55 54 45 49 42 44 42 42 43 50 50 54 56 51 42 47 45 50 49 45 49 35 35 22 22 33 36 41 39 41 42 45 46 48 48
50 46 54 60 56 48 39 40 45 56 57 51 50 50 50 46 44 41 45 50 55 52 56 52 45 38 43 41 42 41 39 42 43 35 26 26 36 48 51 47 43 47 48 48 47
48 41 56 58 45 45 41 45 50 52 57 55 56 53 53 54 47 45 44 51 57 55 48 51 46 33 38 46 47 48 44 44 37 32 35 31 40 47 48 49 48 47 49 49 48
43 45 54 54 40 41 45 46 49 49 51 51 51 54 56 53 47 48 50 56 56 53 48 50 39 31 34 38 43 40 44 48 47 37 37 30 37 45 45 45 46 46 46 47 46
43 38 44 46 46 42 41 41 42 49 49 53 51 54 50 49 55 46 48 49 53 54 51 52 40 38 38 40 41 35 40 44 43 35 34 39 41 39 42 42 44 45 46 46 46
42 40 44 38 39 42 42 41 40 40 46 48 47 49 47 41 45 46 48 44 47 48 49 48 38 39 43 46 44 38 38 41 40 43 37 42 43 50 51 45 47 49 46 46 45
39 39 42 41 45 42 41 39 37 41 44 42 41 46 49 43 44 42 47 49 44 44 43 43 36 39 37 39 41 39 40 39 41 43 45 45 44 52 55 51 46 47 46 45 45
45 43 40 38 39 39 40 41 39 43 45 48 46 44 44 48 53 53 49 49 46 41 39 37 35 32 32 36 37 32 37 40 42 45 44 38 47 47 49 47 45 44 46 45 46

GFSSW_sfc_temp_051.txt.gz
Temp
64 64 64 64 64 64 64 64 64 64 64 64 64 64 64 64 64 66 67 69 69 72 70 71 71 70 69 64 65 60 51 47 52 54 56 61 60 62 63 63 60 59 56 59 64
63 63 63 64 64 64 64 64 64 64 64 64 64 64 64 64 64 67 70 72 72 71 71 69 67 68 62 62 62 55 48 51 56 56 57 62 61 63 60 58 55 55 59 62 61
63 63 63 63 63 63 63 63 63 63 63 63 63 63 63 62 63 66 70 72 72 71 70 70 70 67 60 60 57 55 52 57 58 60 62 62 60 62 60 53 56 56 57 59 58
62 62 62 62 63 63 63 63 63 63 63 63 63 63 62 62 54 67 70 71 71 70 70 68 65 59 56 55 61 52 59 60 61 61 61 58 61 58 58 55 57 58 59 57 56
61 61 61 61 62 62 63 63 63 63 63 63 63 63 64 61 63 69 68 69 70 69 67 66 62 60 54 57 59 54 57 61 61 59 58 61 57 57 54 55 58 59 58 55 54
61 60 60 61 61 62 62 63 63 62 62 63 64 63 60 54 70 72 70 68 70 68 66 67 62 63 58 57 56 57 58 59 60 60 59 57 55 56 55 55 56 57 54 53 54
62 60 60 60 61 61 62 62 62 62 62 63 64 65 59 62 70 71 71 67 69 69 66 67 65 63 60 56 59 58 52 57 58 59 57 58 53 55 56 55 55 54 52 52 53
61 62 60 60 60 61 61 61 61 62 62 63 64 59 56 67 65 70 70 66 69 69 68 67 66 63 59 59 57 51 49 45 55 58 56 56 47 56 55 54 52 51 49 51 52
60 60 60 60 60 60 60 61 61 62 63 63 59 56 55 67 64 68 68 66 66 66 66 72 65 58 57 50 46 46 41 45 52 56 54 52 48 52 54 54 51 50 48 50 49
60 60 60 60 60 60 60 61 61 60 63 65 66 53 60 59 63 67 65 68 63 61 61 59 55 49 48 46 39 43 42 47 46 54 51 48 49 52 54 53 52 50 48 48 48
60 60 60 60 60 60 58 56 54 52 53 56 57 58 60 61 65 62 65 64 62 57 49 53 46 43 48 50 51 49 45 45 50 55 51 48 49 52 54 51 50 48 49 49 49
59 59 60 60 60 60 55 51 55 56 49 59 59 60 63 62 56 59 65 57 54 48 51 47 43 53 54 53 51 49 46 45 50 53 50 48 48 52 52 54 55 55 51 50 45
59 59 59 59 60 57 53 56 62 59 47 55 59 58 59 61 57 55 60 56 51 48 48 44 51 56 53 51 50 48 45 44 48 48 48 44 43 48 53 54 54 57 56 52 47
59 58 58 59 55 56 52 59 61 58 39 47 53 57 58 59 53 61 63 58 51 48 49 48 55 54 50 50 52 44 51 51 49 43 37 44 36 44 48 51 51 55 50 50 46
58 58 58 58 56 53 60 62 61 55 26 51 52 61 57 57 54 52 58 55 49 50 51 47 49 47 48 49 52 47 49 47 45 40 36 38 34 41 50 51 55 54 53 49 47
57 57 58 57 56 58 62 61 57 42 28 46 49 49 50 52 50 52 53 57 56 51 50 49 50 52 51 49 53 50 47 45 41 39 29 40 38 40 47 52 55 50 46 46 45
56 57 56 59 53 58 61 54 34 30 49 44 43 48 47 46 46 48 45 46 46 41 41 46 47 49 52 46 48 48 42 31 28 26 30 39 35 46 48 52 53 50 46 45 46
56 56 56 58 61 58 55 41 29 37 42 48 46 45 42 45 43 44 42 40 46 45 42 41 35 46 50 49 46 42 42 32 24 25 28 34 31 42 49 49 47 50 50 47 45
55 53 54 57 59 57 49 32 36 39 46 46 45 40 39 44 42 41 38 39 46 48 44 40 41 47 47 51 54 41 39 48 35 20 23 33 38 46 44 45 43 44 46 44 44
47 51 50 58 58 53 45 36 39 48 51 52 45 44 37 40 39 38 38 45 46 52 51 49 38 42 43 49 46 44 46 35 33 22 20 30 32 39 41 44 42 41 42 43 43
47 44 52 58 56 48 39 42 43 50 53 47 44 46 43 40 40 37 39 45 50 48 53 49 45 35 41 39 41 41 38 39 40 32 24 23 37 44 48 49 42 44 44 44 44
45 38 52 57 44 45 41 45 49 49 52 51 51 48 47 44 42 38 39 45 51 52 45 51 44 30 37 41 42 42 42 40 33 30 30 29 40 46 45 47 45 45 46 47 47
41 40 51 53 38 39 45 45 48 47 49 49 48 48 50 49 42 43 43 50 51 51 46 49 39 30 31 36 39 40 42 48 44 34 36 28 39 43 44 42 43 42 43 46 45
41 35 41 44 45 42 42 42 43 49 48 51 51 50 47 46 51 43 44 49 49 52 50 53 40 40 38 39 40 35 38 42 44 35 35 39 44 40 42 43 42 42 43 43 45
40 36 39 36 38 42 42 39 38 39 47 50 45 46 46 42 43 42 47 45 47 47 49 49 38 37 44 42 41 38 39 41 40 42 39 45 44 50 48 45 46 43 41 42 43
37 34 37 36 40 39 41 39 37 39 41 41 41 45 45 42 44 40 46 47 45 43 46 44 37 39 38 38 39 37 38 40 42 43 44 45 45 50 53 51 44 45 44 43 43
43 39 39 38 35 34 37 40 40 42 43 43 43 42 41 45 50 50 52 50 46 42 39 39 37 33 34 37 36 32 37 40 42 43 44 38 47 44 47 48 43 42 44 45 45

GFSSW_sfc_temp_054.txt.gz
Temp
64 64 64 64 64 64 64 64 64 64 64 64 64 64 64 64 65 64 64 68 68 72 69 69 68 67 66 63 62 56 49 45 47 51 54 57 57 59 59 59 55 56 55 57 62
63 63 63 64 63 63 63 63 63 63 63 64 64 64 64 63 63 64 70 71 72 71 68 65 63 65 60 59 59 53 46 51 54 53 54 59 59 61 58 55 52 52 56 59 60
62 62 63 63 63 63 63 63 63 63 63 63 63 63 63 61 61 64 70 72 72 70 67 67 65 64 57 57 54 52 50 55 55 57 59 59 56 59 57 52 55 55 56 56 55
62 62 62 62 62 63 63 63 62 62 63 63 63 63 62 61 52 65 70 71 71 68 67 65 63 57 54 53 58 51 56 57 59 58 58 58 58 56 57 57 57 58 56 54 53
61 61 61 61 62 62 62 63 63 62 62 63 63 63 62 58 62 67 68 68 67 67 65 63 59 57 53 54 56 52 54 58 58 59 56 58 55 56 54 51 54 56 56 53 52
61 60 60 60 61 62 62 62 62 62 62 63 63 63 59 53 67 69 67 66 67 65 63 63 60 61 57 55 53 55 55 56 58 57 57 56 53 54 53 52 53 55 52 51 51
62 61 60 60 61 61 61 62 62 62 62 63 64 62 56 60 67 67 68 65 66 65 63 63 64 61 58 54 57 55 51 54 55 56 55 56 51 53 54 52 52 52 50 50 51
61 61 61 60 60 60 61 61 61 61 62 63 63 57 55 65 63 66 66 65 67 67 65 64 64 62 58 57 56 49 47 43 52 54 54 55 46 55 53 51 50 49 46 49 50
60 60 60 61 60 60 60 60 60 61 62 63 57 54 54 66 62 66 64 64 63 64 64 70 63 55 55 49 44 44 39 42 49 54 52 51 47 52 50 51 49 47 46 48 48
60 60 60 60 60 60 60 61 60 60 62 63 63 52 58 57 61 64 63 65 60 59 59 58 52 47 45 45 38 40 40 43 44 51 48 46 48 50 50 50 51 47 46 46 47
60 60 60 60 60 60 57 54 53 52 52 55 55 55 57 59 62 60 64 62 60 56 48 50 46 42 47 48 48 46 42 42 46 53 49 47 48 52 52 48 47 47 47 47 48
59 60 60 60 60 60 54 50 54 54 48 57 56 57 60 61 54 57 63 56 53 47 49 46 42 51 52 50 49 46 43 42 47 51 48 47 46 50 50 50 53 53 50 50 45
59 59 59 59 59 57 52 54 58 57 46 52 55 55 57 59 56 55 60 54 50 47 47 43 50 53 52 47 46 45 42 41 45 45 45 42 40 46 51 51 52 56 57 54 50
59 58 58 58 55 56 53 59 59 56 39 45 50 55 56 58 52 59 61 56 49 47 47 46 52 51 47 46 48 41 49 48 46 41 36 41 34 42 46 49 50 55 52 54 49
58 58 58 59 56 53 59 61 60 57 27 49 50 59 55 56 52 51 56 54 47 48 48 46 46 47 46 47 51 45 48 46 43 38 35 37 33 40 43 45 50 55 52 51 47
57 57 58 56 56 56 59 60 57 41 28 44 48 47 48 50 48 50 52 54 53 49 47 46 49 50 50 49 52 49 45 42 38 36 29 40 37 39 44 49 52 56 54 49 46
56 56 56 59 53 58 60 52 34 30 46 42 42 46 46 44 44 46 45 45 45 40 41 44 46 48 50 46 46 47 44 30 28 25 30 36 34 47 48 51 52 56 51 45 45
56 55 55 58 59 58 54 41 28 36 39 45 44 43 41 45 43 43 41 42 47 44 41 40 37 46 49 49 45 43 42 31 23 24 28 33 30 40 48 53 50 48 46 43 42
55 50 52 56 58 57 48 34 36 37 43 44 45 40 37 41 42 41 39 40 46 47 44 39 38 43 45 47 52 40 37 44 35 18 23 32 37 45 45 46 46 46 41 39 41
45 45 49 57 58 53 44 39 40 46 49 50 43 43 35 40 40 38 37 42 44 49 48 46 37 39 41 47 43 43 46 35 31 21 19 30 31 39 40 44 47 45 40 40 40
45 42 50 57 56 48 39 41 43 47 50 48 45 43 43 39 40 37 38 43 47 45 52 47 42 34 40 39 40 38 37 37 38 31 24 21 35 42 47 47 47 47 43 40 40
45 37 50 55 43 44 41 45 48 46 50 49 49 49 43 44 41 39 38 44 49 49 43 48 44 29 35 39 39 39 39 38 30 28 29 28 39 45 46 48 47 47 44 42 43
39 40 49 52 36 37 45 44 47 45 48 48 46 48 48 45 40 41 41 47 50 50 44 48 39 27 31 35 37 37 41 46 41 34 33 29 40 42 42 43 45 46 41 41 40
40 34 39 42 44 41 39 40 41 47 46 49 49 49 45 44 49 41 40 47 49 50 49 53 41 37 36 37 39 34 37 41 44 36 35 39 44 42 43 45 46 44 41 40 41
39 35 37 34 36 38 40 40 40 40 46 47 43 45 44 40 44 42 45 43 45 47 49 49 37 39 44 44 41 39 38 41 39 43 39 45 44 52 49 48 50 46 40 39 40
34 34 37 36 38 39 39 38 37 39 39 39 41 45 45 42 44 41 45 45 43 43 43 45 38 41 38 43 38 36 37 41 42 44 45 46 46 52 52 46 45 46 42 41 42
38 42 36 34 33 32 35 38 39 42 43 43 43 41 39 43 47 49 50 48 47 46 42 41 39 34 33 40 34 31 39 37 40 45 44 39 47 48 49 48 46 44 43 44 44

GFSSW_sfc_temp_057.txt.gz
Temp
63 63 64 64 64 64 64 64 64 63 64 64 64 64 63 64 64 62 62 66 66 71 68 67 67 65 64 60 59 53 48 44 48 49 52 57 55 57 54 56 51 53 53 56 59
63 63 63 63 63 63 63 63 63 63 63 63 64 64 64 63 60 62 69 71 72 71 66 63 61 63 59 57 56 51 45 49 54 52 52 56 55 59 56 52 49 50 53 56 57
62 62 62 63 63 63 63 63 62 63 63 63 63 63 63 60 60 62 70 72 72 70 65 64 63 61 55 55 52 49 49 53 53 55 56 57 54 56 55 50 55 55 55 55 54
62 61 62 62 62 63 63 62 62 62 63 63 63 63 62 59 50 63 70 71 71 65 65 63 60 55 52 51 55 49 53 55 56 56 56 56 57 54 55 55 54 58 56 53 53
61 61 61 61 61 62 62 62 62 62 62 63 63 63 61 57 59 65 68 68 65 65 62 61 57 55 51 52 53 50 51 55 55 55 53 56 54 54 55 51 51 54 55 53 52
61 60 60 60 61 61 62 62 62 62 62 63 63 63 57 51 65 66 65 64 65 63 61 61 59 59 56 52 51 52 53 53 54 54 54 53 51 52 52 50 51 53 52 51 51
61 61 60 60 60 61 61 61 62 62 62 63 63 61 54 60 63 64 65 63 64 63 61 61 61 58 56 53 55 53 50 52 53 54 53 54 50 52 52 50 51 51 49 50 50
60 60 60 60 60 60 61 61 61 61 62 63 63 56 54 63 62 64 64 63 65 65 63 62 62 60 56 55 54 48 46 42 50 51 51 53 45 54 52 50 49 48 46 48 49
60 60 60 60 60 60 60 60 60 61 62 63 55 52 54 65 60 63 62 62 61 62 62 68 61 53 53 47 43 43 38 39 47 52 49 49 46 50 47 48 49 47 46 47 47
60 59 60 60 60 60 60 61 60 59 61 62 62 51 56 56 59 61 60 63 59 58 58 57 50 46 44 43 37 39 37 40 42 48 46 44 46 51 48 47 50 46 45 46 47
60 60 60 60 60 60 57 53 53 51 50 54 53 53 55 57 61 58 61 60 58 56 48 48 45 42 47 46 45 44 40 40 45 50 46 46 47 52 51 46 45 46 47 48 49
59 59 59 59 60 60 54 49 52 52 47 55 54 55 58 58 53 56 62 55 51 46 47 44 41 50 50 48 46 42 40 40 45 48 47 45 45 48 48 49 51 51 51 50 50
58 59 59 59 59 57 54 54 57 55 46 51 53 53 56 58 54 54 59 53 48 44 45 43 48 50 50 45 44 42 40 39 43 43 43 40 40 44 51 50 50 53 56 55 54
58 58 58 58 55 55 53 59 60 57 39 44 49 53 55 57 50 58 59 55 47 46 45 44 49 49 45 44 47 40 46 45 43 40 34 40 35 41 45 48 48 53 53 54 54
57 57 58 58 56 52 58 59 59 57 31 48 48 58 53 54 51 49 54 53 46 46 47 45 45 45 43 45 48 43 46 43 40 36 34 35 33 37 41 44 49 55 54 55 54
56 57 57 56 55 57 59 59 55 37 27 42 46 46 46 47 46 49 51 54 51 47 45 45 47 49 49 47 49 48 44 40 35 35 28 41 36 43 41 49 50 55 56 51 48
56 56 55 58 53 58 58 52 35 30 44 41 40 45 43 42 42 44 44 44 44 38 39 41 44 46 49 45 45 45 42 31 27 25 30 32 32 47 46 50 51 55 54 47 44
55 55 53 56 58 58 53 42 29 37 37 44 41 41 41 44 42 41 40 40 45 41 38 39 37 45 48 51 44 42 42 31 23 23 28 32 29 39 46 51 49 49 48 43 41
55 48 50 53 57 56 47 34 36 36 42 42 43 39 37 39 40 39 37 38 44 46 43 37 37 42 44 47 52 39 36 45 36 18 23 35 37 44 45 45 46 47 43 40 42
47 44 45 55 56 52 43 38 41 45 47 47 41 43 37 37 40 36 36 41 42 48 46 44 35 38 40 46 42 42 45 34 30 22 18 30 31 38 43 45 47 47 45 41 40
47 41 47 54 54 45 37 39 44 46 51 47 44 41 41 38 42 35 37 41 44 43 51 45 40 33 38 38 38 38 36 35 37 31 23 20 34 41 48 47 49 48 47 44 41
44 36 48 54 40 42 38 44 46 47 51 49 48 48 42 42 40 39 37 42 47 47 42 46 42 29 34 37 39 39 39 40 31 26 28 27 39 44 45 46 47 49 48 41 40
38 39 50 49 34 36 41 44 47 46 47 47 46 47 46 45 39 41 39 46 48 48 43 47 38 26 32 33 36 35 38 44 38 32 30 28 39 41 41 42 45 46 42 41 39
34 30 37 42 42 39 38 39 40 47 46 47 47 48 45 44 48 39 39 44 48 50 48 51 39 34 34 34 37 33 36 39 43 35 36 38 43 43 43 44 46 47 43 40 39
37 33 34 32 34 36 38 40 38 38 45 46 42 43 44 40 43 42 41 41 43 47 47 46 33 38 42 40 38 36 36 39 39 43 37 44 43 51 52 47 51 48 44 40 39
32 29 34 32 35 35 37 35 35 38 42 41 40 43 43 38 41 40 45 46 45 43 44 44 34 36 35 39 38 36 36 39 41 44 44 45 45 52 47 46 44 49 46 42 41
39 38 34 35 32 31 34 35 37 40 41 42 42 41 39 41 44 46 46 45 45 45 39 39 36 34 32 38 36 32 38 41 42 45 45 39 48 48 51 48 49 48 45 44 45

GFSSW_sfc_temp_060.txt.gz
Temp
63 63 63 63 63 63 63 63 63 63 63 64 64 64 63 64 65 62 60 65 65 71 68 65 64 63 61 58 57 52 47 43 46 47 50 53 53 52 52 54 50 53 51 53 56
62 62 63 63 63 63 63 63 63 63 63 63 63 64 64 63 60 60 68 71 72 70 64 62 59 61 57 55 54 50 45 48 51 49 50 53 53 56 52 50 51 50 51 52 55
62 62 62 62 62 63 63 62 62 63 63 63 63 63 63 59 59 60 71 72 71 69 63 62 61 59 53 53 50 47 48 51 52 53 54 54 51 55 53 49 55 55 54 52 52
61 61 61 61 62 62 62 62 62 62 63 63 63 63 62 59 49 62 70 71 70 64 63 61 59 53 49 49 52 47 51 53 54 54 53 53 55 53 53 55 52 56 54 51 52
61 60 60 61 61 62 62 62 62 62 62 63 63 63 60 55 58 64 68 68 64 63 61 59 55 53 51 50 51 48 49 52 53 53 51 54 51 54 53 55 51 52 53 52 51
61 60 60 60 61 61 61 62 62 62 62 62 63 62 56 50 63 64 63 63 63 61 59 59 57 57 54 50 49 50 51 51 52 52 52 51 49 50 53 49 49 51 52 51 51
61 60 60 60 60 61 61 61 61 61 62 63 63 60 53 59 61 62 64 61 62 61 59 59 59 57 54 51 52 51 47 50 50 51 51 52 49 52 51 48 51 50 49 49 50
60 60 60 60 60 60 60 61 61 61 62 63 63 55 54 61 60 62 62 61 62 63 62 60 60 58 54 53 52 46 44 41 47 49 49 52 43 53 50 50 51 48 47 48 49
60 59 60 60 60 60 60 60 60 61 62 62 54 51 53 63 58 61 60 60 60 60 61 65 59 51 52 46 42 41 37 37 46 50 47 47 44 49 45 47 49 47 47 47 47
59 59 60 60 60 60 60 60 60 59 60 61 61 50 54 54 57 59 58 61 58 56 57 56 49 45 42 42 37 38 36 37 39 45 44 43 45 50 49 46 48 47 46 46 47
59 59 60 60 60 60 56 53 53 51 50 53 52 52 53 55 59 56 59 59 56 54 46 46 44 41 46 44 43 42 38 38 42 47 44 44 44 49 51 44 46 46 46 48 49
59 59 59 60 60 60 55 51 50 51 46 54 52 54 56 57 51 54 60 53 50 45 45 43 40 48 49 46 44 41 38 38 43 45 45 44 44 49 48 48 49 52 51 50 51
57 58 59 59 59 57 54 55 57 54 44 50 52 52 55 57 53 53 58 51 46 42 43 41 46 48 48 43 43 40 39 38 42 42 41 38 38 41 48 48 50 50 54 53 54
57 57 58 58 55 55 53 59 59 58 42 43 48 53 54 55 50 56 58 54 45 45 42 42 47 47 42 42 46 38 45 43 40 38 33 37 32 40 46 48 47 52 50 53 54
56 57 58 59 55 52 57 57 58 55 31 47 46 56 51 52 50 48 52 51 45 45 46 44 43 43 42 44 46 43 44 42 39 35 32 31 33 37 38 44 51 53 53 53 54
56 56 57 56 55 56 57 58 55 37 28 40 45 45 45 47 45 48 49 52 49 45 42 43 44 47 47 45 47 46 42 39 34 34 29 35 36 40 39 47 49 56 53 52 49
55 55 54 56 52 57 56 51 36 31 42 40 40 43 42 41 41 43 43 42 43 38 37 39 42 43 47 43 43 43 41 31 28 23 29 30 31 45 45 47 50 54 54 46 46
55 55 52 54 57 57 52 42 30 37 37 42 40 41 39 42 40 40 39 38 44 39 36 38 37 43 47 49 43 41 42 31 22 22 28 31 29 38 46 50 50 49 50 43 44
54 46 47 50 54 55 46 34 35 36 41 41 41 36 35 39 40 37 36 36 42 43 41 34 35 40 42 44 52 39 37 43 36 16 22 35 36 44 45 45 44 47 43 43 43
47 44 43 53 53 50 42 36 41 45 44 45 39 41 33 36 39 36 35 40 41 46 45 42 35 36 38 44 41 41 43 33 30 22 17 30 31 36 44 47 47 48 46 44 42
47 40 46 52 52 44 34 38 41 47 49 46 41 42 41 37 40 35 38 41 43 43 50 44 40 33 36 36 36 38 36 34 35 30 23 20 37 40 47 48 48 48 47 45 43
44 33 46 51 39 40 36 40 46 46 50 47 47 46 43 41 39 38 37 42 46 46 42 44 40 31 34 36 37 36 38 38 31 26 26 27 39 43 44 44 45 48 46 41 41
38 38 46 47 33 35 38 40 44 43 44 43 45 46 47 43 39 42 39 44 47 48 43 45 37 23 31 33 34 34 37 42 36 32 29 27 39 41 41 43 43 45 43 44 40
34 26 33 38 37 37 36 36 37 44 43 46 45 45 43 43 47 39 40 43 47 49 49 49 38 34 34 34 36 32 35 38 42 33 36 34 44 46 41 45 45 46 44 43 41
37 30 33 26 32 33 36 35 35 36 42 44 43 44 43 38 40 41 41 40 41 46 46 46 33 36 39 40 36 36 35 38 39 42 35 43 42 50 52 48 51 50 45 44 42
34 32 33 30 34 33 35 33 33 35 40 39 39 43 43 39 41 40 44 43 43 41 45 44 33 35 33 37 38 36 37 38 40 43 44 45 44 53 50 48 43 49 52 47 43
39 39 35 33 31 28 31 33 35 38 41 40 38 38 39 42 45 45 44 42 40 40 40 39 36 33 32 36 34 30 35 39 39 43 44 38 47 52 50 46 52 49 46 46 46

GFSSW_sfc_temp_063.txt.gz
Temp
63 63 63 63 63 63 63 63 63 63 63 64 64 64 64 64 65 61 61 66 66 71 68 64 67 64 64 60 60 57 51 47 50 50 55 55 58 58 59 58 58 59 60 61 59
62 62 63 63 63 63 63 63 63 63 63 63 63 64 64 63 61 61 68 71 71 71 64 63 61 62 59 58 57 54 49 52 54 53 55 57 58 58 59 57 58 58 59 58 58
62 62 62 62 62 63 63 62 62 63 63 63 63 63 63 59 60 60 71 71 71 69 64 63 64 62 56 56 53 51 51 53 55 56 57 57 55 58 57 54 60 60 59 55 56
61 61 61 61 62 62 62 62 62 62 63 63 63 63 62 58 50 62 70 71 70 64 64 63 61 56 52 52 54 51 52 54 56 56 55 55 57 56 56 61 59 61 60 55 55
61 60 60 61 61 62 62 62 62 62 62 63 63 63 60 55 58 64 68 68 64 63 61 61 57 56 52 53 53 51 53 54 54 54 53 56 55 57 55 59 57 57 55 55 56
61 60 60 60 61 61 61 62 62 62 62 62 63 63 56 50 62 65 63 63 63 62 59 60 59 58 55 51 52 52 52 52 53 54 54 53 52 53 57 55 56 55 56 54 55
60 60 60 60 60 61 61 61 61 61 62 62 63 60 54 59 61 62 64 61 61 61 60 59 61 59 56 52 53 52 49 52 51 52 53 53 52 53 56 53 55 55 54 53 53
60 60 60 60 60 60 60 61 61 61 62 62 63 55 54 60 60 62 62 61 61 62 62 59 61 58 55 54 52 47 47 44 50 51 51 53 46 55 53 53 56 54 52 51 53
60 59 60 60 60 60 60 60 60 61 62 63 53 50 53 63 57 60 60 61 59 60 61 64 58 52 52 47 43 43 41 40 47 50 49 49 47 53 50 50 52 52 52 51 51
59 59 60 60 60 60 60 61 60 59 60 61 60 49 53 54 57 58 58 61 58 56 57 56 49 46 43 44 39 41 39 39 42 47 45 45 47 51 52 50 52 52 51 51 52
59 59 60 60 60 60 57 54 52 50 50 53 51 49 52 55 57 55 58 58 56 54 47 46 45 42 46 44 44 43 40 40 43 48 46 45 45 50 52 49 49 51 52 53 53
58 59 59 59 60 60 55 52 51 52 45 53 51 52 55 55 50 53 59 53 50 45 45 43 40 48 48 46 45 42 39 41 44 45 46 45 45 51 50 54 56 57 56 55 57
57 57 59 59 59 57 54 54 57 55 45 49 51 51 54 57 52 52 57 51 46 42 43 41 46 47 47 42 42 40 39 39 43 43 42 40 39 42 49 51 54 53 57 56 57
57 57 57 58 55 56 53 59 58 59 42 44 48 52 52 55 49 55 56 52 44 45 41 42 46 46 43 41 45 38 44 43 41 40 35 39 33 41 46 50 48 52 53 55 57
56 56 57 59 55 53 53 56 57 55 29 45 46 55 51 50 49 47 51 50 44 44 45 44 42 42 41 44 46 42 42 41 39 36 35 34 34 41 41 45 50 56 55 55 54
56 56 56 56 55 56 57 57 55 38 28 40 46 44 44 46 45 46 48 52 48 45 42 42 43 46 46 44 46 44 41 39 35 35 29 36 38 45 41 47 50 53 56 55 51
55 55 53 55 52 56 57 51 37 31 41 38 39 42 42 40 41 42 42 42 41 37 37 39 41 43 46 42 43 42 40 31 28 24 30 31 34 49 46 48 51 56 59 51 50
55 54 51 52 55 56 53 43 29 37 36 41 40 40 39 41 39 39 38 38 43 38 35 37 35 42 46 47 42 39 41 32 23 23 29 31 30 40 47 49 49 51 51 47 48
54 45 46 49 51 54 47 34 33 35 40 40 39 35 35 38 38 37 36 35 42 43 40 34 35 40 41 43 50 39 36 44 36 16 24 34 37 44 44 46 47 48 45 45 47
45 43 43 51 51 48 42 37 40 44 44 43 39 41 33 35 36 36 35 39 41 44 44 41 35 37 39 43 41 42 44 35 31 22 18 31 33 41 44 48 50 48 49 47 46
43 37 44 49 49 42 34 37 41 46 48 45 41 42 40 36 37 33 37 40 42 41 50 43 39 33 37 36 37 38 36 35 36 31 24 21 36 42 48 49 48 49 49 48 46
39 30 45 49 37 39 34 38 44 43 46 46 45 44 42 40 39 36 36 43 45 45 41 44 40 32 34 36 36 35 37 37 31 26 26 27 40 44 46 47 44 46 47 46 45
34 38 45 44 29 32 35 37 40 39 41 44 42 44 45 43 38 38 38 43 46 46 42 44 37 23 31 32 33 33 36 41 36 32 29 28 40 41 42 44 45 46 45 46 45
36 26 32 37 38 34 32 33 34 41 41 43 43 44 41 38 44 38 37 42 45 47 48 49 38 34 33 34 35 32 33 37 41 29 36 33 43 49 44 47 47 48 47 46 45
37 29 32 25 30 32 36 36 34 34 41 41 38 40 39 36 39 38 40 41 42 45 45 46 36 35 40 39 37 37 35 38 39 42 36 43 42 49 51 49 53 54 48 47 47
34 32 33 29 32 33 33 32 31 35 36 36 36 40 40 37 39 38 42 42 43 41 42 43 35 36 34 38 39 36 37 36 39 42 43 44 43 56 56 50 47 50 55 54 49
39 39 36 32 29 28 30 32 33 35 37 40 38 35 33 37 41 42 42 42 40 37 34 36 36 33 31 37 36 30 36 37 40 42 43 37 46 52 50 48 50 48 48 49 48

GFSSW_sfc_temp_066.txt.gz
Temp
63 63 63 63 63 63 64 64 64 63 64 64 64 64 64 64 64 70 73 75 75 71 69 79 80 78 78 73 73 72 71 66 66 64 70 69 70 70 71 72 70 72 73 72 76
62 62 63 63 63 63 63 63 63 63 63 64 64 64 64 63 71 72 72 72 72 71 77 78 76 76 76 71 72 74 69 68 71 72 70 70 72 73 71 70 70 70 71 69 70
62 62 62 62 62 63 63 63 62 63 63 63 63 63 63 66 71 72 71 72 72 73 77 78 77 76 71 72 69 67 69 68 69 70 70 70 68 72 71 68 76 75 76 70 70
62 61 61 61 62 62 62 62 62 62 63 63 63 63 63 70 63 72 70 71 71 76 77 75 75 72 69 68 68 67 65 67 67 67 66 67 70 68 71 78 75 79 78 72 69
61 61 61 61 61 62 62 62 62 62 62 63 63 63 69 70 70 73 68 71 75 75 75 74 72 70 68 68 67 67 66 66 66 65 67 66 68 69 68 77 72 70 69 72 73
61 60 60 60 61 61 62 62 62 62 62 63 63 62 71 65 71 73 72 72 74 75 73 74 73 73 68 66 67 66 65 66 66 67 66 64 67 65 73 74 72 70 72 73 72
61 60 60 60 61 61 61 61 62 62 62 63 63 66 68 69 72 73 73 72 72 74 72 72 74 72 70 64 65 64 63 65 66 65 65 65 62 63 75 67 69 70 73 72 72
60 60 60 60 60 60 61 61 61 61 62 63 63 68 66 70 73 72 73 72 73 74 73 71 74 69 67 66 65 62 63 60 63 62 64 64 62 71 67 68 70 74 74 72 72
60 60 60 60 60 60 60 60 60 61 62 64 66 66 64 69 67 70 73 71 70 71 71 71 71 65 65 64 61 59 59 56 60 62 61 61 62 69 64 64 68 72 73 73 72
60 59 60 60 60 60 60 61 61 62 64 66 66 63 65 62 65 67 71 70 68 68 69 68 66 64 62 62 55 57 55 54 57 60 58 59 59 68 71 64 68 72 74 72 71
60 60 60 60 60 61 61 61 63 60 62 62 61 61 61 64 67 65 68 68 69 67 61 59 61 58 64 63 60 59 56 56 61 59 57 60 61 66 70 69 68 70 71 73 73
58 59 59 60 60 60 61 60 57 59 55 59 58 59 61 65 60 62 68 65 63 59 58 58 56 64 59 58 57 56 56 57 60 55 56 59 58 65 67 67 71 73 74 75 76
57 57 59 59 59 61 60 59 64 61 54 56 58 58 60 63 60 61 65 62 59 54 56 58 60 59 57 53 53 55 54 56 55 54 55 53 55 61 66 65 67 69 72 74 75
57 57 57 59 56 59 56 60 62 61 49 51 53 57 58 62 57 61 66 63 56 57 55 57 58 54 53 53 56 52 57 55 52 52 50 53 49 61 66 65 63 67 72 73 73
56 56 57 58 56 55 57 59 60 58 32 52 51 61 56 58 56 55 61 60 55 54 55 55 50 51 51 54 56 54 53 53 51 51 47 53 46 58 55 59 64 68 70 73 74
55 56 56 56 56 57 59 61 58 42 31 47 51 50 51 53 52 54 56 61 59 53 52 52 53 55 56 51 56 52 52 49 49 49 42 54 49 56 63 62 65 68 71 72 72
55 55 55 56 52 59 58 53 38 33 48 45 45 47 49 47 49 51 50 50 50 46 47 48 50 52 53 49 51 53 52 44 40 37 40 46 45 55 62 62 63 68 72 69 67
55 54 54 56 56 57 53 44 32 41 45 47 46 46 45 47 47 46 47 47 52 50 47 46 43 50 54 56 51 48 53 45 34 37 46 38 40 55 61 63 63 65 66 66 62
54 51 52 56 56 56 47 34 36 44 47 46 45 44 44 45 47 46 48 50 52 52 47 45 45 49 49 55 58 47 43 55 45 31 37 49 55 61 57 59 61 60 65 65 65
49 49 48 56 57 53 42 37 43 49 49 48 38 46 42 43 43 43 44 51 51 52 59 52 43 46 47 52 51 51 56 43 44 33 33 45 47 52 57 62 63 62 63 64 64
47 42 51 54 56 47 36 39 46 51 52 45 45 43 45 44 45 42 46 49 51 49 54 54 47 43 46 46 49 48 47 45 48 43 38 38 49 64 62 64 62 63 61 61 61
45 36 50 54 40 42 39 44 47 48 52 49 46 44 45 46 44 43 44 49 52 51 45 50 44 40 46 49 49 49 51 51 42 36 40 40 45 58 60 59 57 58 58 60 58
40 42 49 47 34 36 42 43 46 45 47 46 46 48 49 43 37 47 48 51 52 52 48 50 41 32 38 42 43 43 48 49 51 41 37 37 46 55 55 58 58 58 60 60 58
40 33 40 40 44 40 39 38 38 46 45 47 45 48 44 39 42 39 39 45 47 48 46 48 39 37 37 45 47 39 44 46 47 38 40 43 49 58 58 59 60 62 62 61 61
38 36 41 32 34 37 40 40 37 37 45 46 43 43 42 38 41 40 41 41 46 48 47 45 33 38 41 46 46 45 45 45 42 46 42 47 49 56 60 61 64 66 67 65 65
34 34 36 36 39 36 35 37 35 39 40 39 39 43 43 38 41 38 40 43 43 46 44 48 34 40 36 44 44 41 45 45 44 46 46 49 49 61 63 65 63 62 63 63 65
40 39 37 37 36 35 35 37 37 40 41 43 42 38 35 39 43 44 43 42 40 36 35 34 33 33 31 40 38 31 37 43 46 49 49 43 51 58 57 58 58 60 60 60 62

GFSSW_sfc_temp_069.txt.gz
Temp
63 63 63 63 63 63 63 63 63 63 64 64 64 64 64 64 64 72 76 76 77 72 70 83 83 83 84 79 80 80 71 68 71 70 74 77 75 77 80 78 76 78 78 77 84
63 63 63 63 63 63 63 63 63 63 63 63 64 64 64 64 74 76 72 73 72 72 80 80 79 81 80 78 78 76 70 72 78 79 75 76 77 78 74 75 75 76 78 75 78
62 62 62 62 63 63 63 63 62 63 63 63 63 63 63 67 74 75 71 72 72 74 82 83 83 81 76 78 76 76 70 77 76 76 76 76 74 78 74 73 78 78 80 74 74
62 62 62 62 62 62 62 62 62 63 63 63 63 63 63 74 64 75 70 71 71 79 81 80 80 75 73 71 76 70 74 74 72 71 71 72 76 73 74 79 81 84 85 78 74
61 61 61 61 61 62 62 62 62 62 62 63 63 63 71 72 73 77 69 73 78 78 78 78 76 76 71 74 72 70 72 71 71 69 71 70 71 73 75 81 82 78 77 79 77
60 60 60 60 61 61 61 62 62 62 62 63 63 62 73 67 75 78 76 75 79 79 78 78 77 79 74 73 71 72 71 72 71 71 70 67 72 69 77 81 81 79 76 78 79
60 60 60 60 60 61 61 61 61 62 62 63 63 71 71 70 76 78 76 76 77 79 75 77 79 75 75 68 71 70 66 70 71 71 69 69 66 68 78 77 75 77 78 79 80
60 60 60 60 60 61 61 61 61 61 61 63 63 72 69 73 78 75 78 75 78 79 77 76 79 74 72 72 70 67 67 63 70 68 67 67 63 77 76 78 74 77 80 79 79
60 60 60 60 60 60 60 61 60 61 62 64 69 71 68 71 71 74 76 74 74 76 75 77 76 71 69 67 64 65 61 63 66 68 67 65 65 75 73 72 72 77 79 80 80
59 59 60 60 60 60 60 61 61 63 66 70 71 65 68 66 68 71 75 75 72 72 72 72 71 67 68 65 55 61 60 63 62 64 62 63 63 71 76 75 73 76 79 80 79
59 60 60 60 60 61 64 68 66 63 66 66 64 64 65 68 69 68 71 72 73 71 63 66 63 59 65 68 68 64 62 61 67 64 61 63 65 70 75 76 75 77 77 78 80
57 58 60 60 60 60 65 64 61 62 59 66 64 63 66 69 63 66 72 67 65 61 65 60 57 67 67 65 62 62 59 61 66 63 58 63 62 69 72 73 75 76 77 79 81
56 57 58 59 60 62 66 63 68 65 57 60 63 63 64 66 64 65 69 68 63 61 59 59 63 66 61 59 58 60 59 60 60 60 61 58 58 65 73 74 74 76 78 79 80
56 56 57 58 57 64 60 67 67 67 53 55 55 61 62 66 60 66 71 67 61 60 61 61 67 60 58 58 60 55 66 61 59 55 53 60 51 64 70 71 74 74 75 78 80
56 56 56 57 57 57 60 61 63 63 34 58 53 63 60 61 60 57 66 64 61 59 60 59 56 56 55 59 62 58 59 58 57 54 53 55 49 60 69 66 71 75 76 78 79
55 55 56 56 56 57 59 59 57 41 32 48 54 53 53 56 55 56 59 64 63 60 58 59 58 61 61 56 60 59 56 55 55 54 44 55 55 58 64 69 73 75 77 78 79
55 55 57 57 53 60 57 55 37 32 53 47 48 51 53 51 53 55 52 52 53 47 49 55 54 57 57 53 55 57 54 45 43 41 42 55 51 59 66 70 70 73 73 77 73
55 54 57 58 57 59 54 43 32 44 49 51 50 50 47 52 52 52 52 51 57 57 53 48 45 53 56 57 54 51 55 46 35 40 46 44 43 58 69 72 70 70 71 71 70
54 56 55 60 57 55 48 34 37 47 53 49 49 47 47 49 51 50 51 52 57 58 49 51 50 57 57 60 61 51 46 58 46 39 39 49 57 66 65 64 67 70 71 70 71
53 52 52 59 60 52 43 38 45 52 52 52 45 50 47 48 47 48 50 56 54 58 59 56 46 53 51 55 56 54 59 44 46 34 33 45 49 53 61 65 69 67 68 70 69
50 45 54 59 58 47 37 41 47 52 53 49 47 43 46 46 49 47 49 53 57 54 58 56 50 45 49 48 51 49 47 49 51 47 38 38 48 66 65 65 65 66 66 65 64
48 38 53 57 43 46 41 47 50 51 55 51 52 51 49 48 45 46 48 52 57 55 48 54 50 42 48 57 57 57 53 52 43 40 45 43 45 66 65 63 63 64 66 65 63
42 44 52 52 37 40 45 46 50 48 50 49 48 51 53 47 41 48 51 55 55 54 43 47 43 33 39 48 48 46 52 52 53 47 38 36 44 64 65 64 65 62 65 67 64
43 35 41 41 48 44 42 41 42 50 49 52 50 52 48 45 50 44 45 48 49 50 45 47 37 37 38 46 51 43 47 51 48 38 41 42 48 57 61 64 66 64 67 70 68
40 39 46 33 35 39 45 45 41 40 47 49 45 47 46 40 42 39 41 43 48 48 48 45 33 37 41 45 47 46 46 48 45 47 40 46 48 55 60 63 66 69 69 68 68
34 36 43 42 44 38 39 39 39 43 44 42 41 46 46 42 45 42 46 47 45 44 47 44 34 38 33 42 43 38 44 45 47 47 47 50 50 62 64 66 65 66 67 66 66
42 40 40 40 40 38 36 39 41 44 47 48 47 44 42 45 49 49 45 43 41 37 35 34 33 32 30 39 34 30 37 44 46 50 50 44 53 60 59 59 60 62 64 63 64

GFSSW_sfc_temp_072.txt.gz
Temp
63 64 64 63 63 63 63 63 63 63 64 64 64 64 64 64 64 70 73 72 74 72 70 78 78 77 76 72 72 70 58 55 60 61 62 69 65 66 67 67 64 68 65 67 74
63 63 63 63 63 63 63 63 63 63 63 63 64 64 64 63 71 73 70 72 72 72 76 75 73 75 69 69 69 62 56 61 68 68 65 67 66 66 62 64 64 65 66 68 71
63 63 63 63 63 63 63 63 63 63 63 63 63 63 63 65 70 70 71 72 72 72 77 79 78 75 67 68 66 65 58 65 68 67 69 67 64 67 63 60 67 67 65 67 67
62 62 62 62 62 62 62 62 62 62 63 63 63 63 63 70 58 72 70 71 71 74 76 75 73 65 62 62 70 59 68 67 66 65 65 62 68 64 65 63 69 68 71 66 65
61 61 61 61 61 62 62 62 62 62 62 63 63 63 67 66 68 74 69 70 75 74 73 72 69 67 61 66 65 59 64 66 66 63 62 65 62 63 64 69 71 70 71 66 66
60 60 60 61 61 61 61 62 62 62 62 63 63 62 67 61 73 77 73 71 76 74 72 71 69 71 65 65 61 64 65 63 65 64 64 60 61 60 65 69 69 68 67 67 67
60 60 60 60 61 61 61 61 62 62 62 63 63 68 66 65 74 75 74 71 72 73 70 71 72 66 67 61 65 63 57 61 63 63 60 60 56 59 66 67 67 67 66 68 68
60 60 60 60 60 61 61 61 61 61 62 63 63 66 62 71 74 73 75 71 73 74 72 70 71 67 63 65 62 57 55 49 60 62 59 56 49 64 63 65 64 65 64 67 68
60 59 60 60 60 60 60 61 60 61 62 63 65 64 61 68 68 72 73 70 70 71 69 75 69 63 61 55 51 54 46 51 54 62 58 55 51 61 62 60 60 61 65 67 67
59 59 60 60 60 60 60 61 62 61 63 70 70 59 63 63 66 69 70 71 67 66 65 64 62 55 55 52 43 48 47 53 50 56 53 52 52 60 64 63 61 62 64 65 67
58 59 60 60 60 61 62 64 60 57 62 61 61 61 64 65 67 66 69 67 68 63 55 58 52 48 55 58 59 54 52 51 55 57 52 52 54 59 64 63 61 62 63 64 66
57 58 60 60 60 61 61 61 58 58 55 65 63 62 65 66 60 63 67 61 59 53 58 52 47 59 62 58 56 52 50 49 56 56 51 52 52 58 61 63 64 63 63 65 66
56 56 57 59 60 61 64 62 66 64 54 58 62 62 62 63 61 59 64 61 56 54 54 50 56 62 59 54 53 51 49 50 51 52 51 46 45 52 60 64 65 65 67 66 67
55 55 56 58 56 63 59 67 67 65 48 52 53 59 61 62 56 65 66 61 56 53 55 53 59 57 52 52 54 47 55 55 52 46 39 48 35 49 58 59 61 62 61 62 64
55 56 55 56 55 56 58 61 62 58 31 54 52 62 59 58 56 55 62 59 54 54 55 50 51 51 50 53 56 50 53 51 48 43 40 42 37 45 54 54 59 63 63 64 65
55 55 55 55 56 56 57 59 57 40 31 47 52 50 50 53 52 54 55 59 57 54 52 50 53 53 53 52 53 55 50 48 45 44 33 45 42 43 50 53 56 60 61 64 62
55 55 55 57 51 57 57 52 37 32 52 45 46 51 50 49 50 51 49 47 46 41 42 48 49 51 53 47 50 48 45 32 30 28 30 42 40 48 56 60 57 59 60 59 57
54 55 56 58 57 55 53 43 30 41 47 52 50 50 47 50 50 49 46 44 51 49 45 42 39 47 51 50 45 44 46 33 25 27 31 37 35 43 56 56 57 58 59 57 56
54 53 53 57 56 55 47 32 36 44 53 48 49 44 44 48 47 47 44 46 50 51 44 44 44 50 51 51 54 44 39 49 37 26 26 37 45 55 55 56 56 58 59 58 58
49 49 50 58 58 52 42 37 42 50 52 52 44 48 42 44 43 44 45 49 49 54 56 47 39 46 45 50 49 46 50 37 36 23 21 33 35 43 51 58 58 55 54 55 56
47 42 51 58 55 46 36 40 47 52 52 48 47 45 45 46 46 43 45 48 52 50 53 49 43 37 44 42 43 41 41 42 44 37 26 28 37 52 52 53 53 54 56 53 53
46 36 50 54 40 43 38 44 48 50 52 50 50 48 47 46 43 43 43 47 53 50 45 48 44 33 40 46 46 46 45 46 34 31 32 34 40 53 54 53 53 53 55 52 54
40 41 50 49 34 37 43 44 48 47 48 48 46 49 50 45 38 44 44 48 52 47 41 45 39 26 33 40 42 41 45 48 47 39 35 30 38 55 53 52 52 51 53 56 55
40 34 40 42 43 39 39 40 41 47 46 50 48 50 46 43 47 42 44 46 47 47 46 48 38 34 31 38 43 36 40 45 44 34 37 38 43 51 54 53 57 57 55 55 56
38 36 41 31 34 37 40 42 39 39 45 47 44 45 44 39 41 41 43 42 45 47 46 41 33 36 38 39 40 39 38 41 38 39 37 41 42 49 54 54 56 59 57 57 58
34 35 40 37 40 36 37 36 37 41 42 40 40 44 44 40 42 39 43 41 41 41 42 41 31 34 29 37 39 35 39 40 41 42 42 43 43 54 57 57 57 58 58 56 57
41 40 37 37 36 35 33 36 39 42 44 46 44 41 39 43 45 43 42 42 40 36 35 34 33 31 25 32 31 28 34 38 40 44 44 38 46 53 52 54 54 55 56 57 58

GFSSW_sfc_temp_075.txt.gz
Temp
64 64 64 64 64 64 64 64 64 63 64 64 64 64 64 64 64 66 67 69 70 72 70 72 71 69 69 65 66 62 52 49 52 55 56 62 59 63 62 64 61 63 62 64 69
63 63 63 63 63 63 63 63 63 63 63 64 64 64 64 63 65 66 69 72 72 71 70 68 66 68 62 62 62 56 49 53 58 56 56 63 61 62 58 59 57 59 61 65 66
63 63 63 63 63 63 63 63 62 63 63 63 63 63 63 62 63 65 70 72 72 70 70 69 69 67 60 61 59 57 53 59 58 60 62 61 59 64 60 54 61 62 62 64 62
62 62 62 62 62 62 62 62 62 62 63 63 63 63 62 64 53 66 70 71 71 70 70 68 65 59 57 57 62 53 61 62 61 61 60 58 62 58 60 61 63 65 65 62 61
61 61 61 61 61 62 62 62 62 62 62 63 63 63 63 59 62 70 68 69 69 69 67 66 62 60 55 57 61 55 57 61 60 59 57 60 56 57 59 64 63 64 64 63 62
60 60 60 60 61 61 61 62 62 62 62 63 63 63 60 53 69 72 69 68 69 67 66 65 63 64 59 59 57 57 58 58 59 59 58 56 55 55 61 62 62 63 60 60 60
60 60 60 60 60 61 61 61 62 62 62 63 63 65 60 61 69 70 70 67 68 67 65 65 64 62 60 57 59 58 52 55 57 58 56 56 53 56 60 61 62 61 60 60 61
60 59 59 60 60 60 61 61 61 61 61 62 63 59 56 67 64 69 70 66 68 69 67 66 66 63 60 59 57 51 50 45 54 57 55 55 47 59 60 60 61 60 57 60 62
59 59 59 60 60 60 60 61 60 62 62 63 58 56 54 66 63 66 66 65 66 65 65 72 65 58 56 50 45 46 40 44 50 57 54 51 47 57 60 58 57 57 58 60 60
59 59 59 60 60 60 61 61 62 61 62 66 66 53 57 58 62 65 65 67 63 60 61 59 56 49 47 45 38 42 41 47 46 53 51 47 48 54 58 57 58 58 59 59 60
58 59 60 60 60 61 59 56 54 52 54 55 56 56 59 60 63 61 64 63 62 58 49 53 47 43 48 50 51 49 47 43 48 54 50 48 48 52 56 55 54 54 55 57 60
57 58 59 60 60 60 57 55 53 54 49 59 59 58 61 62 55 59 63 57 54 49 51 48 43 52 54 54 53 49 45 44 48 51 49 48 49 53 54 58 62 61 56 57 57
55 56 56 58 59 58 57 57 62 58 48 55 58 57 57 60 56 55 61 56 51 48 47 45 51 56 55 49 50 46 45 44 47 47 47 43 42 47 54 54 58 58 59 59 60
55 55 55 57 56 58 55 60 61 58 43 48 51 56 58 59 52 59 61 57 51 49 48 48 54 53 50 49 51 43 49 50 48 42 37 44 32 42 53 57 55 59 57 58 58
54 55 55 55 55 54 55 59 59 55 24 50 50 59 55 54 53 52 57 56 49 50 50 46 48 48 47 50 52 47 50 48 45 40 36 37 33 40 45 49 54 58 57 58 57
55 55 56 55 55 55 57 58 57 40 27 44 48 47 48 49 49 51 52 56 54 49 49 47 50 50 51 49 51 52 48 46 42 39 30 38 39 36 45 51 52 55 55 57 58
55 55 54 55 51 56 56 52 38 32 49 41 42 46 46 45 46 47 45 44 43 39 39 43 45 47 51 46 49 48 43 31 29 26 28 37 34 42 50 52 55 56 55 53 55
54 54 52 56 55 56 53 42 30 38 42 47 46 45 42 46 44 46 43 40 45 42 38 37 35 46 50 48 44 43 43 31 23 25 29 35 33 44 52 56 56 56 56 52 53
54 48 48 52 56 55 46 32 34 39 48 44 44 39 39 44 43 43 40 40 46 47 42 38 39 46 47 49 52 42 38 45 35 20 25 34 39 50 52 54 56 54 53 52 52
42 43 46 54 54 52 42 35 40 48 49 49 41 43 36 40 40 40 41 45 46 50 50 45 37 42 43 48 47 45 48 36 33 22 20 30 32 40 48 52 49 50 51 51 50
41 36 47 54 51 45 36 37 43 50 51 45 43 41 42 40 40 39 42 45 48 47 51 46 42 36 41 40 40 40 39 40 40 33 24 24 34 46 49 51 51 49 51 51 52
40 31 46 50 39 40 37 43 46 47 50 47 48 46 44 43 41 40 40 41 46 47 44 44 41 30 37 43 43 42 42 42 32 29 31 30 39 47 50 50 53 53 54 51 50
35 36 46 48 30 31 38 41 44 44 45 45 45 48 48 44 38 42 40 43 46 43 42 45 36 22 31 37 40 38 41 44 43 34 32 25 38 52 50 49 50 51 52 54 53
35 28 36 40 38 34 34 37 38 45 44 46 46 48 45 41 44 41 40 43 44 45 45 46 37 32 28 34 38 32 35 40 39 26 32 35 40 49 48 48 50 51 55 56 54
38 30 35 29 30 36 35 37 36 36 43 44 41 42 42 37 39 39 39 41 42 45 43 42 33 34 36 38 39 36 36 37 37 36 33 38 38 45 50 51 52 53 52 53 53
34 32 33 32 35 32 33 32 34 38 40 38 37 41 42 38 40 36 40 39 38 39 41 40 28 34 30 36 37 33 35 36 39 39 41 41 40 51 53 53 49 51 52 52 54
35 40 36 32 34 30 30 32 35 39 41 43 42 39 36 39 42 40 40 40 40 35 35 35 32 29 17 30 31 23 32 35 37 40 41 36 44 50 47 46 43 45 46 45 46

GFSSW_sfc_temp_078.txt.gz
Temp
65 64 64 64 64 64 64 64 64 64 64 64 64 64 64 64 64 64 65 70 69 71 69 67 68 66 65 62 63 59 51 47 49 51 54 58 57 58 59 60 58 59 59 62 67
64 63 63 63 63 63 63 63 63 63 63 63 64 64 64 63 65 64 69 72 72 71 68 66 63 64 60 60 60 55 48 52 55 54 54 58 57 61 58 56 55 56 59 61 64
63 63 63 63 63 63 63 63 62 63 63 63 63 63 63 61 62 64 71 72 72 70 69 68 66 63 57 57 55 53 51 57 56 57 59 59 55 58 58 52 59 60 60 60 60
62 62 62 62 62 63 62 62 62 62 63 63 63 63 62 62 53 65 70 71 71 68 68 67 64 58 54 54 58 52 57 60 60 58 59 57 57 55 57 60 63 63 62 61 62
61 61 61 61 61 62 62 62 62 62 62 63 63 63 62 57 60 68 68 69 68 67 66 64 62 59 55 55 58 53 54 58 58 59 57 57 53 55 56 62 60 61 61 61 63
60 60 60 60 61 61 62 62 62 62 62 63 63 63 61 55 67 69 67 66 67 65 64 64 64 63 58 56 55 56 56 56 56 56 56 54 51 53 58 59 59 59 59 61 61
60 59 60 60 60 61 61 61 62 62 62 62 63 63 59 59 66 67 68 65 66 65 62 63 63 60 58 55 58 56 52 52 53 54 53 54 51 53 56 57 57 58 56 57 58
59 59 59 59 60 60 61 61 61 61 62 62 63 59 55 65 64 66 66 64 66 66 65 64 64 61 58 58 56 50 48 44 51 54 53 52 47 54 57 53 57 55 53 56 58
59 59 59 59 59 60 61 61 61 62 62 63 58 55 54 66 62 64 64 64 63 64 64 70 63 55 55 48 45 45 40 41 48 54 52 49 46 55 55 55 56 55 55 56 56
59 59 59 59 60 60 60 61 62 61 62 64 65 54 56 57 61 63 62 65 61 60 60 59 53 48 46 45 38 41 40 43 43 51 48 45 47 53 55 51 55 54 55 56 56
59 59 59 60 60 61 58 57 54 52 53 55 54 54 57 59 63 60 63 62 61 57 49 50 46 42 48 48 47 45 43 42 45 51 48 47 46 51 55 53 51 52 52 53 55
57 58 59 60 60 60 56 54 53 55 49 57 57 57 59 60 54 57 63 56 54 48 49 46 41 50 50 49 48 44 42 41 46 48 47 45 47 51 52 54 55 55 54 54 54
55 56 56 58 59 57 56 56 60 56 48 52 56 56 57 59 54 54 60 54 49 46 46 44 49 53 52 47 48 45 43 41 44 44 43 40 41 45 52 51 55 55 55 55 56
54 54 55 57 56 56 54 58 59 57 42 46 50 55 56 58 51 57 59 56 48 47 47 46 51 50 48 46 48 42 49 47 45 41 36 41 32 40 49 53 53 56 51 54 55
52 54 54 55 55 53 55 57 58 56 25 49 47 58 54 53 52 51 55 54 48 48 48 45 47 47 45 48 50 46 48 45 43 38 34 34 33 39 43 48 52 54 54 54 55
53 53 54 55 55 56 56 58 56 38 25 42 47 47 48 48 47 50 52 54 53 48 45 46 48 49 50 47 49 50 46 43 38 36 30 36 37 36 43 47 51 54 55 54 55
54 54 54 54 52 56 56 54 38 30 46 39 41 45 44 43 44 45 45 44 43 38 37 41 43 45 49 45 47 45 42 31 29 26 28 33 33 39 48 51 50 53 51 51 50
54 54 52 54 55 56 53 43 30 38 40 45 44 43 41 45 42 43 41 40 43 41 37 36 34 44 48 47 44 41 41 31 23 24 29 34 32 44 47 51 51 51 49 49 50
53 47 47 53 55 54 46 32 34 38 46 43 43 38 38 43 42 41 39 39 44 44 41 36 38 43 45 46 50 41 37 43 33 17 23 33 38 49 50 48 50 51 51 50 50
42 42 45 54 55 51 42 35 40 45 46 48 39 41 35 39 39 39 37 43 43 47 46 44 35 40 42 46 44 43 46 35 32 22 19 29 31 39 45 47 50 51 50 51 52
41 37 46 51 52 45 36 37 42 48 48 44 42 39 38 38 39 37 40 41 44 45 49 45 40 35 40 39 39 40 38 39 38 32 23 20 32 43 46 50 48 49 51 50 51
38 31 46 49 40 39 37 43 46 46 48 45 45 45 42 42 39 40 38 39 44 46 42 45 39 30 36 39 42 42 41 41 32 28 28 29 35 48 48 47 49 49 50 49 50
34 34 45 48 32 34 37 41 44 43 44 43 42 44 45 41 37 40 39 43 45 44 45 46 36 27 32 38 40 39 39 42 39 33 27 25 34 45 46 45 46 46 46 49 49
35 28 35 40 39 34 34 37 38 44 44 46 45 45 41 38 42 38 40 43 45 45 45 45 36 33 29 32 37 33 33 37 37 26 29 36 40 47 45 45 49 49 50 49 49
37 30 33 25 34 36 34 36 37 36 42 44 41 43 42 37 38 37 39 39 43 44 42 42 29 33 34 36 37 37 35 35 34 34 30 32 35 41 45 46 48 47 47 48 47
33 32 32 31 32 34 34 31 34 37 39 37 37 41 42 39 40 37 38 38 38 39 39 39 30 33 29 36 36 32 35 36 37 37 39 37 38 49 50 45 43 44 44 44 44
35 38 34 31 30 29 31 31 34 39 40 42 41 39 38 39 41 40 40 40 40 37 34 33 32 28 21 29 31 24 32 34 36 39 42 36 42 42 39 40 40 41 42 42 43

GFSSW_sfc_temp_081.txt.gz
Temp
64 64 64 64 64 64 64 64 64 64 64 64 64 64 64 64 64 62 63 69 69 71 69 67 66 64 64 61 60 56 50 46 49 49 52 56 54 55 57 58 55 58 57 58 65
63 64 63 64 63 63 64 63 63 63 63 64 64 64 64 63 63 61 70 72 72 71 68 66 62 63 59 58 57 54 48 51 54 53 53 57 54 58 54 54 53 54 56 59 62
63 63 63 63 63 63 63 63 62 63 63 63 63 63 63 61 61 64 71 72 71 69 67 67 66 62 55 54 54 51 51 56 55 56 57 58 53 56 55 50 57 59 58 58 59
63 63 63 62 62 63 63 62 62 62 63 63 63 63 62 60 52 63 70 71 71 66 66 65 63 56 53 53 56 52 54 57 58 56 57 57 57 53 55 59 58 61 60 58 59
62 61 61 61 62 62 62 62 62 62 62 63 63 63 61 55 60 66 68 68 66 65 65 63 59 57 55 55 56 51 54 55 56 55 54 56 53 55 55 60 57 58 58 58 60
61 60 60 60 61 61 61 62 62 62 62 63 63 63 59 54 65 68 65 64 66 64 63 64 62 61 56 56 54 55 55 53 54 54 54 52 50 51 54 54 55 57 56 57 58
60 59 59 60 60 61 61 61 62 62 62 63 63 63 58 58 64 65 67 64 65 65 62 62 62 60 57 54 55 54 50 50 51 53 52 53 50 52 53 52 53 55 54 55 56
59 59 59 59 60 60 61 61 61 61 62 63 63 59 55 64 63 65 65 63 65 65 64 64 64 60 57 56 54 48 47 43 49 51 50 51 47 52 52 51 54 52 51 53 55
59 58 59 59 59 60 60 61 61 62 62 63 58 56 53 65 61 63 64 63 63 63 63 68 63 54 53 48 43 42 38 40 47 51 49 48 46 52 51 52 52 52 53 54 54
58 58 59 59 59 59 60 61 62 61 62 63 64 54 56 56 60 62 62 64 60 60 60 58 51 47 44 43 38 39 37 39 41 48 46 44 47 52 53 51 52 51 52 53 53
58 58 59 59 59 60 58 55 54 52 53 53 54 55 56 58 61 59 62 61 59 57 48 48 46 42 46 47 44 43 40 39 43 48 45 45 44 49 53 50 50 51 51 52 53
58 59 59 59 60 60 55 51 53 55 49 55 54 56 59 59 54 56 62 55 53 46 47 45 41 50 50 48 47 43 41 39 44 46 46 42 46 49 50 52 53 53 53 52 52
55 55 57 59 59 57 54 55 58 55 49 51 55 55 56 59 54 54 60 54 49 45 44 43 47 50 50 44 45 40 40 39 43 42 42 40 41 43 49 48 52 52 51 52 53
53 54 54 56 55 57 53 58 58 56 42 46 49 55 56 56 50 56 58 55 48 46 46 44 49 48 45 44 46 39 47 46 43 39 35 38 32 39 45 48 50 52 50 51 51
53 53 53 55 54 53 55 57 57 55 25 48 47 57 52 52 51 50 54 54 47 47 47 45 45 45 43 46 48 44 46 44 41 36 33 33 33 39 40 45 50 50 50 50 51
52 52 53 54 55 55 56 56 55 39 25 40 46 46 47 46 46 49 51 55 52 48 44 45 46 47 48 45 47 47 44 41 35 35 29 33 35 36 41 44 46 48 49 50 50
51 52 50 54 51 56 57 53 37 30 44 38 40 44 43 42 43 44 44 44 41 37 37 40 41 44 47 44 45 43 41 30 28 25 27 30 31 38 45 46 47 48 48 47 48
52 52 50 54 54 56 53 43 31 38 39 43 42 42 40 44 41 42 41 40 43 40 36 35 34 43 47 46 42 41 41 31 22 22 28 32 31 41 45 47 47 48 46 47 48
52 47 46 52 53 53 47 33 34 39 44 41 42 38 38 41 40 40 38 40 44 43 41 35 37 42 43 45 48 41 37 41 30 16 23 31 37 47 45 47 47 48 48 48 49
43 43 45 52 53 51 40 34 39 46 45 44 37 40 34 38 39 38 37 42 42 45 44 42 35 38 41 45 43 42 45 35 30 21 18 29 30 38 43 45 46 47 47 49 49
41 39 46 50 52 45 34 35 41 47 48 43 40 38 37 37 38 37 39 41 44 44 47 42 40 34 39 38 38 39 37 37 38 32 23 20 31 42 45 46 44 46 48 49 50
38 32 46 49 41 40 36 41 45 44 47 44 45 43 39 40 37 38 39 40 43 44 41 43 39 30 35 38 40 39 40 39 32 27 27 29 32 44 45 46 48 48 48 46 47
34 34 44 47 35 35 37 41 44 42 42 42 41 43 43 41 37 40 38 42 44 44 43 44 36 25 31 35 37 37 38 40 38 33 26 26 32 44 43 43 44 43 43 45 45
34 28 34 40 40 37 35 37 38 44 43 44 43 43 39 36 40 38 39 41 43 44 45 46 37 35 32 33 37 34 35 37 39 30 32 32 36 41 42 42 44 43 43 43 42
35 29 32 27 34 33 35 36 37 36 42 44 40 40 38 34 34 34 38 41 42 44 42 43 33 35 36 38 38 35 35 36 35 35 34 35 34 41 43 44 41 40 42 43 43
33 29 33 29 32 36 34 33 34 37 39 38 38 41 41 36 37 34 39 38 39 40 40 40 32 34 31 34 35 32 35 35 35 35 35 35 37 47 44 43 41 41 42 42 42
34 36 33 32 29 31 32 32 34 38 40 41 41 39 38 41 42 41 44 42 41 38 35 34 30 27 26 29 31 27 31 33 33 35 37 34 41 41 38 40 40 40 40 40 41

GFSSW_sfc_temp_084.txt.gz
Temp
64 65 64 64 64 64 64 64 64 64 64 64 64 64 64 64 64 61 60 68 68 71 70 66 65 62 62 60 59 56 50 44 48 49 50 51 52 52 54 55 53 57 55 56 61
63 63 64 64 63 63 64 64 63 63 63 64 64 64 64 63 60 60 70 72 72 71 66 65 61 61 58 57 57 54 47 51 54 52 52 54 53 56 51 51 52 52 54 57 60
63 63 64 63 63 63 63 63 63 63 63 63 63 63 63 60 58 62 71 72 72 69 66 64 64 61 55 54 52 50 50 53 52 54 57 57 52 56 54 50 57 58 57 56 57
63 62 63 62 62 63 63 62 62 62 63 63 63 63 62 59 50 62 70 71 71 66 65 63 61 55 52 53 54 50 52 54 56 55 56 56 56 52 53 56 56 58 57 56 58
62 62 62 61 62 62 62 62 62 62 62 63 63 63 59 55 58 64 68 69 66 65 63 61 57 56 53 55 55 50 51 53 54 54 53 56 51 52 53 57 55 56 56 56 60
61 61 60 60 61 62 62 62 62 62 62 63 63 63 56 51 64 66 65 65 64 63 61 61 60 59 54 52 53 55 53 52 53 52 52 51 48 50 52 52 52 53 54 55 57
61 60 59 60 60 61 61 61 61 62 62 62 63 61 56 58 63 64 65 63 64 64 61 61 61 57 56 52 53 53 49 50 48 51 50 50 49 51 50 51 51 54 53 53 55
60 59 59 59 60 60 61 61 61 61 62 62 63 57 54 63 62 64 63 63 63 64 64 62 63 59 55 54 52 48 46 43 47 50 48 49 45 51 50 48 52 51 50 52 54
59 58 59 59 59 59 60 60 60 61 63 63 56 55 53 64 61 62 62 62 62 61 62 66 61 53 52 47 44 43 38 39 45 49 47 46 45 50 49 51 50 49 51 52 53
58 58 58 59 59 59 60 61 61 61 62 63 63 52 55 55 59 62 62 62 59 59 59 57 50 46 43 44 37 38 37 37 39 44 44 41 46 50 51 50 52 51 50 50 51
58 58 59 59 59 60 58 55 53 51 53 54 53 53 55 57 61 58 61 60 58 56 47 47 46 42 46 46 44 42 42 40 42 45 43 42 43 48 51 49 50 51 50 51 52
58 58 59 59 60 60 55 51 53 56 49 54 54 55 57 59 54 55 61 55 52 45 46 45 41 48 49 47 46 41 38 39 42 45 43 41 44 48 49 51 51 52 50 50 50
55 56 58 59 59 56 53 54 57 55 48 51 55 54 55 57 53 54 59 53 48 44 43 43 46 49 48 43 44 38 39 39 40 40 41 39 41 42 46 45 49 50 49 48 49
54 54 55 56 55 54 53 58 57 55 42 45 48 55 55 56 50 55 57 54 46 45 45 44 46 47 44 41 44 38 46 44 42 38 35 37 32 39 43 46 47 46 46 47 48
52 53 54 54 53 52 54 56 56 55 25 47 47 56 52 51 50 49 54 53 46 45 46 43 45 43 42 45 47 42 46 43 39 35 33 31 32 39 39 42 47 47 46 46 47
51 51 52 54 54 55 56 57 55 38 24 40 45 45 46 45 45 49 50 54 51 46 43 42 45 46 46 44 45 45 42 39 34 33 28 32 33 36 39 42 43 45 45 46 46
50 50 50 51 51 56 56 52 37 28 43 37 39 43 42 41 42 44 44 43 42 36 35 38 40 42 46 43 44 42 40 30 27 25 27 28 30 37 42 43 43 45 44 44 45
50 50 49 51 51 56 53 43 31 37 39 42 41 42 40 43 40 41 40 39 42 41 36 35 34 42 45 45 41 40 40 31 22 21 27 31 30 38 41 44 45 46 44 44 47
51 46 46 50 52 53 47 32 32 38 44 40 42 37 37 41 40 39 38 42 43 43 40 36 36 41 42 44 48 40 36 40 29 14 22 30 35 42 42 43 44 45 45 46 47
43 43 44 50 52 49 42 34 38 44 44 43 36 39 33 37 38 37 37 42 42 45 43 42 35 38 40 44 42 41 43 35 29 19 18 28 30 35 38 41 41 43 45 47 47
42 38 45 49 50 43 33 35 41 46 46 42 39 36 37 37 39 37 38 40 43 42 45 42 40 34 39 38 37 38 37 36 37 31 22 19 30 39 43 42 42 44 46 45 46
39 34 46 48 40 37 33 39 45 44 47 44 42 41 38 38 37 38 38 39 41 43 41 43 38 30 34 37 39 38 39 39 32 27 25 28 31 42 45 43 45 45 45 43 43
34 35 45 47 33 34 37 40 43 42 42 42 41 43 41 39 35 38 39 41 42 43 42 43 34 23 31 34 35 35 37 39 36 33 26 26 31 41 41 43 43 43 41 42 42
34 30 35 41 39 36 35 37 37 44 42 42 40 42 40 37 39 36 37 40 42 43 45 47 36 34 33 34 36 33 35 37 39 30 33 31 34 38 38 40 41 40 41 41 41
34 31 33 29 34 36 36 36 36 36 42 43 39 39 37 34 34 34 37 39 42 43 42 43 34 34 33 35 35 34 35 36 37 41 37 38 37 42 43 42 40 41 41 41 41
32 30 32 31 32 34 35 33 34 37 39 37 38 39 39 34 36 34 35 36 36 41 39 40 32 33 30 34 34 32 35 34 33 34 34 34 35 44 45 44 41 41 41 41 41
34 36 33 32 30 31 33 32 33 38 40 41 41 39 37 39 43 44 43 42 41 37 36 35 33 31 28 30 32 29 33 33 33 34 36 34 40 41 40 41 41 41 41 41 40

GFSSW_sfc_temp_087.txt.gz
Temp
64 64 65 65 65 64 64 64 64 64 64 64 64 64 64 64 64 60 60 68 68 72 70 67 66 65 65 62 62 59 52 48 50 51 55 55 58 58 61 62 60 63 63 65 64
64 64 64 65 64 64 64 64 64 64 64 64 64 64 64 63 60 59 68 72 72 71 66 65 62 64 61 59 59 56 50 53 56 56 56 56 58 61 60 58 59 60 61 61 63
64 63 64 64 63 63 63 63 63 63 63 63 63 63 63 60 57 61 71 72 72 70 67 66 64 63 57 57 56 54 53 56 57 58 58 57 56 58 59 56 61 61 62 59 60
63 63 63 64 63 63 63 63 62 62 63 63 63 63 62 58 49 62 70 71 71 68 66 64 62 57 54 54 56 54 54 56 57 57 57 57 58 56 57 61 61 62 62 59 59
63 62 62 62 62 62 63 62 62 62 62 63 63 63 59 53 57 64 68 69 66 66 64 61 59 57 54 55 57 53 54 55 56 56 55 57 54 56 57 60 59 59 58 58 61
62 62 62 62 61 62 62 62 62 62 62 63 63 63 57 50 63 66 65 64 65 64 61 62 61 60 55 54 54 55 54 54 54 54 55 54 52 54 56 57 56 58 58 57 59
62 61 61 60 61 61 61 62 62 62 62 63 63 61 56 56 63 64 65 62 64 64 62 61 63 60 56 54 54 54 52 51 52 53 52 53 52 54 55 54 56 57 57 57 57
61 60 60 60 60 60 61 61 61 61 62 63 63 57 53 63 61 63 64 62 63 64 64 62 63 59 55 54 53 49 48 45 50 51 51 53 48 53 53 53 55 57 55 55 57
60 59 59 59 59 60 60 60 60 61 63 63 57 55 52 64 59 62 63 62 61 61 62 65 59 53 53 49 45 43 41 41 46 49 49 50 48 51 52 53 53 54 55 55 56
59 58 59 59 59 59 60 61 61 61 61 62 62 51 54 55 59 61 60 63 59 58 59 57 51 47 44 45 39 41 41 39 41 46 46 44 48 51 53 52 54 53 54 54 54
58 58 59 59 59 60 58 54 53 51 52 53 52 52 54 56 60 57 60 60 58 55 47 48 46 41 46 46 46 44 42 41 43 47 46 44 45 50 52 51 51 53 53 53 54
58 58 58 59 59 60 53 50 52 56 49 53 54 54 57 57 53 55 60 54 52 45 45 46 41 48 48 47 46 43 41 39 43 45 45 43 46 50 50 51 51 51 51 52 52
57 58 58 59 59 57 51 52 57 55 49 50 54 54 55 57 52 53 59 52 48 44 44 43 46 48 48 44 45 39 42 40 41 41 42 40 43 45 48 48 49 47 49 50 49
54 55 56 58 55 53 51 57 56 55 42 45 48 55 55 56 49 54 56 54 46 44 46 44 44 45 43 42 44 39 45 44 42 39 36 39 35 42 43 47 46 46 46 47 47
52 53 54 56 53 52 54 55 56 56 25 47 46 55 52 52 50 49 53 53 46 45 47 43 43 43 42 45 47 43 44 43 40 36 35 35 36 41 41 44 46 46 46 47 47
51 52 53 54 55 54 55 55 54 37 23 39 44 45 46 45 46 49 50 53 50 46 44 43 45 46 46 43 44 44 42 39 35 34 30 32 35 37 41 44 44 45 46 47 48
49 50 51 51 51 55 55 51 35 26 42 37 39 42 41 40 41 45 45 42 41 37 35 37 39 42 45 42 44 42 40 30 29 26 28 30 31 39 42 45 46 46 46 47 47
49 49 49 50 51 52 52 43 24 36 37 40 40 42 40 42 38 40 41 41 42 40 35 34 33 41 44 44 41 39 41 32 24 23 28 31 30 39 40 43 46 46 46 46 46
50 46 46 49 52 52 47 34 35 37 43 39 41 37 37 40 40 39 38 43 44 43 40 36 36 40 42 43 47 40 37 40 28 14 23 31 35 41 41 42 44 46 46 45 45
43 43 44 49 52 49 42 35 36 42 44 44 37 40 34 36 38 37 37 42 42 45 44 43 35 38 40 44 42 41 43 35 30 19 19 28 31 35 37 40 43 44 44 45 45
42 38 45 49 50 42 33 35 41 44 45 43 39 37 37 37 38 37 38 40 44 42 45 43 40 34 39 39 38 39 38 36 37 31 22 19 31 39 43 43 41 43 44 44 43
39 34 46 48 37 34 33 40 45 44 44 43 43 41 39 39 36 37 38 39 43 45 41 43 38 31 35 39 39 38 39 39 32 26 25 27 32 41 44 43 44 44 44 43 43
34 35 45 46 32 32 35 39 43 43 43 42 42 42 42 39 36 39 39 41 42 44 43 43 34 22 31 35 35 34 36 38 36 33 25 27 31 40 42 41 43 43 42 42 42
34 29 35 40 39 36 33 33 36 43 41 42 41 43 39 37 39 35 36 39 42 43 45 46 36 35 34 34 36 34 36 37 39 31 31 33 33 37 38 40 42 42 42 42 42
33 30 33 30 34 35 37 34 34 35 41 42 37 39 38 34 35 35 38 38 40 43 42 43 32 33 31 33 35 35 35 35 37 43 37 41 37 42 41 41 42 42 41 41 41
29 28 32 31 32 33 36 33 34 35 38 37 36 38 37 35 36 33 36 37 37 39 39 39 30 32 30 34 33 32 35 38 42 38 34 34 37 44 45 42 40 41 40 40 41
33 35 33 32 31 31 32 33 34 38 39 41 41 38 36 40 42 43 42 40 39 36 35 35 33 29 28 31 31 30 34 34 36 35 41 34 39 40 40 42 42 41 41 41 41

GFSSW_sfc_temp_090.txt.gz
Temp
65 65 65 65 65 66 65 65 65 64 64 65 65 64 64 64 64 67 65 73 73 71 71 74 74 74 75 72 72 71 67 62 63 64 67 67 69 70 73 73 72 74 75 74 77
64 64 65 65 64 65 64 64 64 64 64 64 64 64 64 64 67 65 74 72 72 70 74 73 72 73 74 70 70 72 66 66 71 73 71 69 72 72 72 71 71 72 72 72 73
64 64 64 64 64 64 64 63 63 63 64 64 64 64 63 65 65 69 71 72 71 72 76 75 74 73 69 72 68 67 68 69 68 69 71 70 69 73 72 69 76 75 75 71 72
64 64 64 64 64 64 63 63 63 63 63 63 63 63 63 65 56 70 70 71 71 76 75 72 71 68 66 66 67 66 65 68 65 66 66 68 70 69 71 74 74 76 78 73 72
63 63 63 63 63 63 63 63 62 62 63 63 63 63 65 62 63 72 68 70 74 74 73 70 69 68 65 66 67 65 65 66 66 65 67 66 67 69 70 74 72 71 71 73 74
62 62 62 62 62 63 63 63 62 62 62 63 63 63 65 57 70 72 71 69 73 74 68 71 70 71 66 66 68 66 66 65 66 65 66 66 66 67 70 70 69 69 72 73 74
62 61 61 62 62 62 62 62 62 62 62 63 64 65 62 65 71 72 70 71 72 73 70 73 71 70 68 62 65 65 62 64 64 64 64 66 65 65 71 68 69 70 72 70 72
61 61 61 61 61 61 61 61 61 62 62 63 63 64 61 69 72 68 72 70 72 73 72 72 74 67 65 66 63 61 63 57 61 62 61 64 62 65 67 67 71 71 72 71 72
60 60 60 60 60 60 61 61 61 62 63 63 63 63 59 67 66 70 71 69 69 69 70 70 70 64 63 63 59 58 57 55 57 59 60 62 63 64 64 66 68 70 71 71 72
60 60 60 59 59 59 60 61 61 63 63 65 66 59 60 60 64 67 69 69 67 66 68 66 65 60 62 61 52 53 54 54 57 57 57 57 61 66 66 64 69 71 71 71 70
59 59 59 59 59 60 60 63 60 57 59 59 58 59 59 63 67 64 68 67 65 66 59 57 59 55 60 60 59 59 55 56 55 56 56 57 59 65 68 65 68 71 70 69 70
59 59 59 59 59 60 61 61 63 64 53 58 58 58 61 63 58 61 67 64 62 55 57 57 54 59 58 57 57 54 56 54 53 53 55 53 57 63 64 62 62 63 66 64 66
58 58 58 59 59 58 60 60 65 65 57 53 58 57 58 62 57 58 65 61 58 52 53 55 55 55 55 53 55 53 56 51 53 52 53 52 56 59 59 59 58 58 59 60 62
56 58 58 59 56 60 56 63 64 63 50 47 52 58 58 61 54 59 64 62 55 54 55 56 52 53 53 52 56 49 56 54 50 54 51 51 52 56 56 57 57 57 60 61 61
53 54 56 59 58 55 62 62 63 63 32 52 50 60 56 57 56 55 61 61 53 52 56 53 49 50 51 54 56 52 54 52 51 51 50 51 51 58 54 54 55 57 57 59 59
52 52 53 55 58 58 60 60 62 45 30 44 49 49 50 52 51 54 57 61 57 53 52 51 54 55 55 50 54 52 52 50 49 50 42 50 50 55 55 56 54 56 57 58 59
49 51 52 54 53 57 59 56 41 32 49 40 43 46 51 45 48 51 52 51 51 46 47 47 49 52 53 49 51 52 54 41 40 39 40 41 42 57 54 56 59 57 57 58 59
48 50 50 52 52 55 55 47 32 43 43 45 45 47 45 48 45 45 48 47 50 50 45 44 40 47 52 53 49 50 54 44 32 33 40 37 39 52 53 56 58 59 58 57 57
48 47 47 50 53 53 49 34 38 43 47 43 45 43 42 45 46 46 48 50 53 52 49 44 43 48 49 50 55 48 45 50 36 26 38 45 48 50 50 51 54 55 56 56 56
45 44 45 49 51 50 44 39 46 48 49 49 42 45 40 41 43 44 43 52 49 51 52 50 41 44 46 52 51 51 54 44 45 31 32 39 42 52 45 49 53 53 55 54 54
45 41 45 49 50 42 35 42 46 48 50 47 43 41 44 40 44 41 43 47 54 49 53 51 47 40 45 45 48 46 46 46 50 44 37 35 45 58 52 54 53 55 56 55 54
42 37 46 50 35 33 33 41 47 46 48 47 48 45 43 43 42 41 42 47 50 50 48 49 44 38 43 45 46 47 49 51 45 35 39 39 47 48 57 57 56 54 53 53 53
38 39 45 48 32 33 33 39 44 44 45 44 44 47 47 44 40 45 45 46 47 50 48 48 41 31 36 43 42 42 45 51 46 41 33 37 47 47 54 52 55 53 51 51 52
38 34 38 42 40 34 33 34 37 44 45 45 44 45 43 42 44 41 41 43 45 47 46 50 42 44 40 45 47 40 42 44 48 39 42 42 50 44 49 51 52 51 52 53 53
37 34 36 32 34 35 35 34 33 34 41 42 39 43 43 36 39 39 41 41 44 45 46 47 38 43 48 44 46 45 43 43 45 50 44 50 47 48 50 52 53 54 52 50 49
34 34 36 34 33 36 34 34 33 34 35 35 36 39 41 37 42 36 41 42 42 43 44 43 35 39 33 38 41 40 45 45 48 49 51 50 48 56 56 56 51 50 49 49 49
38 39 37 34 33 33 34 35 35 37 37 39 39 36 34 37 42 43 44 42 40 39 38 38 35 33 34 34 37 34 39 43 47 52 51 45 51 51 50 48 49 49 49 49 49

GFSSW_sfc_temp_093.txt.gz
Temp
65 65 65 65 66 66 65 65 65 64 64 65 65 64 64 64 64 65 66 75 77 71 71 77 79 79 81 77 78 78 68 64 68 69 71 76 73 76 79 76 78 79 80 82 81
65 64 65 65 65 65 65 64 64 64 64 64 65 64 64 64 64 68 75 73 72 70 77 75 73 75 75 75 76 73 67 69 76 78 74 74 76 75 74 74 75 75 76 80 79
64 64 64 64 64 64 64 64 63 63 64 64 64 64 64 66 67 70 72 72 71 71 80 80 80 75 70 74 73 73 68 75 74 76 78 75 75 80 76 72 79 76 75 76 77
63 64 64 64 64 64 64 63 63 63 64 63 63 63 63 68 56 73 70 71 70 77 78 74 74 70 69 67 73 68 70 74 71 70 73 73 78 73 76 75 80 81 82 78 77
63 63 63 63 63 64 63 63 63 63 63 63 63 63 65 64 67 73 68 70 76 75 75 74 70 70 66 71 70 68 70 71 70 69 72 72 72 73 73 78 78 77 79 78 78
62 62 62 62 63 63 63 63 63 62 63 63 63 63 66 59 72 75 74 73 77 75 76 76 73 75 71 71 70 72 72 70 71 69 69 69 70 70 75 77 76 74 76 79 79
61 61 61 62 62 62 62 62 62 62 62 63 64 67 65 67 74 75 73 73 77 77 73 78 77 72 73 67 70 71 65 68 69 69 68 70 66 67 75 74 74 74 78 78 79
61 61 61 61 62 62 61 62 62 62 62 63 63 68 63 72 76 71 74 72 76 78 77 79 77 72 69 71 69 66 69 61 65 67 65 67 64 75 73 73 74 77 78 76 77
60 60 60 61 61 60 61 61 61 62 63 63 65 65 62 68 67 72 76 70 71 74 75 76 75 70 66 63 61 62 58 61 59 65 65 66 65 68 70 71 73 76 77 76 77
60 59 60 60 60 60 60 61 61 62 66 69 69 61 64 60 68 70 73 74 70 68 68 70 69 64 65 63 53 56 59 59 60 61 61 62 63 69 70 70 72 75 76 76 75
60 60 60 60 59 60 60 63 60 58 62 61 62 62 63 65 70 68 71 70 71 68 60 65 60 56 62 66 68 67 61 59 63 60 60 61 63 69 73 70 71 74 76 75 75
59 60 60 59 60 60 65 64 66 70 54 63 62 61 64 67 59 64 71 65 63 57 64 58 55 64 67 65 63 63 60 60 57 58 58 60 60 68 70 68 69 69 70 71 72
59 59 59 59 59 58 62 65 73 74 60 58 62 61 61 64 60 59 66 67 61 58 57 57 60 61 59 58 58 61 60 59 59 56 58 57 58 64 64 65 64 64 66 66 68
58 58 58 58 55 61 58 71 69 70 54 52 55 59 61 63 55 62 69 66 62 56 58 60 56 56 57 57 61 53 61 60 54 56 53 57 53 61 64 62 61 62 66 67 66
57 58 58 60 62 55 63 69 68 65 34 57 55 62 60 59 57 57 64 63 58 59 59 54 52 53 54 58 61 56 60 58 57 56 53 54 51 62 60 58 60 61 62 64 65
53 54 57 58 61 62 66 65 63 45 32 47 53 51 52 56 53 56 59 63 63 57 59 53 56 59 59 57 60 57 56 55 56 54 44 55 53 58 57 61 60 60 62 61 62
51 52 54 59 55 60 62 57 41 32 54 43 46 52 54 50 50 54 52 52 52 48 49 51 52 54 57 51 56 58 54 43 41 40 41 46 46 57 58 62 62 59 60 61 63
49 51 51 53 54 58 58 48 31 46 49 52 51 50 49 51 49 51 50 49 57 58 52 46 42 50 56 57 51 52 56 45 33 36 42 39 40 54 59 60 64 62 61 61 61
49 48 49 50 53 54 50 34 39 50 54 47 49 45 47 49 48 48 51 51 56 57 51 48 46 51 54 56 59 51 48 56 40 31 40 47 53 54 53 56 59 59 58 59 60
46 46 45 50 51 51 44 39 49 54 55 52 45 49 43 46 45 48 48 56 54 57 59 55 40 46 48 54 54 54 59 45 47 32 33 43 47 53 47 51 54 55 57 58 59
47 38 45 49 49 45 36 43 52 55 56 52 50 46 49 46 48 45 49 54 59 54 55 57 51 40 47 47 49 48 48 50 53 47 38 38 47 61 54 55 55 57 59 58 57
43 36 45 49 36 34 37 48 54 51 53 51 52 51 50 49 45 46 48 52 58 55 49 51 48 38 44 47 49 54 54 52 44 37 44 40 47 54 61 60 60 59 59 59 58
39 40 45 46 32 32 35 41 49 51 50 49 48 51 51 47 42 47 49 48 52 51 50 50 41 32 36 45 46 46 52 55 56 46 35 38 48 52 58 60 61 59 58 56 56
41 34 38 42 37 33 33 35 39 51 51 50 49 49 47 46 50 44 46 45 47 52 47 52 44 43 40 46 50 42 47 49 51 41 43 45 52 48 54 56 58 58 56 55 55
42 37 37 32 35 35 35 34 34 36 45 49 45 47 47 41 44 44 48 43 45 46 48 50 38 46 51 54 52 49 47 48 47 50 45 51 51 57 54 56 58 59 56 54 54
37 36 39 35 35 34 34 34 33 33 35 40 42 46 47 45 46 41 45 46 45 45 46 46 36 45 35 46 43 41 46 47 47 49 51 53 53 64 61 60 58 56 55 53 53
42 43 40 36 34 34 35 34 34 36 36 36 40 41 40 44 48 49 50 49 48 44 43 41 37 34 34 37 38 33 39 47 48 52 53 47 55 58 55 56 56 54 54 53 53

GFSSW_sfc_temp_096.txt.gz
Temp
65 65 65 65 65 66 66 66 66 65 65 65 65 64 64 64 64 65 61 72 74 71 71 73 72 75 76 71 72 70 57 55 59 60 62 70 65 66 66 68 67 70 68 73 75
64 64 65 65 65 65 65 65 65 64 64 65 65 64 64 63 61 60 71 72 71 70 74 69 67 72 68 68 68 62 56 60 66 66 65 68 67 66 63 66 63 65 69 73 73
64 64 64 64 65 65 65 65 64 64 64 64 64 64 63 64 58 62 72 73 72 71 78 76 74 71 64 66 65 63 58 67 67 67 72 67 64 70 65 61 67 64 66 69 69
63 63 64 64 64 65 65 64 63 63 64 64 64 63 63 63 47 70 71 72 70 73 76 73 70 64 61 59 67 60 65 68 65 64 67 66 68 66 64 61 70 70 70 69 68
62 62 63 63 64 64 64 64 63 63 63 63 63 63 62 57 59 72 68 69 71 73 71 70 66 64 60 63 64 60 64 66 64 63 65 68 64 62 63 67 68 71 71 69 69
61 61 62 62 63 64 64 63 63 62 63 63 63 63 60 53 71 74 72 70 72 72 69 70 68 70 65 65 63 65 65 63 64 64 62 64 61 60 62 68 67 68 67 69 70
61 61 61 62 63 63 63 63 62 62 62 63 63 65 61 62 72 72 72 70 73 72 68 72 71 67 64 61 65 64 58 61 61 63 60 62 56 59 64 67 66 65 65 69 70
61 60 61 62 62 62 62 62 62 62 62 63 63 65 57 70 72 70 71 69 72 75 71 73 71 66 61 64 62 58 57 50 56 60 58 57 52 62 66 65 64 65 64 65 67
60 60 61 61 61 61 61 61 61 62 63 63 61 61 57 66 65 69 71 66 68 71 70 75 68 62 60 54 51 55 47 50 52 61 58 55 52 59 60 62 61 63 64 64 66
59 60 60 61 61 61 60 61 61 62 63 67 68 56 60 59 65 67 68 70 66 64 64 63 61 54 54 51 43 46 46 53 49 54 52 52 52 59 61 61 60 61 61 64 64
58 59 61 61 61 61 59 58 53 54 59 56 58 59 62 64 68 64 67 66 65 62 53 58 52 49 53 56 58 57 53 50 52 56 52 51 52 58 60 59 58 60 62 63 64
58 60 60 60 61 60 61 57 60 63 49 61 61 61 63 64 57 61 67 59 58 52 57 52 47 57 61 60 57 52 51 49 50 54 49 52 52 57 60 59 60 58 60 63 61
58 59 60 60 60 58 58 61 71 69 53 56 60 60 59 61 57 56 62 61 56 53 54 49 54 60 57 52 54 51 51 48 49 49 49 45 46 52 55 57 57 54 56 57 56
58 59 59 59 55 57 54 66 67 66 48 47 52 57 59 60 53 60 63 60 57 53 54 52 55 55 51 52 55 48 54 53 49 47 40 47 36 46 49 51 54 56 54 55 55
57 58 59 60 57 53 60 67 64 60 30 52 53 62 59 55 54 54 59 58 53 54 53 47 48 49 48 52 56 49 54 51 50 46 41 41 38 44 51 49 51 53 55 55 56
57 57 58 57 59 60 64 62 58 40 29 46 50 49 50 53 52 53 55 58 58 54 53 48 51 52 52 53 55 54 51 50 48 45 33 42 41 41 44 50 51 53 53 54 54
53 57 57 60 54 62 61 54 37 29 51 42 44 49 50 47 48 51 49 47 46 42 42 46 46 49 52 47 49 49 46 32 31 28 29 36 38 45 48 51 53 51 51 52 53
51 55 52 53 54 58 55 44 30 41 46 49 49 49 46 48 46 48 46 44 50 50 45 40 36 46 51 50 45 45 47 33 25 26 31 34 33 43 47 52 55 54 52 53 52
51 49 49 50 53 54 48 33 35 45 52 47 48 42 44 47 46 46 45 46 51 52 44 42 39 47 50 50 51 44 41 46 34 23 27 34 41 46 47 49 52 51 51 50 51
45 45 45 49 51 51 43 38 45 53 54 51 40 46 41 43 42 44 44 51 50 54 52 48 35 43 44 48 48 47 52 38 38 22 21 32 33 40 40 45 49 49 49 50 50
44 37 44 49 50 45 35 40 49 55 56 49 46 44 46 43 45 43 45 50 55 53 52 49 43 36 43 41 43 43 43 45 45 38 26 24 32 46 47 50 50 50 52 51 49
42 33 45 48 37 38 36 45 52 51 52 51 50 49 47 47 43 43 45 49 57 54 47 47 42 31 38 42 44 44 47 47 37 32 33 31 34 47 49 52 52 51 53 50 50
38 37 45 44 32 32 37 45 50 48 48 47 47 48 48 48 40 45 46 46 51 51 48 47 38 27 33 40 41 42 46 48 48 38 30 28 35 47 48 50 53 52 52 51 50
39 32 37 38 33 33 34 38 41 49 47 50 49 48 45 45 47 43 43 44 46 50 48 50 40 38 36 39 43 37 42 45 45 31 33 35 42 43 47 49 51 53 52 51 51
41 35 36 31 33 34 34 34 37 39 46 48 45 46 45 39 41 41 45 40 44 45 47 47 34 40 44 48 46 43 43 44 42 46 40 46 45 47 48 51 54 55 51 50 50
35 34 37 34 35 34 33 33 34 37 38 40 41 45 46 40 43 38 44 42 40 42 43 44 33 39 32 43 40 37 42 45 46 47 47 48 45 54 53 54 52 53 51 49 50
40 42 39 35 33 32 32 34 33 36 35 36 40 43 42 43 44 45 47 48 46 42 41 38 34 32 30 34 35 30 37 41 45 48 48 44 51 50 48 51 52 51 51 50 50

GFSSW_sfc_temp_099.txt.gz
Temp
65 65 65 65 65 65 65 65 65 65 64 65 65 65 65 65 65 66 63 70 72 70 72 70 67 66 69 64 66 64 53 49 54 55 56 61 60 63 64 64 62 63 63 67 72
64 65 65 65 64 65 65 65 65 65 65 65 65 64 64 65 62 60 70 72 72 71 71 65 61 60 60 64 63 58 52 56 60 60 59 62 63 63 61 59 58 61 66 70 71
64 64 64 65 65 65 65 65 64 64 64 64 64 64 64 65 60 61 71 71 72 70 75 66 61 58 54 62 59 58 54 59 62 63 66 63 59 63 59 55 60 60 63 65 65
63 63 64 64 64 65 65 64 64 64 64 64 64 63 63 63 47 68 71 71 71 71 72 63 56 53 54 56 63 54 61 62 63 61 63 62 64 61 59 60 66 66 67 64 64
62 62 63 63 64 64 65 64 64 63 63 63 63 63 61 54 57 71 69 70 70 69 67 64 54 54 56 59 60 56 57 61 61 61 62 64 59 60 58 59 64 64 66 64 63
61 61 62 62 63 64 64 64 64 63 63 63 63 63 55 48 69 71 69 68 69 68 67 67 63 65 61 60 58 61 60 58 58 58 61 60 56 59 58 61 63 63 62 63 65
61 61 61 62 63 63 64 63 63 62 63 63 63 62 54 56 68 69 69 67 70 69 65 68 69 65 62 58 63 59 54 55 55 58 59 60 54 56 60 62 63 61 61 63 65
60 60 61 62 62 63 63 62 62 62 62 63 63 57 51 67 65 67 68 67 70 71 69 70 71 65 61 59 57 55 51 46 54 57 56 57 49 58 60 61 60 60 59 62 64
59 59 60 61 62 62 62 61 61 62 63 63 55 53 51 65 61 65 66 63 66 68 68 72 68 60 58 51 46 47 41 44 48 56 55 53 49 56 61 61 59 57 59 61 62
59 59 60 61 62 61 60 61 61 61 61 63 63 49 56 55 61 64 65 66 62 62 61 61 58 52 48 44 38 40 40 45 45 53 51 49 48 54 59 59 59 59 57 58 60
59 60 60 61 62 61 59 56 49 48 52 48 50 52 56 60 64 61 65 63 61 56 49 54 48 45 48 50 51 51 47 46 47 52 50 49 49 53 56 55 57 55 56 57 59
59 59 60 61 62 61 59 51 53 55 44 55 55 57 59 61 53 57 64 56 53 47 51 49 45 53 55 55 54 49 46 42 46 50 49 48 50 52 54 55 57 57 56 58 55
58 59 60 60 61 58 55 55 66 64 48 53 56 56 56 59 53 53 60 56 51 48 48 46 50 56 54 51 50 50 46 43 46 47 47 45 44 49 54 54 54 54 56 56 55
58 58 60 60 55 56 52 62 63 60 41 45 50 55 57 57 50 58 60 57 52 49 49 48 54 53 51 49 52 46 53 49 46 45 39 45 35 43 48 50 51 53 52 54 55
58 57 58 61 57 51 58 61 61 58 25 48 48 60 57 53 52 51 57 55 50 50 50 45 48 49 47 51 54 48 51 49 46 44 39 38 36 41 45 46 50 51 52 52 53
57 57 59 57 56 58 60 59 57 37 25 41 47 47 47 49 49 51 53 54 55 51 49 47 51 52 52 50 54 53 49 47 44 41 32 37 37 38 42 48 48 48 50 50 49
54 57 56 58 51 60 57 52 34 27 46 38 40 46 45 42 44 46 47 44 43 39 38 43 43 47 51 48 49 49 43 31 30 29 29 31 33 42 47 51 51 50 48 48 48
52 57 55 53 55 59 54 42 26 36 39 46 44 45 41 44 41 44 43 40 45 46 40 36 35 45 49 48 44 42 43 30 23 24 29 33 32 42 47 51 51 52 49 48 47
53 51 50 49 54 57 47 31 31 38 45 43 44 40 37 42 42 40 41 45 46 47 41 38 38 45 47 48 52 42 39 45 33 18 26 32 37 46 45 46 47 47 48 46 47
44 45 44 49 51 52 41 35 40 49 49 47 37 41 33 40 37 37 39 46 45 49 49 46 35 41 44 47 47 45 50 38 35 24 21 29 30 37 40 44 45 45 46 45 46
42 38 43 48 51 45 34 38 45 51 52 45 40 38 39 38 38 37 39 44 50 50 52 45 41 36 42 41 41 42 41 42 42 34 24 22 32 43 46 48 46 47 48 47 46
39 32 43 47 39 38 35 41 48 48 50 47 47 45 43 41 36 38 38 44 54 53 46 45 39 31 37 41 43 43 44 43 35 33 31 30 34 46 47 47 49 47 49 47 48
33 34 44 43 31 32 38 43 45 46 47 46 45 46 46 42 37 39 42 44 49 51 47 46 36 26 33 40 41 41 43 46 43 34 29 26 34 46 45 45 48 47 46 48 47
37 32 35 36 34 35 34 38 39 46 46 48 45 46 45 42 43 40 40 41 45 49 48 50 40 37 34 37 40 36 40 42 43 30 32 33 42 44 44 45 46 47 48 48 47
37 32 35 29 32 33 37 37 37 37 43 44 41 43 43 37 40 40 39 39 42 45 47 47 33 37 39 43 42 41 42 41 41 47 39 46 43 46 47 47 49 51 49 48 47
33 31 35 33 34 33 34 33 38 35 38 38 38 42 44 39 41 37 40 40 39 40 42 43 32 37 32 41 42 38 41 44 46 46 45 47 45 52 51 50 48 50 49 48 49
37 39 37 34 32 31 31 33 36 40 36 37 37 40 40 42 42 41 47 45 44 41 39 39 34 30 32 32 34 31 37 41 44 48 48 42 50 48 48 50 50 50 50 50 50

GFSSW_sfc_temp_102.txt.gz
Temp
65 65 66 65 65 65 65 64 65 65 65 65 65 65 65 65 65 65 60 70 70 70 71 71 69 66 66 64 65 60 51 47 52 52 55 59 59 59 60 61 58 59 59 64 68
64 64 65 65 65 65 65 65 64 64 65 64 65 64 65 65 63 61 71 72 72 70 71 66 61 61 57 61 62 55 49 53 59 57 59 60 61 61 58 55 56 57 61 69 67
64 64 64 64 65 65 64 64 64 64 64 64 64 64 64 64 61 62 71 72 71 70 70 66 63 58 53 56 59 55 52 59 61 59 62 62 58 58 58 52 57 57 62 66 65
63 63 64 64 64 65 64 64 64 64 64 64 64 64 64 62 48 66 70 71 71 71 68 62 60 54 51 49 59 54 60 61 61 62 61 61 61 56 57 59 63 64 66 65 65
61 62 63 63 64 65 64 64 64 63 64 64 64 63 62 55 58 70 67 70 70 68 64 61 58 55 50 53 57 56 57 58 59 60 59 61 57 59 57 56 62 62 64 64 65
60 62 62 62 63 64 64 64 64 63 63 64 63 63 59 50 68 72 69 68 68 67 64 63 61 61 57 55 52 60 58 56 58 57 57 58 55 58 58 55 59 61 60 62 64
60 61 61 62 63 64 64 64 63 63 63 63 64 61 52 58 64 69 68 67 68 68 64 66 65 59 55 52 59 61 51 53 53 55 55 58 52 54 58 57 57 58 59 61 62
59 61 61 61 62 63 63 63 62 62 63 63 63 56 49 64 63 64 67 66 69 70 68 69 66 62 59 62 57 55 50 44 51 55 53 54 48 57 56 57 56 56 55 59 61
57 59 61 61 62 62 63 62 61 62 63 63 55 48 48 64 59 63 64 62 65 66 66 71 64 59 60 52 48 44 41 43 46 54 52 51 48 56 57 57 55 55 56 58 60
56 59 60 61 61 62 62 61 61 61 61 62 60 46 53 52 59 61 62 64 62 62 61 60 57 52 50 47 41 41 42 42 42 50 49 48 50 52 55 56 56 55 55 56 58
56 59 59 61 62 62 60 56 49 47 50 46 48 48 53 58 62 59 62 61 61 57 50 53 48 46 52 48 51 49 47 46 44 50 48 48 48 52 54 52 53 54 55 55 56
57 59 60 61 62 61 59 51 53 54 43 52 53 53 57 58 52 55 62 54 52 46 51 49 45 53 55 53 52 49 45 42 44 47 47 45 49 50 51 52 53 55 54 57 56
58 59 59 60 61 58 56 53 62 62 45 50 53 52 54 56 49 51 58 54 50 47 48 45 49 54 52 49 48 44 44 41 44 45 44 43 43 46 53 51 52 54 53 54 55
56 58 59 60 55 57 52 61 62 59 39 42 47 53 55 56 48 57 59 56 49 48 47 47 52 51 49 50 52 43 50 48 44 42 37 43 34 41 48 50 50 53 52 54 53
54 58 59 60 57 51 58 59 58 55 25 44 46 59 55 51 51 51 56 53 46 47 48 46 47 46 47 51 52 48 51 48 44 40 39 35 35 41 41 45 48 51 50 51 52
53 57 58 57 56 59 61 58 55 37 25 38 46 46 46 48 49 50 52 53 53 48 48 47 49 51 51 51 53 51 48 45 41 38 32 36 37 37 39 46 52 48 50 51 50
52 56 57 58 52 59 59 50 34 26 43 35 38 45 45 41 42 44 46 43 42 37 40 42 44 46 50 48 49 48 45 32 30 28 29 30 32 42 45 48 49 51 50 48 48
52 55 56 54 59 58 52 42 27 37 37 43 41 44 40 43 41 42 41 41 44 43 38 38 34 44 49 48 44 42 45 30 23 23 29 33 31 42 47 47 49 50 49 46 46
52 54 50 50 58 57 46 32 32 38 43 40 42 39 35 43 41 39 39 43 45 44 39 36 37 44 46 47 51 44 40 44 32 18 26 32 36 45 44 47 44 45 46 45 44
44 48 44 49 56 52 41 35 37 46 45 46 36 40 35 40 37 36 37 47 44 47 47 43 35 41 43 46 46 46 49 38 34 22 21 30 30 37 39 45 45 42 44 43 44
42 39 43 48 53 45 34 37 43 49 49 44 39 37 40 39 38 35 37 41 49 46 46 43 41 35 42 41 41 42 40 40 40 33 27 22 32 41 47 49 46 44 44 45 43
37 32 43 48 39 39 36 40 46 46 49 47 46 43 41 42 37 38 36 43 51 48 43 43 38 31 37 41 42 42 44 43 39 32 31 30 35 45 46 48 48 45 46 44 44
32 33 43 44 32 34 39 42 45 46 46 45 44 46 45 44 37 39 39 45 49 49 45 44 35 26 33 39 40 39 41 44 40 34 31 27 35 45 43 45 45 46 45 45 43
35 31 33 36 34 37 35 38 41 46 45 46 44 46 43 41 43 38 39 41 44 52 48 50 38 36 34 37 41 37 40 42 42 31 31 33 41 44 44 44 44 45 46 45 44
36 32 32 29 32 39 38 38 38 38 43 43 40 44 43 37 39 37 39 38 41 44 48 48 33 36 38 42 41 40 41 42 42 47 40 46 38 47 47 46 46 46 45 45 45
32 32 34 32 33 37 38 37 37 35 38 35 38 41 43 39 42 35 39 38 38 39 43 42 30 37 32 40 41 37 41 43 44 44 44 45 42 50 49 47 46 47 46 46 47
37 39 36 33 32 31 33 35 39 39 36 37 38 40 40 40 42 42 48 45 44 41 39 39 33 29 34 34 35 31 38 40 43 48 47 41 50 47 47 47 48 47 48 49 49

GFSSW_sfc_temp_105.txt.gz
Temp
65 65 66 66 66 66 65 66 65 65 65 65 65 64 65 65 66 66 61 68 67 69 70 69 68 67 66 63 61 57 48 46 50 50 53 59 57 58 58 60 56 58 58 62 64
65 65 65 65 65 65 65 65 64 64 65 65 65 64 65 65 63 61 69 69 69 69 69 66 60 63 57 59 60 53 47 52 57 55 57 59 58 60 59 56 53 55 59 64 64
64 64 64 65 65 65 64 64 64 64 65 64 64 64 64 64 60 61 69 69 69 69 70 67 64 61 56 57 57 53 50 54 59 59 60 59 57 57 57 51 56 56 58 60 62
62 64 64 64 64 65 64 63 63 64 64 64 64 64 64 60 46 66 70 70 70 69 67 64 61 56 54 51 56 50 58 57 60 58 59 57 59 56 58 60 63 60 64 61 61
61 62 63 64 64 64 65 64 63 63 64 64 64 64 61 54 58 68 68 69 70 67 63 61 59 55 52 53 55 52 57 58 59 58 58 60 55 57 57 55 59 61 64 62 61
59 60 62 62 64 64 64 64 64 64 64 64 64 63 59 50 66 69 67 66 68 66 62 63 61 61 57 53 51 55 55 57 59 56 55 58 53 55 58 54 57 60 60 62 62
58 59 61 62 63 64 64 64 64 63 63 64 64 62 56 57 66 68 68 64 66 67 60 63 61 60 57 52 58 55 49 53 55 54 53 57 50 53 54 55 56 57 59 59 62
56 58 60 61 63 63 63 63 62 63 63 63 63 59 53 63 62 64 67 64 68 69 67 66 64 58 55 57 52 48 50 41 53 54 51 53 48 56 53 54 54 54 54 56 58
57 58 60 61 62 62 63 62 62 62 63 63 57 54 50 63 58 60 66 62 64 65 66 69 63 55 57 48 43 45 41 40 48 52 50 50 47 54 52 53 53 52 53 55 57
57 56 60 61 61 62 63 62 61 61 61 63 59 47 51 50 57 60 59 65 60 59 59 58 55 48 49 47 36 41 41 43 44 49 46 46 49 50 51 52 53 52 52 54 56
57 56 59 61 61 63 60 56 50 49 52 46 46 47 50 55 59 55 59 58 57 55 47 53 47 42 47 52 51 49 48 46 48 50 48 47 48 53 50 46 50 51 51 53 56
57 56 59 61 62 62 60 52 52 53 43 50 51 51 55 57 50 52 60 51 48 43 51 48 43 51 54 52 51 47 47 44 46 48 46 43 47 46 49 50 52 53 52 52 52
55 56 58 60 61 59 56 52 59 62 46 48 51 50 53 55 48 49 56 50 48 44 47 43 47 53 52 49 47 46 46 43 44 46 44 41 43 44 50 48 50 52 52 52 55
55 55 57 60 55 57 53 59 63 57 38 41 45 51 53 54 46 55 56 53 46 45 45 45 52 50 48 47 50 43 49 48 44 42 37 43 32 40 46 50 49 51 51 53 52
54 55 55 60 56 51 57 58 57 55 22 43 44 57 53 50 49 49 54 51 43 44 44 41 46 46 44 47 51 47 50 48 45 41 37 36 34 39 39 45 48 50 53 53 52
54 54 53 57 57 59 59 58 56 35 23 37 44 43 44 46 46 48 50 50 50 45 45 46 49 51 49 51 51 51 47 45 41 40 32 38 37 36 39 45 50 57 52 52 51
53 53 53 59 52 60 57 54 32 23 41 34 37 44 43 38 41 43 44 40 39 34 38 39 42 44 50 47 47 49 44 33 31 29 31 30 32 46 43 46 48 50 53 51 48
53 53 54 58 61 58 54 42 18 37 36 40 40 43 39 41 38 40 41 38 40 40 36 36 34 42 48 47 44 42 46 31 22 22 28 32 30 39 47 45 49 49 48 46 48
52 50 52 54 59 57 47 31 32 37 40 38 40 37 32 40 39 37 39 41 43 41 36 36 37 42 44 47 51 41 39 46 32 18 25 31 35 44 44 46 46 46 43 45 45
44 46 47 55 57 51 42 36 36 44 43 44 34 39 33 38 35 35 36 45 45 44 43 41 35 39 42 45 46 47 50 39 34 21 20 29 30 36 40 49 49 44 44 44 43
41 40 44 46 53 44 34 38 40 46 48 41 36 35 37 37 39 38 37 40 49 44 45 41 39 34 41 40 40 41 40 40 42 33 26 22 32 41 49 51 52 49 43 43 43
37 32 44 44 39 39 36 39 46 44 46 44 42 40 40 40 34 38 35 44 50 46 41 42 37 29 35 39 40 41 44 47 39 32 29 30 32 45 45 47 48 46 45 43 43
33 32 42 42 32 34 41 42 45 44 44 43 41 43 42 41 36 39 39 46 50 50 44 43 35 24 32 38 38 38 40 43 41 35 31 26 38 45 44 46 46 46 44 44 42
35 31 33 36 35 38 37 40 39 43 44 45 43 44 42 41 42 38 39 42 46 51 48 48 37 36 33 36 39 35 39 41 42 33 34 33 41 46 47 47 45 44 44 44 43
36 31 31 30 32 39 40 40 35 37 42 43 38 42 42 35 37 36 39 39 42 46 47 47 34 35 36 40 42 41 41 42 41 45 39 46 40 48 50 49 47 46 43 43 43
31 32 33 32 33 35 37 36 38 34 38 36 37 40 42 37 40 34 39 39 39 39 47 42 30 36 32 38 39 38 41 43 43 45 45 45 43 49 48 47 45 46 44 44 45
36 39 34 32 32 34 34 36 40 36 37 37 40 40 39 40 43 46 48 45 44 41 42 40 31 26 26 33 35 30 36 40 42 47 48 40 49 46 45 46 48 46 46 47 48

GFSSW_sfc_temp_111.txt.gz
Temp
58 60 61 64 66 66 67 67 66 65 65 65 65 65 65 65 65 62 56 65 67 70 68 68 67 66 65 63 63 62 51 48 52 51 55 57 59 59 61 59 60 61 61 64 65
59 60 62 60 66 66 67 67 66 65 65 65 65 65 65 64 60 56 67 70 70 69 66 64 60 64 57 58 60 57 51 53 58 56 56 57 59 59 59 58 58 59 59 62 63
59 60 61 61 65 66 66 66 65 65 65 65 65 65 64 65 56 57 69 70 69 69 68 66 64 61 55 57 55 55 53 56 56 57 58 58 57 58 57 54 58 58 57 60 62
61 60 59 60 65 66 66 66 65 65 65 65 64 64 64 61 45 62 69 69 68 68 66 63 62 57 52 52 57 54 56 55 56 56 56 56 57 57 58 61 61 63 61 61 60
58 58 58 59 64 65 65 65 65 64 64 64 64 64 62 52 54 64 68 67 67 66 62 61 59 57 52 54 56 54 56 55 56 57 57 56 55 57 57 59 59 60 60 61 62
58 58 58 59 62 65 65 65 65 65 64 65 64 64 58 47 63 65 64 65 65 63 59 60 59 60 55 54 55 55 54 55 57 57 57 55 53 55 58 57 56 58 58 61 63
57 57 57 60 61 64 64 64 65 64 64 64 64 63 54 54 63 64 64 62 65 63 58 58 59 58 57 52 56 55 53 55 56 57 56 56 51 55 55 55 55 55 57 59 62
56 55 56 60 61 63 63 64 64 63 62 63 64 61 52 61 60 63 63 61 65 65 60 61 62 55 53 55 53 51 51 45 55 56 54 56 49 57 54 55 54 54 54 56 59
55 55 55 57 61 62 63 64 63 62 63 63 59 57 50 62 58 60 62 60 61 60 61 63 59 52 51 47 44 45 41 42 49 53 52 51 50 55 52 53 53 53 53 55 57
55 54 55 55 59 62 62 63 62 62 60 62 59 51 50 49 57 59 61 63 56 57 55 55 52 46 46 46 39 38 41 44 45 49 48 47 51 55 53 51 53 52 53 54 56
55 54 54 55 59 62 61 58 54 50 53 49 50 48 50 54 61 57 61 60 58 54 45 49 44 42 45 50 50 47 45 45 47 52 48 46 48 55 55 50 50 51 52 53 55
55 55 54 55 59 61 61 54 54 52 42 48 54 51 52 58 50 53 61 53 51 45 46 45 40 48 51 50 49 46 43 43 48 49 47 45 47 52 50 52 52 53 51 53 53
54 54 54 55 58 59 57 56 57 56 43 44 50 51 51 55 49 49 58 52 49 45 46 39 44 51 50 46 45 44 42 43 44 47 47 44 44 48 49 49 50 50 52 52 54
54 54 53 54 53 56 54 57 59 56 37 36 43 50 53 54 45 54 56 52 47 44 46 42 50 47 46 44 47 40 47 45 44 42 38 46 33 43 48 49 48 52 49 54 53
53 53 53 53 51 52 56 61 60 56 26 38 41 55 53 51 47 47 54 51 42 43 43 40 44 43 42 44 49 43 47 44 44 41 37 38 35 39 44 44 47 51 50 54 56
52 52 53 51 50 55 58 60 56 36 26 33 41 42 43 44 45 47 49 51 50 44 43 43 47 48 47 48 50 45 42 41 38 39 30 38 37 35 44 45 51 53 54 56 57
52 52 51 53 48 56 56 51 33 30 36 31 34 41 42 37 39 45 42 39 38 32 33 37 38 42 48 43 45 41 37 29 27 28 27 33 35 44 47 47 51 55 56 58 57
52 52 50 52 52 54 50 40 30 31 32 37 39 42 36 40 37 40 41 38 39 39 35 32 29 39 44 44 37 41 40 28 21 22 28 32 33 41 49 55 52 51 53 51 52
52 47 47 50 52 51 44 32 32 34 36 36 40 36 31 38 37 37 39 41 40 39 33 31 32 39 42 44 48 39 36 41 32 17 25 32 38 45 45 49 50 49 51 52 53
42 45 46 51 51 47 40 35 35 39 41 43 34 38 31 37 32 34 37 44 41 41 40 38 32 36 39 45 41 42 46 35 33 20 19 30 32 39 42 48 51 53 52 52 50
40 40 44 48 49 41 33 37 39 41 46 39 33 33 36 36 33 35 36 38 45 39 42 40 36 32 39 38 37 37 37 38 39 31 23 21 32 43 49 51 52 50 51 52 50
38 33 43 46 34 33 33 39 43 41 42 39 39 36 39 40 32 37 34 42 49 46 39 41 35 28 32 38 40 41 39 41 33 28 28 28 32 45 47 50 49 51 50 49 48
34 33 43 45 30 32 38 41 41 40 40 39 37 40 41 41 35 38 36 45 50 47 43 41 34 23 31 36 35 36 37 44 40 33 29 26 37 49 44 45 46 49 49 48 46
35 31 34 37 32 33 34 37 36 43 41 42 39 42 41 37 40 34 35 40 45 49 46 49 36 35 31 35 37 34 36 38 42 29 36 33 41 44 49 50 49 50 49 47 45
36 29 32 29 30 33 37 37 34 36 40 42 37 42 40 35 35 33 35 35 39 45 43 44 34 34 33 37 38 37 36 38 39 43 37 43 43 45 48 50 52 50 47 47 46
32 32 33 31 33 34 33 34 38 33 37 38 38 41 39 34 40 30 36 35 35 37 40 40 29 35 30 35 35 35 38 40 43 44 43 46 44 45 49 47 49 51 49 47 48
36 39 33 32 32 32 33 34 38 40 37 41 41 40 37 39 43 44 46 46 43 42 40 40 32 24 31 30 31 26 35 38 40 45 46 40 48 45 46 47 48 50 49 49 48

GFSSW_sfc_temp_114.txt.gz
Temp
62 61 61 61 62 60 65 67 67 66 66 66 66 65 65 65 65 67 63 70 72 70 69 72 73 71 67 70 72 70 65 60 63 62 67 70 70 70 71 70 69 70 71 72 68
63 60 60 61 61 61 63 66 66 66 66 65 65 65 65 65 66 63 71 70 70 69 72 69 66 70 62 61 63 68 60 63 67 68 68 69 72 70 70 68 68 68 67 69 66
62 61 60 60 60 62 60 66 66 66 66 64 65 65 64 68 60 62 71 70 70 70 75 73 69 68 61 60 58 56 63 66 64 67 68 68 68 73 72 67 74 71 66 63 64
61 61 60 60 60 62 60 65 66 66 66 64 64 64 64 69 51 70 70 70 69 74 73 68 63 58 56 55 58 52 57 60 63 64 65 66 70 68 72 75 75 77 71 64 63
61 61 60 59 60 60 61 64 65 66 65 64 64 64 65 59 63 71 68 69 70 70 67 65 62 60 55 59 61 61 61 60 60 63 66 65 66 70 69 72 72 75 69 64 65
60 60 59 59 59 60 61 65 66 65 65 64 64 64 63 54 69 72 71 69 68 69 64 66 65 68 62 61 60 63 61 59 58 62 64 64 65 66 74 74 70 69 69 67 66
58 58 59 59 57 59 58 65 65 65 65 64 64 66 60 61 71 73 70 69 67 66 61 64 63 66 65 55 62 61 56 57 57 58 61 65 61 62 71 70 69 69 70 69 70
57 57 58 59 59 59 59 64 64 64 64 64 64 66 56 67 73 69 71 66 66 64 62 63 66 58 59 63 60 58 58 52 56 58 57 63 60 66 69 69 70 70 70 67 68
55 56 56 57 57 57 60 64 63 64 64 64 59 61 50 64 62 68 71 63 61 62 61 64 61 55 57 54 51 51 46 52 57 58 56 59 58 63 65 67 71 71 70 68 68
56 55 55 55 58 59 62 63 63 64 62 60 61 51 51 56 62 66 71 66 59 56 54 54 53 51 53 52 41 41 48 50 53 57 57 56 59 66 66 64 68 71 69 69 69
55 55 55 54 56 57 61 59 52 51 54 51 51 57 55 63 66 63 67 63 60 57 45 50 46 46 51 56 54 51 52 52 54 59 53 55 58 63 69 63 65 67 68 68 70
55 56 55 54 56 57 60 53 56 60 46 50 55 53 60 64 54 59 67 57 55 49 51 47 44 52 56 56 53 51 49 51 55 56 56 56 55 61 65 65 67 69 70 70 70
54 55 55 54 55 54 56 58 59 58 46 44 51 53 57 63 54 54 61 57 53 49 50 47 48 53 52 51 48 49 50 50 50 53 54 53 52 57 62 64 66 66 70 71 70
54 54 54 53 50 53 53 58 59 62 38 36 42 49 54 59 49 60 64 60 52 49 51 49 52 49 47 46 51 42 51 51 49 49 46 55 46 58 61 62 60 65 67 68 68
53 53 54 54 49 52 57 59 57 55 27 36 40 51 56 53 50 49 56 54 50 49 51 46 48 48 44 46 52 45 51 48 48 47 46 48 45 55 57 57 61 62 65 67 69
53 53 54 51 50 50 57 57 53 37 27 31 39 40 44 46 48 48 51 54 55 51 51 49 54 54 53 51 50 50 46 45 46 45 38 47 45 50 55 56 61 67 67 66 68
52 53 52 53 46 52 53 50 34 31 35 30 32 39 42 41 40 46 44 40 39 34 36 44 47 51 54 47 49 47 43 31 30 32 36 43 43 51 58 61 64 67 70 69 69
52 52 51 52 52 51 50 41 31 32 33 38 37 37 37 42 41 43 42 38 47 47 38 34 30 43 51 51 45 44 46 35 28 30 38 38 38 51 59 65 65 65 68 68 66
52 49 48 51 52 50 35 32 33 36 39 36 36 33 32 39 40 38 41 44 48 49 44 38 38 47 50 51 51 43 39 47 37 28 35 44 49 55 57 57 59 60 59 63 66
46 46 46 51 51 45 33 34 33 45 46 43 35 39 32 36 39 41 38 49 46 49 53 47 36 44 46 52 50 48 51 37 40 29 30 41 41 48 54 58 60 59 61 63 62
46 41 43 51 47 35 31 34 38 48 49 45 40 39 41 39 44 43 41 47 51 48 51 50 44 38 46 45 43 44 41 45 46 41 35 34 46 57 56 60 61 62 62 63 62
42 33 43 48 33 33 33 37 46 47 50 45 50 47 43 45 42 43 42 46 54 52 48 49 42 36 41 46 50 51 46 47 39 34 41 37 43 56 57 58 60 62 61 61 59
35 35 44 46 31 32 35 38 47 46 47 47 45 48 51 45 38 45 45 52 55 52 50 47 40 31 35 43 44 45 47 49 48 43 35 36 45 60 55 57 59 58 62 61 57
37 32 35 38 34 33 33 34 39 48 45 47 47 50 48 44 45 41 41 44 52 54 47 50 40 41 35 41 46 39 44 46 46 38 42 43 49 56 60 61 60 58 59 60 60
37 32 33 30 32 34 36 34 37 39 45 49 45 48 47 41 43 41 43 41 47 47 49 50 37 42 46 46 47 45 44 45 43 47 42 47 48 54 60 62 66 65 63 60 61
34 33 34 33 34 36 33 33 38 38 43 45 45 48 49 42 45 39 45 45 42 46 50 47 37 42 35 43 45 41 45 46 46 48 49 50 50 61 63 65 64 64 62 61 61
40 40 37 33 32 33 34 33 37 43 43 49 49 47 44 48 53 51 52 48 46 45 45 43 38 34 34 38 40 34 40 45 47 51 51 45 53 60 58 59 59 60 61 60 60

GFSSW_sfc_temp_117.txt.gz
Temp
63 63 63 62 62 62 63 63 63 63 67 67 66 65 65 65 65 67 64 73 73 70 69 76 71 72 73 70 75 76 66 63 66 68 71 76 73 78 79 74 76 75 76 77 72
62 63 63 62 62 62 62 62 63 63 66 67 66 65 65 65 69 64 72 71 71 69 73 70 69 69 63 63 68 70 64 66 73 75 73 75 76 74 73 73 72 71 73 73 69
62 62 63 62 62 62 62 61 61 59 66 66 65 65 64 69 63 64 71 70 70 70 78 76 74 70 64 59 58 63 64 71 69 72 73 73 74 77 73 71 77 72 71 65 65
62 62 61 62 62 61 62 61 62 61 64 66 64 64 64 68 49 73 71 69 69 76 76 73 67 62 63 61 62 54 63 68 67 67 69 70 76 72 74 76 79 83 75 65 65
61 61 61 61 61 61 61 61 61 59 64 66 64 63 62 57 65 76 68 69 73 73 71 69 63 61 60 64 62 56 58 61 64 67 69 69 70 72 74 80 77 82 72 67 67
60 60 60 61 61 61 61 61 61 59 65 65 64 63 61 50 76 77 74 72 73 72 71 71 66 66 63 62 60 61 60 61 61 62 65 66 70 69 76 81 76 76 72 71 69
60 60 60 60 60 60 61 59 61 60 63 65 64 64 59 61 78 77 75 72 74 72 67 72 69 62 64 57 64 65 58 62 61 59 62 66 64 64 77 79 74 74 76 74 72
59 59 59 59 59 59 59 59 59 61 63 64 63 62 54 74 80 74 75 73 71 67 65 67 66 58 59 65 64 59 59 52 63 63 63 61 56 72 78 73 74 75 77 74 74
57 57 57 57 57 58 58 59 58 61 65 64 57 54 51 67 68 73 75 66 65 62 62 65 60 54 55 55 53 54 47 51 57 63 60 61 57 70 71 72 74 76 77 75 75
57 56 56 56 57 58 58 59 59 61 63 62 59 48 51 58 67 71 75 70 62 58 54 55 52 49 51 53 43 44 51 57 57 60 61 59 60 69 72 69 71 76 77 76 74
56 56 56 56 57 57 57 55 49 51 54 51 50 51 57 67 70 66 71 64 58 55 46 47 46 44 51 59 62 59 57 56 60 61 59 60 60 65 71 70 70 72 75 76 76
56 56 56 56 56 57 55 51 54 59 47 52 55 56 62 66 56 63 68 57 51 45 46 44 42 54 57 60 60 59 55 55 60 59 57 60 59 64 68 70 72 72 73 75 76
55 55 56 56 55 53 50 53 62 64 48 47 53 52 56 64 56 57 62 62 52 44 45 45 52 53 56 57 55 56 53 54 51 56 57 55 54 58 66 68 71 73 74 75 76
55 55 55 54 49 51 47 58 62 67 41 39 44 48 52 60 52 65 65 62 56 47 48 49 53 52 53 53 57 46 54 54 51 50 47 57 47 62 67 66 68 69 71 73 75
54 54 55 56 50 47 52 59 59 60 28 39 41 49 52 52 54 55 68 59 53 54 52 46 47 48 47 51 58 50 55 51 50 47 45 51 46 57 66 62 66 70 69 73 73
54 54 54 52 50 52 53 57 52 37 29 32 40 40 42 48 53 54 51 57 60 54 53 52 60 56 54 55 54 54 51 48 46 45 34 47 48 52 59 61 65 71 72 72 74
54 54 53 54 47 52 51 51 35 31 34 29 32 40 42 40 45 48 44 43 43 38 40 46 50 55 56 46 49 48 46 34 32 32 36 48 48 52 63 67 68 69 72 74 75
53 54 53 53 53 51 43 40 30 33 34 37 37 39 35 42 43 45 41 41 51 53 45 39 34 49 56 53 43 44 48 42 32 35 42 42 40 52 63 64 67 70 71 73 74
52 50 49 51 51 47 34 30 34 35 37 36 37 34 32 40 41 42 42 44 49 56 46 42 41 52 55 56 53 42 39 52 41 33 37 46 51 59 60 63 63 65 66 67 70
47 46 47 52 50 40 32 32 35 48 44 41 34 39 31 33 38 40 40 49 49 55 60 51 36 48 50 54 54 52 53 39 43 31 32 44 45 49 57 61 65 64 65 68 70
46 40 44 49 46 34 31 33 35 50 49 47 43 37 38 36 42 40 40 49 55 53 57 55 45 39 45 43 41 43 44 47 50 45 37 37 48 61 59 60 63 66 66 68 68
44 33 43 49 34 33 33 34 40 47 51 54 52 49 43 43 41 43 40 51 58 55 49 52 46 35 39 48 54 51 46 48 41 37 45 41 44 61 62 62 64 64 65 67 64
37 36 44 45 30 32 34 35 39 46 49 51 49 51 52 45 40 48 47 57 58 54 52 51 42 31 33 43 49 46 49 50 51 45 37 36 46 65 64 63 64 64 66 67 63
40 33 34 38 36 33 32 33 34 47 50 54 52 53 49 46 48 45 46 51 54 56 49 51 45 41 35 42 46 40 45 48 48 39 42 43 51 58 61 63 65 65 65 67 66
40 35 34 31 33 35 33 35 34 35 44 53 49 48 47 41 43 42 44 44 52 52 53 53 37 45 50 52 49 45 44 46 45 48 44 50 50 57 64 65 67 68 69 67 65
36 34 36 33 34 35 33 33 34 36 42 46 47 49 50 43 46 41 45 46 45 51 51 54 37 46 36 46 49 44 47 47 47 48 49 51 51 63 66 68 66 66 67 65 66
42 42 39 34 33 33 34 33 35 43 45 53 53 50 49 50 53 54 54 50 51 48 48 46 38 35 33 41 40 34 42 47 49 51 51 46 54 61 61 62 63 64 66 65 65

GFSSW_sfc_temp_120.txt.gz
Temp
64 64 64 64 63 64 64 65 64 64 63 63 65 66 65 66 65 66 62 71 73 70 68 73 70 71 68 64 68 72 58 55 61 63 65 70 67 69 69 67 66 68 66 69 69
63 63 64 64 63 63 63 64 64 64 64 63 63 66 65 64 64 62 72 72 71 70 70 68 65 67 62 58 59 60 56 60 69 70 66 70 69 68 64 66 64 64 67 67 68
62 62 63 63 63 63 63 63 63 63 64 63 63 65 65 66 58 61 71 71 70 70 74 73 71 65 59 59 59 55 58 66 66 66 68 68 65 71 65 62 67 63 62 66 66
61 62 62 62 63 63 63 62 62 62 63 63 61 64 63 64 48 69 70 70 69 73 71 71 67 62 59 53 57 54 60 64 65 65 67 64 69 65 66 61 69 72 66 65 63
61 61 61 61 62 62 62 62 62 62 62 63 61 64 60 54 59 75 69 70 71 70 67 67 62 62 57 59 57 54 57 60 62 64 66 67 63 65 65 68 71 71 65 64 64
60 60 60 60 61 62 62 62 62 61 62 62 61 62 58 49 72 76 71 69 70 68 68 69 64 66 60 60 58 62 59 58 59 60 62 63 63 62 66 69 70 67 63 62 65
60 60 60 60 61 61 61 62 62 61 61 62 60 61 55 56 73 74 73 68 71 69 65 70 70 64 62 58 63 62 55 57 58 59 60 61 59 58 67 68 68 66 64 64 64
59 59 59 59 60 61 60 61 61 61 61 61 59 59 52 69 76 73 73 68 72 72 67 67 66 61 59 63 61 56 55 46 54 59 59 58 52 65 70 67 65 66 65 65 66
58 58 59 59 60 60 60 60 60 60 61 60 53 54 50 69 65 72 72 66 63 63 64 65 62 55 55 51 49 50 43 48 52 58 56 54 52 63 64 65 64 65 66 66 66
57 57 58 58 58 59 59 58 59 59 59 59 56 49 50 55 66 70 72 67 60 58 56 56 52 48 48 48 41 43 46 50 50 55 55 52 54 59 62 63 63 63 66 65 66
57 57 58 57 58 58 57 53 49 48 50 48 51 53 52 64 70 65 69 62 59 56 47 49 46 43 47 51 56 54 52 50 55 58 53 53 55 59 64 63 61 61 63 65 66
57 57 57 57 57 57 54 48 51 53 43 50 53 57 59 65 56 62 66 53 52 46 46 44 42 51 55 54 52 53 51 53 55 57 53 53 53 60 62 63 63 63 63 64 66
56 57 57 57 56 52 50 51 60 58 45 48 52 54 56 59 55 56 60 57 51 46 45 45 49 55 53 51 50 50 52 53 51 51 51 47 47 51 59 63 65 66 66 67 66
56 56 56 56 50 50 47 55 58 56 36 40 45 49 53 57 51 63 63 57 51 44 47 47 52 52 50 49 51 45 52 53 50 47 42 49 38 51 57 58 62 64 65 66 65
55 55 56 56 51 47 53 55 56 51 26 42 44 52 54 51 53 53 64 57 48 47 48 44 47 48 47 51 53 47 53 48 47 45 42 43 37 46 53 54 58 62 64 66 67
55 55 55 52 51 53 52 50 51 35 27 33 41 42 45 47 50 53 53 56 59 50 51 49 55 53 53 48 49 52 48 46 43 43 33 41 40 41 49 54 57 61 65 67 66
55 54 53 55 47 50 50 41 34 29 33 29 35 43 44 41 44 47 45 45 43 36 39 46 47 52 52 44 47 45 44 32 31 30 31 41 38 46 54 57 56 59 60 62 66
54 54 53 54 53 50 41 32 26 34 32 37 41 42 39 42 40 44 44 42 49 48 41 35 32 46 53 48 41 42 44 33 27 27 31 34 33 43 55 58 57 59 60 58 59
54 49 49 51 51 46 33 27 29 33 36 36 40 37 33 40 39 42 44 44 48 52 43 40 38 49 52 52 51 43 40 45 34 25 27 35 42 51 53 54 55 56 54 53 55
46 45 45 47 48 41 32 30 32 38 43 43 36 40 33 35 37 38 42 50 48 53 54 47 34 45 49 52 49 47 49 37 37 23 23 33 34 40 47 51 55 54 55 57 58
45 39 45 48 46 34 28 31 33 40 46 43 41 41 40 34 40 38 40 48 53 52 54 51 41 37 44 42 40 41 40 43 44 38 28 26 36 49 52 53 52 55 56 56 55
42 32 45 47 32 32 31 35 38 38 46 48 48 48 40 38 40 41 40 47 56 54 48 49 41 31 35 45 48 46 44 46 38 32 36 33 34 53 53 54 54 54 56 54 55
37 35 44 44 27 29 34 35 37 36 42 48 45 47 48 42 38 45 46 54 56 52 48 48 37 28 31 38 42 41 45 49 46 38 31 29 36 53 54 52 54 54 54 55 54
38 31 34 37 36 33 32 32 33 39 43 51 49 49 46 44 46 43 43 50 54 55 49 49 41 35 32 37 41 37 42 45 44 31 32 35 41 49 52 53 53 53 54 55 55
39 33 34 29 31 33 33 33 33 33 39 50 47 47 45 39 42 41 47 46 51 50 50 48 33 40 44 45 44 42 42 44 42 44 39 45 44 50 52 54 55 56 54 56 57
35 34 35 33 33 33 33 32 33 32 36 41 45 48 49 40 41 38 43 44 43 47 47 48 31 40 32 42 43 39 43 44 44 45 45 46 45 52 56 56 52 54 54 55 56
42 41 37 34 32 31 32 32 34 37 40 46 48 48 47 47 48 49 52 50 50 45 44 43 36 33 27 35 36 28 39 42 44 47 46 40 48 51 52 53 53 54 56 56 55

GFSSW_sfc_temp_123.txt.gz
Temp
64 64 64 64 64 64 64 64 65 64 64 64 64 63 66 66 65 64 59 68 70 70 70 69 66 65 66 61 62 65 54 49 55 58 60 64 62 65 65 65 63 63 61 64 67
64 64 64 64 64 64 64 64 64 64 64 64 64 63 64 65 62 59 70 72 71 70 68 63 61 63 56 55 57 56 51 56 64 60 59 64 63 64 62 61 59 58 61 67 65
63 63 63 64 64 64 63 63 63 63 64 64 64 63 62 65 57 59 70 71 70 70 70 68 66 63 55 56 53 53 53 62 61 62 64 66 62 64 62 55 61 57 59 61 63
62 62 62 63 63 63 63 63 63 62 63 63 63 63 62 62 48 66 70 71 70 70 68 65 61 56 53 52 56 50 56 60 63 64 63 61 65 62 62 62 67 63 62 62 66
62 62 61 62 62 63 63 63 63 62 62 63 63 62 58 54 57 72 69 70 69 67 64 62 57 58 53 57 55 53 55 59 61 63 63 64 62 61 61 62 65 63 63 61 64
61 61 60 61 61 62 62 63 62 62 62 63 63 61 56 50 69 72 69 67 66 65 62 62 60 62 59 57 54 57 58 56 58 59 62 61 62 61 64 62 61 61 59 60 63
60 60 60 60 61 61 62 62 62 62 62 62 63 60 53 53 68 72 69 66 66 66 61 64 65 60 61 57 61 59 52 55 56 57 58 61 58 57 68 62 59 58 58 60 62
60 59 59 60 60 60 61 61 61 61 62 62 63 57 48 66 67 69 68 64 66 65 62 64 65 60 59 61 60 55 54 46 53 56 59 58 51 62 68 62 58 57 56 58 60
59 59 59 59 59 59 60 61 61 61 62 62 56 52 48 64 57 68 67 61 60 60 60 65 63 55 55 51 46 50 42 46 50 55 53 56 50 60 65 63 60 57 57 59 60
58 58 58 58 59 59 60 61 60 60 59 59 57 47 50 53 59 66 68 64 58 57 55 54 52 48 48 46 40 41 44 48 48 50 51 51 51 56 60 60 60 59 58 60 60
58 58 58 59 58 60 58 54 48 47 50 47 49 49 52 60 63 63 66 61 57 54 47 49 46 44 47 49 54 50 47 48 52 55 49 50 49 55 57 56 56 57 57 58 62
57 57 58 58 58 59 53 49 52 52 43 50 51 53 58 59 52 58 65 54 52 46 46 45 44 51 52 52 51 49 49 46 51 54 51 48 49 53 56 56 57 58 58 59 60
57 57 57 57 58 55 51 49 56 55 43 46 51 50 51 55 52 51 60 55 51 48 46 44 48 55 51 48 47 48 48 48 48 51 50 46 44 49 54 60 59 61 61 62 61
57 57 56 56 50 48 45 53 54 55 34 37 43 48 50 53 48 58 63 57 51 47 48 49 53 50 49 47 50 44 51 50 49 48 39 47 35 45 53 55 59 63 59 64 62
56 56 56 56 47 44 50 54 54 50 23 41 44 56 52 47 51 51 63 54 49 49 48 44 46 47 46 49 52 48 50 47 46 43 40 40 36 42 48 49 56 60 61 58 60
55 56 56 52 50 50 51 51 50 31 24 36 44 44 42 47 49 52 54 56 57 49 50 47 52 51 50 49 51 49 47 45 43 42 33 39 39 38 46 52 52 56 60 61 59
55 55 52 52 43 49 50 44 29 25 35 31 35 43 43 42 44 47 45 45 42 38 39 45 46 49 52 42 46 46 44 32 31 32 32 38 36 44 50 53 55 57 57 57 59
54 54 53 51 49 48 44 33 23 31 30 36 39 43 40 43 44 45 42 41 45 47 42 38 36 45 50 46 42 44 45 36 28 27 30 34 32 42 53 57 55 58 56 57 57
54 44 46 48 49 48 35 26 26 32 37 35 40 38 35 42 42 42 40 43 46 50 41 40 36 46 50 51 49 41 38 46 33 21 27 33 39 48 51 52 52 53 52 55 55
41 40 41 47 48 43 31 28 31 37 36 38 36 38 32 33 37 40 39 48 43 51 51 44 33 44 47 49 49 48 49 39 37 24 22 30 31 39 46 50 53 52 52 53 55
41 34 44 47 45 35 26 29 33 41 39 34 38 37 36 34 38 39 40 47 50 49 51 44 38 37 43 41 39 41 42 42 41 35 27 25 32 45 50 51 53 53 54 53 53
37 29 43 47 31 31 27 33 40 39 42 37 39 42 38 41 38 39 40 46 53 52 46 45 37 32 36 43 48 46 46 45 40 32 33 32 35 49 51 52 53 52 53 51 51
32 34 44 44 26 27 32 35 39 38 37 36 36 47 46 42 37 41 44 47 53 51 47 45 35 29 31 38 42 42 44 47 43 37 31 30 34 49 48 49 50 51 51 52 52
35 29 34 37 35 29 28 30 32 40 38 40 37 46 45 43 44 41 42 46 53 54 48 46 38 36 33 40 39 36 41 43 41 31 31 37 38 44 48 49 50 51 52 51 52
32 29 31 28 31 32 31 32 31 32 38 40 36 41 43 40 41 42 45 46 52 50 48 45 32 39 41 42 42 41 41 42 41 44 40 45 42 47 50 50 51 53 51 52 53
29 33 33 33 32 32 32 29 30 32 34 35 34 42 47 43 43 41 45 45 45 46 47 46 32 37 29 40 42 39 43 44 45 47 46 42 42 52 53 51 50 52 53 55 55
35 36 34 34 32 29 29 31 33 35 38 40 40 42 45 49 51 53 52 49 48 46 44 41 34 32 25 34 35 27 39 42 45 48 47 40 49 50 51 51 50 52 54 55 54